[[{"header":{"parameterUnit":"m.s-1","parameterCategory":1,"la1":30.6,"la2":29.2853,"lo1":-89.7004,"lo2":-87.6739,"dy":0.0162,"dx":0.0183,"nx":112,"ny":82,"refTime":"2023-05-12T06:00:00:Z","depth":0,"parameterNumber":2,"parameterNumberName":"U-component_of_WINDS"},"data":[0.0,0.0,0.0,0.0,0.0,0.0,0.0,0.0,0.0,0.0,0.0,0.0,0.0,0.0,0.0,0.0,0.0,0.0,0.0,0.0,0.0,0.0,0.0,0.0,0.0,0.0,0.0,0.0,0.0,0.0,0.0,0.0,0.0,0.0,0.0,0.0,0.0,0.0,0.0,0.0,0.0,0.0,0.0,0.0,0.0,0.0,0.0,0.0,0.0,0.0,0.0,0.0,0.0,0.0,0.0,0.0,0.0,0.0,0.0,0.0,0.0,0.0,0.0,0.0,0.0,0.0,0.0,0.0,0.0,0.0,0.0,0.0,0.0,0.0,0.0,0.0,0.0,0.0,0.0,0.0,0.0,0.0,0.0,0.0,0.0,0.0,0.0,0.0,0.0,0.0,-0.0,-0.0,0.2971,0.5106,0.5379,0.5369,0.5233,0.4938,0.0,0.0,0.0,0.0,0.0,0.0,0.0,0.0,0.0,0.0,0.0,0.0,0.0,0.0,0.0,0.0,0.0,0.0,0.0,0.0,0.0,0.0,0.0,0.0,0.0,0.0,0.0,0.0,0.0,0.0,0.0,0.0,0.0,0.0,0.0,0.0,0.0,0.0,0.0,0.0,0.0,0.0,0.0,0.0,0.0,0.0,0.0,0.0,0.0,0.0,0.0,0.0,0.0,0.0,0.0,0.0,0.0,0.0,0.0,0.0,0.0,0.0,0.0,0.0,0.0,0.0,0.0,0.0,0.0,0.0,0.0,0.0,0.0,0.0,0.0,0.0,0.0,0.0,0.0,0.0,0.0,0.0,0.0,0.0,0.0,0.0,0.0,0.0,0.0,0.0,0.0,0.0,0.0,0.0,0.0,0.0,0.0,0.0,0.0,0.0,0.0,0.0,0.0,0.0,-0.0,-0.0,0.1854,0.3751,0.5243,0.5369,0.5233,0.4938,0.0,0.0,0.0,0.0,0.0,0.0,0.0,0.0,0.0,0.0,0.0,0.0,0.0,0.0,0.0,0.0,0.0,0.0,0.0,0.0,0.0,0.0,0.0,0.0,0.0,0.0,0.0,0.0,0.0,0.0,0.0,0.0,0.0,0.0,0.0,0.0,0.0,0.0,0.0,0.0,0.0,0.0,0.0,0.0,0.0,0.0,0.0,0.0,0.0,0.0,0.0,0.0,0.0,0.0,0.0,0.0,0.0,0.0,0.0,0.0,0.0,0.0,0.0,0.0,0.0,0.0,0.0,0.0,0.0,0.0,0.0,0.0,0.0,0.0,0.0,0.0,0.0,0.0,0.0,0.0,0.0,0.0,0.0,0.0,0.0,0.0,0.0,0.0,0.0,0.0,0.0,0.0,0.0,0.0,0.0,0.0,0.0,0.0,0.0,0.0,0.0,0.0,0.0,-0.0,-0.0,-0.0,0.0737,0.2344,0.5189,0.5386,0.5319,0.5013,0.5197,0.0,0.0,0.0,0.0,0.0,0.0,0.0,0.0,0.0,0.0,0.0,0.0,0.0,0.0,0.0,0.0,0.0,0.0,0.0,0.0,0.0,0.0,0.0,0.0,0.0,0.0,0.0,0.0,0.0,0.0,0.0,0.0,0.0,0.0,0.0,0.0,0.0,0.0,0.0,0.0,0.0,0.0,0.0,0.0,0.0,0.0,0.0,0.0,0.0,0.0,0.0,0.0,0.0,0.0,0.0,0.0,0.0,0.0,0.0,0.0,0.0,0.0,0.0,0.0,0.0,0.0,0.0,0.0,0.0,0.0,0.0,0.0,0.0,0.0,0.0,0.0,0.0,0.0,0.0,0.0,0.0,0.0,0.0,0.0,0.0,0.0,0.0,0.0,0.0,0.0,0.0,0.0,0.0,0.0,0.0,0.0,0.0,0.0,0.0,0.0,0.0,0.0,-0.0,-0.0,-0.0,-0.0,0.1151,0.3876,0.4487,0.4725,0.4549,0.5064,0.0,0.0,0.0,0.0,0.0,0.0,0.0,0.0,0.0,0.0,0.0,0.0,0.0,0.0,0.0,0.0,0.0,0.0,0.0,0.0,0.0,0.0,0.0,0.0,0.0,0.0,0.0,0.0,0.0,0.0,0.0,0.0,0.0,0.0,0.0,0.0,0.0,0.0,0.0,0.0,0.0,0.0,0.0,0.0,0.0,0.0,0.0,0.0,0.0,0.0,0.0,0.0,0.0,0.0,0.0,0.0,0.0,0.0,0.0,0.0,0.0,0.0,0.0,0.0,0.0,0.0,0.0,0.0,0.0,0.0,0.0,0.0,0.0,0.0,0.0,0.0,0.0,0.0,0.0,0.0,0.0,0.0,0.0,0.0,0.0,0.0,0.0,0.0,0.0,0.0,0.0,0.0,0.0,0.0,0.0,0.0,0.0,0.0,0.0,0.0,0.0,0.0,-0.0,-0.0,-0.0,-0.0,0.007,0.0348,0.1948,0.2888,0.2876,0.4472,0.0,0.0,0.0,0.0,0.0,0.0,0.0,0.0,0.0,0.0,0.0,0.0,0.0,0.0,0.0,0.0,0.0,0.0,0.0,0.0,0.0,0.0,0.0,0.0,0.0,0.0,0.0,0.0,0.0,0.0,0.0,0.0,0.0,0.0,0.0,0.0,0.0,0.0,0.0,0.0,0.0,0.0,0.0,0.0,0.0,0.0,0.0,0.0,0.0,0.0,0.0,0.0,0.0,0.0,0.0,0.0,0.0,0.0,0.0,0.0,0.0,0.0,0.0,0.0,0.0,0.0,0.0,0.0,0.0,0.0,0.0,0.0,0.0,0.0,0.0,0.0,0.0,0.0,0.0,0.0,0.0,0.0,0.0,0.0,0.0,0.0,0.0,0.0,0.0,0.0,0.0,0.0,0.0,0.0,0.0,0.0,0.0,0.0,0.0,0.0,0.0,0.0,-0.0,-0.0,0.0,-0.0,-0.0,-0.0,0.0645,0.1478,0.2631,0.0,0.0,0.0,0.0,0.0,0.0,0.0,0.0,0.0,0.0,0.0,0.0,0.0,0.0,0.0,0.0,0.0,0.0,0.0,0.0,0.0,0.0,0.0,0.0,0.0,0.0,0.0,0.0,0.0,0.0,0.0,0.0,0.0,0.0,0.0,0.0,0.0,0.0,0.0,0.0,0.0,0.0,0.0,0.0,0.0,0.0,0.0,0.0,0.0,0.0,0.0,0.0,0.0,0.0,0.0,0.0,0.0,0.0,0.0,0.0,0.0,0.0,0.0,0.0,0.0,0.0,0.0,0.0,0.0,0.0,0.0,0.0,0.0,0.0,0.0,0.0,0.0,0.0,0.0,0.0,0.0,0.0,0.0,0.0,0.0,0.0,0.0,0.0,0.0,0.0,0.0,0.0,0.0,0.0,0.0,0.0,0.0,0.0,0.0,0.0,0.0,0.0,-0.0,-0.0,-0.0,0.0,-0.0,-0.0,-0.0,-0.0,0.0507,0.1732,0.0,0.0,0.0,0.0,0.0,0.0,0.0,0.0,0.0,0.0,0.0,0.0,0.0,0.0,0.0,0.0,0.0,0.0,0.0,0.0,0.0,0.0,0.0,0.0,0.0,0.0,0.0,0.0,0.0,0.0,0.0,0.0,0.0,0.0,0.0,0.0,0.0,0.0,0.0,0.0,0.0,0.0,0.0,0.0,0.0,0.0,0.0,0.0,0.0,0.0,0.0,0.0,0.0,0.0,0.0,0.0,0.0,0.0,0.0,0.0,0.0,0.0,0.0,0.0,0.0,0.0,0.0,0.0,0.0,0.0,0.0,0.0,0.0,0.0,0.0,0.0,0.0,0.0,0.0,0.0,0.0,0.0,0.0,0.0,0.0,0.0,0.0,0.0,0.0,0.0,0.0,0.0,0.0,0.0,0.0,0.0,0.0,0.0,0.0,0.0,0.0,0.0,-0.0,-0.0,-0.0,-0.0,-0.0,-0.0,-0.0,-0.0,-0.0,0.0,0.0,0.0,0.0,0.0,0.0,0.0,0.0,0.0,0.0,0.0,0.0,0.0,0.0,0.0,0.0,0.0,0.0,0.0,0.0,0.0,0.0,0.0,0.0,0.0,0.0,0.0,0.0,0.0,0.0,0.0,0.0,0.0,0.0,0.0,0.0,0.0,0.0,0.0,0.0,0.0,0.0,0.0,0.0,0.0,0.0,0.0,0.0,0.0,0.0,0.0,0.0,0.0,0.0,0.0,0.0,0.0,0.0,0.0,0.0,0.0,0.0,0.0,0.0,0.0,0.0,0.0,0.0,0.0,0.0,0.0,0.0,0.0,0.0,0.0,0.0,0.0,0.0,0.0,0.0,0.0,0.0,0.0,0.0,0.0,0.0,0.0,0.0,0.0,0.0,0.0,0.0,0.0,0.0,0.0,0.0,0.0,0.0,0.0,0.0,0.0,0.0,0.0,-0.0,-0.0,-0.0,-0.0,-0.0,-0.0,-0.0,-0.0,-0.0,-0.0,0.0,0.0,0.0,0.0,0.0,0.0,0.0,0.0,0.0,0.0,0.0,0.0,0.0,0.0,0.0,0.0,0.0,0.0,0.0,0.0,0.0,0.0,0.0,0.0,0.0,0.0,0.0,0.0,0.0,0.0,0.0,0.0,0.0,0.0,0.0,0.0,0.0,0.0,0.0,0.0,0.0,0.0,0.0,0.0,0.0,0.0,0.0,0.0,0.0,0.0,0.0,0.0,0.0,0.0,0.0,0.0,0.0,0.0,0.0,0.0,0.0,0.0,0.0,0.0,0.0,0.0,0.0,0.0,0.0,0.0,0.0,0.0,0.0,0.0,0.0,0.0,0.0,0.0,0.0,0.0,0.0,0.0,0.0,0.0,0.0,0.0,0.0,0.0,0.0,0.0,0.0,0.0,0.0,0.0,0.0,0.0,0.0,0.0,0.0,0.0,0.0,0.0,-0.0,-0.0,-0.0,-0.0,-0.0,-0.0,-0.0,-0.0,-0.0,-0.0,0.0,0.0,0.0,0.0,0.0,0.0,0.0,0.0,0.0,0.0,0.0,0.0,0.0,0.0,0.0,0.0,0.0,0.0,0.0,0.0,0.0,0.0,0.0,0.0,0.0,0.0,0.0,0.0,0.0,0.0,0.0,0.0,0.0,0.0,0.0,0.0,0.0,0.0,0.0,0.0,0.0,0.0,0.0,0.0,0.0,0.0,0.0,0.0,0.0,0.0,0.0,0.0,0.0,0.0,0.0,0.0,0.0,0.0,0.0,0.0,0.0,0.0,0.0,0.0,0.0,0.0,0.0,0.0,0.0,0.0,0.0,0.0,0.0,0.0,0.0,0.0,0.0,0.0,0.0,0.0,0.0,0.0,0.0,0.0,0.0,0.0,0.0,0.0,0.0,0.0,0.0,0.0,0.0,0.0,0.0,0.0,0.0,0.0,0.0,0.0,0.0,0.0,-0.0,-0.0,-0.0,-0.0,-0.0,-0.0,-0.0,-0.0,-0.0,-0.0,0.0,0.0,0.0,0.0,0.0,0.0,0.0,0.0,0.0,0.0,0.0,0.0,0.0,0.0,0.0,0.0,0.0,0.0,0.0,0.0,0.0,0.0,0.0,0.0,0.0,0.0,0.0,0.0,0.0,0.0,0.0,0.0,0.0,0.0,0.0,0.0,0.0,0.0,0.0,0.0,0.0,0.0,0.0,0.0,0.0,0.0,0.0,0.0,0.0,0.0,0.0,0.0,0.0,0.0,0.0,0.0,0.0,0.0,0.0,0.0,0.7302,0.0,0.0,0.0,0.0,0.0,0.0,0.0,0.0,0.0,0.0,0.0,0.0,0.0,0.0,0.0,0.0,0.0,0.0,0.0,0.0,0.0,0.0,0.0,0.0,0.0,0.0,0.0,0.0,0.0,0.0,0.0,0.0,0.0,0.0,0.0,0.0,0.0,0.0,0.0,0.0,0.0,-0.0,-0.0,-0.0,-0.0,-0.0,-0.0,-0.0,-0.0,-0.0,-0.0,-0.0,0.0,0.0,0.0,0.0,0.0,0.0,0.0,0.0,0.0,0.0,0.0,0.0,0.0,0.0,0.0,0.0,0.0,0.0,0.0,0.0,0.0,0.0,0.0,0.0,0.0,0.0,0.0,0.0,0.0,0.0,0.0,0.0,0.0,0.0,0.0,0.0,0.0,0.0,0.0,0.0,0.0,0.0,0.0,0.0,0.0,0.0,0.0,0.0,0.0,0.0,0.0,0.0,0.0,0.0,0.0,0.0,0.0,0.0,0.0,0.0,0.733,0.0,0.0,0.0,0.0,0.0,0.0,0.0,0.0,0.0,0.0,0.0,0.0,0.0,0.0,0.0,0.0,0.0,0.0,0.0,0.0,0.0,0.0,0.0,0.0,0.0,0.0,0.0,0.0,0.0,0.0,0.0,0.0,0.0,0.0,0.0,0.0,0.0,0.0,0.0,0.0,-0.0,-0.0,-0.0,-0.0,-0.0,-0.0,-0.0,-0.0,-0.0,-0.0,-0.0,0.0,0.0,0.0,0.0,0.0,0.0,0.0,0.0,0.0,0.0,0.0,0.0,0.0,0.0,0.0,0.0,0.0,0.0,0.0,0.0,0.0,0.0,0.0,0.0,0.0,0.0,0.0,0.0,0.0,0.0,0.0,0.0,0.0,0.0,0.0,0.0,0.0,0.0,0.0,0.0,0.0,0.0,0.0,0.0,0.0,0.0,0.0,0.0,0.0,0.0,0.0,0.0,0.0,0.6876,0.6713,0.6474,0.6757,0.6679,0.626,0.6987,0.7005,0.6666,0.6935,0.0,0.0,0.0,0.0,0.0,0.0,0.0,0.0,0.0,0.0,0.0,0.0,0.0,0.0,0.0,0.0,0.0,0.0,0.0,0.0,0.0,0.0,0.0,0.0,-0.0,-0.0,0.0,0.0,0.0,0.0,0.0,0.0,0.0,0.0,0.0,0.0,0.0,0.0,-0.0,-0.0,-0.0,-0.0,-0.0,-0.0,-0.0,-0.0,-0.0,-0.0,-0.0,-0.0,0.0,0.0,0.0,0.0,0.0,0.0,0.0,0.0,0.0,0.0,0.0,0.0,0.0,0.0,0.0,0.0,0.0,0.0,0.0,0.0,0.0,0.0,0.0,0.0,0.0,0.0,0.0,0.0,0.0,0.0,0.0,0.0,0.7406,0.8305,0.0,0.0,0.0,0.0,0.0,0.0,0.0,0.0,0.0,0.0,0.0,0.0,0.0,0.724,0.7168,0.6625,0.6306,0.631,0.6069,0.5983,0.6099,0.6117,0.6215,0.6294,0.6442,0.0,0.6316,0.6601,0.0,0.0,0.0,0.0,0.0,0.0,0.0,0.0,0.0,0.0,0.0,0.0,0.0,0.0,0.0,0.0,0.0,0.0,0.0,0.0,0.0,0.0,-0.0,-0.0,-0.0,-0.0,0.0,-0.0,-0.0,-0.0,-0.0,0.0,0.0,0.0,0.0,0.0,0.0,0.0,-0.0,-0.0,-0.0,-0.0,-0.0,-0.0,-0.0,-0.0,-0.0,-0.0,-0.0,-0.0,-0.0,-0.0446,0.0,0.0,0.0,0.0,0.0,0.0,0.0,0.0,0.0,0.0,0.0,0.0,0.0,0.0,0.0,0.0,0.0,0.0,0.0,0.0,0.0,0.0,0.0,0.0,0.0,0.0,0.0,0.0,0.0,0.7604,0.7851,0.8644,0.9016,0.9522,0.0,0.0,0.0,0.0,0.0,0.0,0.0,0.0,0.0,0.7159,0.7022,0.6881,0.6679,0.6403,0.6226,0.6226,0.6145,0.6095,0.6159,0.6159,0.6196,0.6338,0.6338,0.6259,0.6288,0.6663,0.6519,0.6097,0.0,0.0,0.0,0.0,0.5496,0.5213,0.5528,0.5579,0.0,0.527,0.0,0.0,0.0,0.0,0.0,0.0,0.0,0.0,0.0,0.0,-0.0,-0.0,-0.0,-0.0,-0.0,-0.0,-0.0,0.0,-0.0,-0.0,-0.0,0.0,0.0,0.0,0.0,-0.0,-0.0,-0.0,-0.0,-0.0,-0.0,-0.0,-0.0,-0.0,-0.0,-0.0,-0.0,-0.0,-0.0,-0.0,-0.1096,0.0,0.0,0.0,0.0,0.0,0.0,0.0,0.0,0.0,0.0,0.0,0.0,0.0,0.0,0.0,0.0,0.0,0.0,0.0,0.0,0.0,0.0,0.0,0.0,0.0,0.0,0.0,0.0,0.7914,0.8155,0.8758,0.9227,0.9693,0.0,0.0,0.0,0.0,0.0,0.0,0.822,0.7722,0.7224,0.6771,0.6783,0.6615,0.6338,0.6338,0.6338,0.6338,0.6338,0.6338,0.6338,0.6338,0.6338,0.6338,0.6338,0.6338,0.6321,0.66,0.6516,0.6129,0.6435,0.6152,0.5711,0.5844,0.5776,0.5532,0.5945,0.6013,0.5901,0.5783,0.5553,0.5408,0.5733,0.0,0.0,0.0,0.0,-0.0,-0.0,-0.0,-0.0,-0.0,-0.0,-0.0,-0.0,-0.0,-0.0,0.0,-0.0,-0.0,-0.0,0.0,0.0,0.0,0.0,-0.0,-0.0,-0.0,-0.0,-0.0,-0.0,-0.0,-0.0,-0.0,-0.0,-0.0,-0.0,-0.0,-0.0,-0.1061,-0.306,-0.6271,0.0,0.0,0.0,0.0,0.0,0.0,0.0,0.0,0.0,0.0,0.0,0.0,0.0,0.0,0.0,0.0,0.0,0.0,0.0,0.0,0.0,0.0,0.0,0.0,0.0,0.0,0.0,0.0,0.0,0.8392,0.919,0.0,0.0,0.0,0.0,0.843,0.7857,0.7486,0.7338,0.7294,0.7021,0.6384,0.6314,0.6321,0.6338,0.6338,0.6338,0.6338,0.6338,0.6338,0.6338,0.6338,0.6338,0.6338,0.6338,0.6338,0.6338,0.6321,0.6506,0.6857,0.6836,0.6627,0.6374,0.672,0.6418,0.5823,0.6142,0.6244,0.6166,0.5739,0.5403,0.5243,0.6032,0.5752,0.0,0.0,-0.0,-0.0,-0.0,-0.0,-0.0,-0.0,-0.0,-0.0,-0.0,-0.0,-0.0,0.0,-0.0,-0.0,-0.0,0.0,-0.0,-0.0,-0.0,-0.0,-0.0,-0.0,-0.0,-0.0,-0.0,-0.0,-0.0,-0.0,-0.0,-0.0,-0.0,-0.0,-0.0,-0.3847,-0.6093,-0.6266,-0.6229,0.0,0.0,0.0,0.0,0.0,0.0,0.0,0.0,0.0,0.0,0.0,0.0,0.0,0.0,0.0,0.0,0.0,0.0,0.0,0.0,0.0,0.0,0.0,0.0,0.0,0.0,0.0,0.0,0.7754,0.7917,0.0,0.8007,0.7836,0.7683,0.7413,0.6952,0.6741,0.6692,0.6627,0.6579,0.6338,0.6338,0.6338,0.6338,0.6338,0.6338,0.6338,0.6338,0.6338,0.6338,0.6338,0.6338,0.6338,0.6338,0.6338,0.6338,0.6338,0.6346,0.6543,0.6543,0.6474,0.6313,0.6503,0.6321,0.6112,0.6224,0.6338,0.6234,0.6074,0.5949,0.5961,0.6207,0.6122,0.539,0.2728,0.1068,-0.0,-0.0,-0.0,-0.0,-0.0,-0.0,-0.0,-0.0,-0.0,-0.0,-0.0,-0.0,-0.0,-0.0,-0.0,-0.0,-0.0,-0.0,-0.0,-0.0,-0.0,-0.0,-0.0,-0.0,-0.0,-0.0,-0.0,-0.1178,-0.3857,-0.4016,-0.3456,-0.2033,-0.3444,-0.4905,-0.6291,-0.6263,-0.6113,0.0,0.0,0.0,0.0,0.0,0.0,0.0,0.0,0.0,0.0,0.0,0.0,0.0,0.0,0.0,0.0,0.0,0.0,0.0,0.0,0.0,0.0,0.0,0.0,0.0,0.0,0.7346,0.747,0.7725,0.7686,0.7351,0.7436,0.724,0.676,0.6446,0.6338,0.6338,0.6338,0.6338,0.6338,0.6308,0.6332,0.6332,0.6383,0.641,0.641,0.641,0.641,0.641,0.641,0.641,0.6407,0.6352,0.6332,0.6329,0.6281,0.6338,0.6338,0.6338,0.6338,0.6338,0.6338,0.6338,0.6338,0.6338,0.6338,0.6338,0.6338,0.6338,0.6338,0.6268,0.6281,0.5977,0.4548,0.2194,-0.0,-0.0,-0.0,-0.0,-0.0,-0.0,-0.0,-0.0,-0.0,-0.0,-0.0,-0.0,-0.0,-0.0,-0.0,-0.0,-0.0,-0.0,-0.0,-0.0,-0.0,-0.0,-0.0,-0.0,-0.055,-0.2043,-0.0851,-0.1466,-0.5031,-0.5909,-0.5659,-0.4224,-0.4112,-0.4775,-0.6291,-0.6284,-0.6079,-0.5733,0.0,0.0,0.0,0.0,0.0,0.0,0.0,0.0,0.0,0.0,0.0,0.0,0.0,0.0,0.0,0.0,0.0,0.0,0.0,0.0,0.0,0.0,0.0,0.7447,0.7947,0.8127,0.7522,0.848,0.8603,0.7052,0.7418,0.733,0.6345,0.6268,0.6271,0.6274,0.6274,0.6274,0.6274,0.6407,0.6478,0.6478,0.6627,0.6702,0.6702,0.6702,0.6702,0.6702,0.6702,0.6702,0.6692,0.6546,0.6478,0.6468,0.6332,0.6274,0.6352,0.6264,0.6338,0.6338,0.6338,0.6338,0.6338,0.6338,0.6338,0.6338,0.6338,0.6338,0.6264,0.6274,0.6285,0.622,0.6244,0.3224,-0.0,-0.0,-0.0,-0.0,-0.0,-0.0,-0.0,-0.0,-0.0,-0.0,-0.0,-0.0,-0.0,-0.0,-0.0,-0.0,-0.0,-0.0076,0.0,-0.0221,-0.0153,-0.0079,-0.0,-0.0,-0.1728,-0.593,-0.2558,-0.1043,-0.3122,-0.5202,-0.6328,-0.6298,-0.6152,-0.6084,-0.6324,-0.6292,-0.6115,-0.58,0.0,0.0,0.0,0.0,0.0,0.0,0.0,0.0,0.0,0.0,0.0,0.0,0.0,0.0,0.0,0.0,0.0,0.0,0.0,0.0,0.0,0.0,0.6353,0.6954,0.6952,0.6847,0.6682,0.6908,0.6988,0.6518,0.659,0.661,0.6486,0.6413,0.6464,0.6573,0.658,0.658,0.658,0.6617,0.6637,0.6637,0.6678,0.6702,0.6702,0.6702,0.6702,0.6702,0.6702,0.6702,0.6698,0.6658,0.6637,0.6634,0.6597,0.658,0.6559,0.6342,0.6338,0.6338,0.6338,0.6338,0.6338,0.6338,0.6338,0.6338,0.6338,0.6338,0.6264,0.6274,0.5249,0.4309,0.5839,0.3224,-0.0,-0.0,-0.0,-0.0,-0.0,-0.0,-0.0,-0.0,-0.0,-0.0,-0.0,-0.0,-0.0,-0.0,-0.0,-0.0,-0.0,-0.2571,0.0,-0.4565,-0.3398,-0.1901,-0.0153,-0.0,-0.1883,-0.6492,-0.578,-0.5358,-0.5749,-0.6361,-0.6603,-0.6586,-0.6546,-0.6454,-0.6464,-0.6238,-0.5991,0.0,0.0,0.0,0.0,0.0,0.0,0.0,0.0,0.0,0.0,0.0,0.0,0.0,0.0,0.0,0.0,0.0,0.0,0.0,0.0,0.0,0.0,0.4489,0.4806,0.5232,0.5911,0.6268,0.6338,0.6315,0.6349,0.6349,0.6407,0.6478,0.6563,0.6566,0.6607,0.6695,0.6702,0.6702,0.6702,0.6763,0.6797,0.6797,0.6854,0.6885,0.6885,0.6885,0.6885,0.6885,0.6885,0.6885,0.6881,0.682,0.6797,0.6793,0.6725,0.6702,0.0,0.0,0.0,0.0,0.0,0.6444,0.6444,0.6444,0.6444,0.6434,0.6369,0.6349,0.6342,0.6298,0.4776,0.3205,0.3536,0.1885,-0.0,-0.0,-0.0,-0.0,-0.0,-0.0,-0.0,-0.0,-0.0,-0.0,-0.0,-0.0,0.0,-0.2669,-0.2969,-0.301,-0.2952,-0.4211,-0.5476,-0.6332,-0.5586,-0.4401,-0.3092,-0.2078,-0.2983,-0.6659,-0.7036,0.0,0.0,0.0,-0.6722,-0.6603,-0.6718,0.0,0.0,0.0,-0.6304,-0.6176,0.0,0.0,0.0,-0.5772,-0.5759,0.0,0.0,0.0,0.0,0.0,0.0,0.0,0.0,0.0,0.0,0.0,0.0,0.0,0.0,0.0,0.0,0.3086,0.3139,0.3137,0.4805,0.6077,0.6291,0.6413,0.6498,0.6498,0.662,0.6709,0.6725,0.6725,0.6732,0.6749,0.0,0.0,0.0,0.0,0.6987,0.7004,0.7129,0.719,0.719,0.719,0.719,0.719,0.7173,0.7166,0.7156,0.7014,0.6953,0.6943,0.6807,0.6749,0.6746,0.6712,0.6702,0.6702,0.6702,0.6702,0.6702,0.6702,0.0,0.0,0.6542,0.6498,0.6478,0.6376,0.4818,0.2678,0.0554,-0.0,-0.0,-0.0,-0.0,-0.0,-0.0,-0.0,-0.0,-0.0,-0.0,-0.0,-0.0,-0.0421,-0.2104,-0.6344,-0.7083,-0.714,-0.7092,-0.5347,-0.4632,-0.6458,-0.6682,-0.6846,-0.7069,0.0,0.0,-0.6636,-0.6984,-0.7034,-0.6732,-0.6764,-0.6756,-0.6542,-0.6763,-0.6748,-0.6522,-0.6738,-0.6795,-0.6702,-0.6702,-0.663,-0.6481,-0.5803,-0.5691,0.0,0.0,0.0,0.0,0.0,0.0,0.0,0.0,0.0,0.0,0.0,0.0,0.0,0.0,0.0,0.446,0.3857,0.3073,0.3068,0.3685,0.4688,0.6311,0.6576,0.6658,0.6658,0.6681,0.6753,0.6875,0.6885,0.6936,0.7048,0.7054,0.7112,0.7238,0.7272,0.7343,0.7468,0.7499,0.7512,0.7512,0.0,0.0,0.7506,0.7383,0.7326,0.7319,0.7166,0.7099,0.7095,0.7068,0.7054,0.7031,0.6793,0.6702,0.6702,0.6702,0.6702,0.6702,0.6702,0.6702,0.6695,0.6664,0.6658,0.6654,0.6407,0.4809,0.0,0.0581,-0.0,-0.0,-0.0,-0.0,-0.0,-0.0,-0.0,-0.0,-0.0,-0.0,-0.0,-0.0,-0.3115,-0.6002,-0.6944,-0.709,-0.713,-0.7062,-0.6595,-0.636,-0.673,-0.679,-0.6891,-0.6817,-0.6569,-0.6552,-0.6975,-0.7091,-0.7101,-0.7037,-0.7004,-0.6987,-0.701,-0.699,-0.6932,-0.6844,-0.6901,-0.6853,-0.6702,-0.6702,-0.6685,-0.6651,-0.6383,-0.6244,0.0,0.0,0.0,0.0,0.0,0.0,0.0,0.0,0.0,0.0,0.0,-0.0,0.0,0.0,0.0602,0.2421,0.2084,0.1553,0.1569,0.2695,0.4402,0.6473,0.6736,0.6814,0.6814,0.6949,0.7068,0.7146,0.7221,0.7295,0.7366,0.737,0.7404,0.7485,0.7485,0.7522,0.76,0.76,0.76,0.76,0.76,0.76,0.7597,0.7519,0.7489,0.7393,0.7404,0.7282,0.7285,0.7279,0.737,0.7346,0.7122,0.699,0.6919,0.6919,0.6919,0.6919,0.6919,0.6919,0.6909,0.6837,0.6814,0.6723,0.6592,0.4873,0.2681,0.0588,-0.0,-0.0,-0.0,-0.0,-0.0,-0.0,-0.0,-0.0,-0.0,-0.0,-0.0,-0.0,-0.3838,-0.7101,-0.7076,-0.7073,-0.7128,-0.7126,-0.6984,-0.6929,-0.6929,-0.699,-0.698,-0.6919,-0.7059,-0.7107,-0.7107,-0.7107,-0.708,-0.7132,-0.7139,-0.7139,-0.7139,-0.7139,-0.7105,-0.7037,-0.7034,-0.6997,-0.6919,-0.6919,-0.6885,-0.6814,-0.6736,-0.662,0.0,0.0,0.0,0.0,0.0,0.0,0.0,0.0,-0.5146,-0.2839,-0.1074,-0.0,-0.0,-0.0,-0.0,-0.0,-0.0,-0.0,-0.0,0.1638,0.3911,0.6537,0.6963,0.7021,0.7017,0.7258,0.7414,0.7414,0.7529,0.76,0.76,0.76,0.7611,0.7641,0.7641,0.7655,0.7685,0.7685,0.7685,0.7685,0.7685,0.7689,0.7692,0.7662,0.756,0.7472,0.7533,0.752,0.7429,0.7607,0.7604,0.7597,0.7465,0.7339,0.7135,0.7074,0.7139,0.7139,0.7139,0.7139,0.7122,0.7007,0.6973,0.6959,0.678,0.5453,0.3315,0.0767,-0.0,-0.0,-0.0,-0.0,-0.0,-0.0,-0.0,-0.0,-0.0,-0.0,-0.0,-0.0,-0.306,-0.6048,-0.6933,-0.7104,-0.7143,-0.7094,-0.7075,-0.7139,-0.7139,-0.7139,-0.7139,-0.7139,-0.7139,-0.7139,-0.7139,-0.7139,-0.7139,-0.7139,-0.7139,-0.7139,-0.7139,-0.7139,-0.7139,-0.7139,-0.7139,-0.7139,-0.7139,-0.7139,-0.7082,-0.697,-0.697,-0.6871,-0.9105,-0.8638,-0.7326,-0.5909,-0.5647,-0.582,0.0,0.0,-0.5277,-0.3381,-0.1392,-0.0,-0.0,-0.0,-0.0,-0.0,-0.0,-0.0,-0.0,0.0264,0.2064,0.6521,0.7269,0.7343,0.7322,0.7475,0.7573,0.7573,0.759,0.76,0.76,0.76,0.7658,0.7784,0.7787,0.7851,0.7987,0.7991,0.7991,0.7991,0.7991,0.8001,0.7915,0.7781,0.7731,0.7945,0.7706,0.755,0.755,0.7624,0.7628,0.7641,0.7594,0.7473,0.7336,0.7155,0.7139,0.7139,0.7139,0.7139,0.7139,0.7122,0.7044,0.7058,0.7054,0.6884,0.5725,0.1249,-0.0,-0.0,-0.0,-0.0,-0.0,-0.0,-0.0,-0.0,-0.0,-0.0,-0.0,-0.0,-0.0448,-0.215,-0.6397,-0.7108,-0.7074,-0.7126,-0.7132,-0.7139,-0.7139,-0.7139,-0.7139,-0.7139,-0.7139,-0.7139,-0.7139,-0.7139,-0.7139,-0.7139,-0.7139,-0.7139,-0.7139,-0.7139,-0.7139,-0.7139,-0.7139,-0.7139,-0.7139,-0.7139,-0.7132,-0.7115,-0.7115,-0.6966,-0.8711,-0.8533,0.0,0.0,-0.5891,-0.5969,-0.6098,-0.6016,-0.5406,-0.3498,-0.1486,-0.0,-0.0,-0.0,-0.0,0.0,-0.0,-0.0,-0.0,-0.0,0.0732,0.2769,0.5578,0.7452,0.7526,0.7641,0.7723,0.7723,0.7804,0.7855,0.7855,0.7855,0.7882,0.7943,0.7943,0.798,0.7959,0.7959,0.7962,0.7969,0.7969,0.7972,0.7979,0.6291,0.557,0.5572,0.3946,0.403,0.5508,0.5501,0.6491,0.769,0.6696,0.6852,0.7607,0.7485,0.7407,0.7407,0.7407,0.7407,0.7407,0.7322,0.7275,0.7222,0.7154,0.7108,0.6132,0.1348,-0.0,-0.0,-0.0,-0.0,-0.0,-0.0,-0.0,-0.0,-0.0,-0.0,-0.0,-0.0,-0.0,-0.1076,-0.448,-0.5099,-0.5539,-0.6874,-0.7139,-0.7139,-0.7139,-0.7139,-0.7139,-0.7139,-0.7139,-0.7139,-0.7139,-0.7139,-0.7139,-0.7139,-0.7139,-0.7139,-0.7139,-0.7139,-0.7139,-0.7139,-0.7139,-0.7139,-0.7139,-0.7139,-0.7139,-0.7139,-0.7139,-0.7075,-0.8353,0.0,0.0,-0.6356,-0.6061,-0.6095,-0.6095,-0.6101,-0.5676,-0.4283,-0.2357,-0.0795,-0.0162,-0.0,-0.0,-0.0,-0.0,-0.0,-0.0,-0.0,-0.0,-0.0,0.3179,0.5968,0.7568,0.7834,0.7882,0.7875,0.7977,0.8041,0.8048,0.8048,0.8048,0.7952,0.7952,0.7962,0.7979,0.726,0.6853,0.6859,0.6859,0.7272,0.7899,0.4429,0.2914,0.2815,0.0805,0.1107,0.2914,0.2912,0.4021,0.5834,0.6044,0.6801,0.7885,0.777,0.7675,0.76,0.76,0.76,0.751,0.7419,0.7366,0.7297,0.7131,0.6216,0.4385,0.0998,-0.0,-0.0,-0.0,-0.0,-0.0,-0.0,-0.0,-0.0,-0.0,-0.0,-0.0,-0.0,-0.1078,-0.2512,-0.4297,-0.4561,-0.5179,-0.6881,-0.7143,-0.7139,-0.7139,-0.7139,-0.7139,-0.7139,-0.7139,-0.7139,-0.7139,-0.7139,-0.7139,-0.7139,-0.7139,-0.7139,-0.7139,-0.7139,-0.7139,-0.7139,-0.7139,-0.7139,-0.7139,-0.7139,-0.7139,-0.7139,-0.7139,-0.7139,0.0,0.0,-0.698,-0.6212,-0.6142,-0.6254,-0.6254,-0.6261,-0.6271,-0.6197,-0.4783,-0.2752,-0.0405,-0.0,-0.0,-0.0,-0.0,-0.0,-0.0,-0.0,-0.0,-0.0,0.0098,0.2167,0.0,0.7879,0.7955,0.8035,0.8038,0.8048,0.7972,0.7972,0.7975,0.7989,0.7989,0.7989,0.7992,0.5432,0.4117,0.4117,0.4117,0.5441,0.7818,0.2524,0.0101,0.0101,-0.0,-0.0,0.0101,0.0101,0.0201,0.0706,0.5939,0.7985,0.8009,0.7972,0.7865,0.76,0.76,0.751,0.7422,0.7422,0.7256,0.7092,0.7095,0.391,0.019,-0.0,-0.0,-0.0,-0.0,-0.0,-0.0,-0.0,-0.0,-0.0,-0.0,-0.0,-0.0,-0.0,-0.3687,-0.6952,-0.6952,-0.7015,-0.6996,-0.7084,-0.7064,-0.7139,-0.7139,-0.7139,-0.7139,-0.7139,-0.7139,-0.7139,-0.7139,-0.7139,-0.7139,-0.7139,-0.7139,-0.7139,-0.7139,-0.7139,-0.7139,-0.7139,-0.7139,-0.7139,-0.7139,-0.7139,-0.7139,-0.7139,-0.7139,-0.7139,0.0,0.0,-0.7078,-0.6366,-0.622,-0.6338,-0.6338,-0.6264,-0.6376,-0.6486,-0.5902,-0.5203,-0.4545,-0.2014,-0.0,-0.0,-0.0,-0.0,-0.0,-0.0,-0.0,-0.0,-0.0,0.0,0.0,0.0,0.0,0.7972,0.7972,0.7975,0.7982,0.6345,0.5329,0.5331,0.5331,0.615,0.8012,0.7086,0.4843,0.131,0.131,0.1815,0.2625,0.0808,-0.0,-0.0,-0.0,-0.0,-0.0,-0.0,-0.0,0.0201,0.201,0.4834,0.7795,0.6042,0.5282,0.5422,0.7223,0.7828,0.7835,0.775,0.7794,0.7033,0.3502,0.1252,-0.0,-0.0,-0.0,-0.0,-0.0,-0.0,-0.0,-0.0,-0.0,-0.0,-0.0,-0.2516,-0.4681,-0.4681,-0.4757,-0.5287,-0.6831,-0.7091,-0.7081,-0.7064,-0.7058,-0.7139,-0.7139,-0.7139,-0.7139,-0.7139,-0.7139,-0.7139,-0.7139,-0.7139,-0.7139,-0.7139,-0.7139,-0.7139,-0.7139,-0.7139,-0.7139,-0.7139,-0.7139,-0.7139,-0.7139,-0.7139,-0.7139,-0.7139,-0.7139,-0.7139,-0.8539,-0.7684,-0.6723,-0.6374,-0.6338,-0.6338,-0.6338,-0.6338,-0.6383,-0.6544,-0.6455,-0.6349,-0.6447,-0.4257,-0.1847,-0.0254,-0.0,-0.0,-0.0,-0.0,-0.0,-0.0,-0.0,-0.0,0.0,0.0,0.0,0.6453,0.6553,0.6965,0.7902,0.6358,0.4529,0.2614,0.2614,0.3425,0.5157,0.5159,0.3433,-0.0,-0.0,-0.0,-0.0,-0.0,-0.0,-0.0,-0.0,-0.0,-0.0,-0.0,-0.0,-0.0,-0.0,0.3323,0.7808,0.6055,0.4834,0.423,0.5944,0.7172,0.8006,0.8019,0.6734,0.4466,0.1091,-0.0,-0.0,-0.0,-0.0,-0.0,-0.0,-0.0,-0.0,-0.0,-0.0,-0.0,-0.0,-0.3725,-0.7108,-0.7055,-0.5925,-0.5364,-0.6815,-0.7078,-0.7068,-0.7143,-0.7139,-0.7139,-0.7139,-0.7139,-0.7139,-0.7139,-0.7139,-0.7139,-0.7139,-0.7139,-0.7139,-0.7139,-0.7139,-0.7139,-0.7139,-0.7139,-0.7139,-0.7139,-0.7139,-0.7139,-0.7139,-0.7139,-0.7139,-0.7139,-0.7139,-0.7139,-0.8682,-0.7495,-0.6153,-0.63,-0.6338,-0.6338,-0.6338,-0.6338,-0.6295,-0.6424,-0.6335,-0.6203,0.0,0.0,-0.5248,-0.0894,-0.0084,-0.0,-0.0,-0.0,-0.0,0.0,0.0,0.0,0.0,0.0,0.0,0.3615,0.0,0.4935,0.7406,0.7613,0.526,0.0202,-0.0,-0.0,-0.0,-0.0,-0.0,-0.0,-0.0,-0.0,-0.0,-0.0,-0.0,-0.0,-0.0,-0.0,-0.0,-0.0,-0.0,-0.0,-0.0,0.3128,0.7639,0.7932,0.6183,0.3843,0.3823,0.5445,0.7613,0.7613,0.4144,-0.0,-0.0,-0.0,-0.0,-0.0,-0.0,-0.0,-0.0,-0.0,-0.0,-0.0,-0.0,-0.0,-0.0186,-0.3711,-0.6952,-0.7085,-0.7111,-0.7084,-0.7084,-0.7064,-0.7139,-0.7139,-0.7139,-0.7139,-0.7139,-0.7139,-0.7139,-0.7139,-0.7139,-0.7139,-0.7139,-0.7139,-0.7139,-0.7139,-0.7139,-0.7139,-0.7139,-0.7139,-0.7139,-0.7139,-0.7139,-0.7139,-0.7139,-0.7139,-0.7139,-0.7139,-0.7139,-0.7139,-0.8939,-0.811,-0.7194,-0.6479,-0.6338,-0.6338,-0.6338,-0.6338,-0.6237,-0.6159,-0.6023,-0.5898,0.0,0.0,0.0,-0.2689,-0.1016,0.0,-0.0,-0.0,0.0,-0.0,0.0,-0.0,-0.0,-0.0,0.0,0.0,0.1008,0.1311,0.2019,0.2019,0.1414,-0.0,-0.0,-0.0,-0.0,-0.0,-0.0,-0.0,-0.0,-0.0,-0.0,-0.0,-0.0,-0.0,-0.0,-0.0,-0.0,-0.0,-0.0,-0.0,-0.0,0.0808,0.2528,0.6502,0.5067,0.101,0.1009,0.1513,0.2019,0.2019,0.1111,-0.0,-0.0,-0.0,-0.0,-0.0,-0.0,-0.0,-0.0,-0.0,-0.0,-0.0,-0.0,-0.0571,-0.2561,-0.3973,-0.5263,-0.6838,-0.7068,-0.7061,-0.7061,-0.7143,-0.7139,-0.7139,-0.7139,-0.7139,-0.7139,-0.7139,-0.7139,-0.7139,-0.7139,-0.7139,-0.7139,-0.7139,-0.7139,-0.7139,-0.7139,-0.7139,-0.7139,-0.7139,-0.7139,-0.7139,-0.7139,-0.7139,-0.7139,-0.7139,-0.7139,-0.7139,-0.7139,-0.7139,-0.9761,-0.9115,-0.8237,-0.7176,-0.6945,-0.6908,-0.6607,-0.6574,-0.653,-0.6367,-0.6143,0.0,0.0,0.0,0.0,0.0,0.0,0.0,-0.0,-0.0,-0.0,0.0,-0.0,0.0,-0.0,-0.0,-0.0,0.0,-0.0,-0.0,-0.0,-0.0,-0.0,-0.0,-0.0,-0.0,-0.0,-0.0,-0.0,-0.0,-0.0,-0.0,-0.0,-0.0,-0.0,-0.0,0.0,-0.0,-0.0,-0.0,-0.0,-0.0,-0.0,-0.0,0.0404,0.334,0.2629,-0.0,-0.0,-0.0,-0.0,-0.0,-0.0,-0.0,-0.0,-0.0,-0.0,-0.0,-0.0,-0.0,-0.0,-0.0,-0.0,-0.0,-0.1776,-0.3912,-0.5437,-0.4827,-0.4689,-0.6864,-0.7265,-0.7241,-0.7241,-0.7183,-0.7139,-0.7139,-0.7139,-0.7139,-0.7139,-0.7139,-0.7139,-0.7139,-0.7139,-0.7139,-0.7139,-0.7139,-0.7139,-0.7139,-0.7139,-0.7139,-0.7139,-0.7139,-0.7139,-0.7139,-0.7139,-0.7139,-0.7139,-0.7139,-0.7139,-0.7139,-0.7139,-0.7139,-1.0799,-1.019,-0.9296,-0.8237,-0.8012,-0.7832,-0.7225,-0.707,-0.6999,-0.6819,0.0,-0.6128,-0.5542,-0.5126,-0.4428,-0.3056,0.0,-0.0,-0.0,-0.0,-0.0,-0.0,-0.0,-0.0,-0.0,-0.0,-0.0,-0.0,-0.0,-0.0,-0.0,-0.0,-0.0,-0.0,-0.0,-0.0,-0.0,-0.0,-0.0,-0.0,-0.0,-0.0,-0.0,-0.0,-0.0,-0.0,-0.0,-0.0,-0.0,-0.0,-0.0,-0.0,-0.0,-0.0,-0.0,-0.0,-0.0,-0.0,-0.0,-0.0,-0.0,-0.0,-0.0,-0.0,-0.0,-0.0,-0.0,-0.0,-0.0,-0.0,-0.0,-0.0,-0.0202,-0.0909,-0.4661,-0.8012,-0.7963,-0.6198,-0.5156,-0.7174,-0.7506,-0.74,-0.74,-0.7292,-0.7193,-0.7173,-0.717,-0.7163,-0.7143,-0.7139,-0.7139,-0.7139,-0.7139,-0.7139,-0.7139,-0.7139,-0.7139,-0.7139,-0.7139,-0.7139,-0.7139,-0.7139,-0.7139,-0.7139,-0.7139,-0.7139,-0.7139,-0.7139,-0.7139,-0.7139,-0.7139,-0.7139,-1.1001,-1.0634,-1.0265,-0.9296,-0.9069,-0.8881,-0.8293,-0.8122,0.0,0.0,0.0,-0.6662,-0.5673,-0.4962,0.0,-0.3806,0.0,0.0,0.0,0.0,-0.0,0.0,0.0,0.0,0.0,0.0,0.0,0.0,0.0,-0.0,-0.0,-0.0,-0.0,-0.0,-0.0,-0.0,-0.0,-0.0,-0.0,-0.0,-0.0,-0.0,-0.0,-0.0,-0.0,-0.0,-0.0,0.0,-0.0,-0.0,-0.0,-0.0,-0.0,-0.0,-0.0,-0.0,-0.0,-0.0,-0.0,-0.0,-0.0,-0.0,-0.0,-0.0,-0.0,-0.0,-0.0,-0.0,-0.0,-0.0,-0.0,-0.0,-0.1111,-0.5583,-0.7321,-0.8022,-0.7992,-0.7458,-0.7237,-0.7684,-0.7658,-0.756,-0.756,-0.7539,-0.7475,-0.735,-0.7329,-0.7285,-0.7156,-0.7139,-0.7139,-0.7139,-0.7139,-0.7139,-0.7139,-0.7139,-0.7139,-0.7139,-0.7139,-0.7139,-0.7139,-0.7139,-0.7139,-0.7139,-0.7139,-0.7139,-0.7139,-0.7139,-0.7139,-0.7139,-0.7139,-0.7139,-1.1694,-1.162,-1.1316,-1.034,-1.0115,-0.9849,-0.8906,0.0,0.0,0.0,0.0,-0.7114,-0.6237,0.0,0.0,0.0,0.0,0.0,0.0,0.0,0.0,0.0,0.0,0.0,0.0,0.0,0.0,0.0,0.0,-0.0,-0.0,-0.0,-0.0,-0.0,-0.0,-0.0,-0.0,-0.0,-0.0,-0.0,-0.0,-0.0,-0.0,-0.0,-0.0,-0.0,-0.0,0.0,-0.0,-0.0,-0.0,-0.0,-0.0,-0.0,-0.0,-0.0,-0.0,-0.0,-0.0,-0.0,-0.0,-0.0,-0.0,-0.0,-0.0,-0.0,-0.0,-0.0,-0.0,-0.0,-0.0,-0.0,-0.1314,-0.6712,-0.8032,-0.8006,-0.7999,-0.7918,-0.7841,-0.7933,-0.7811,-0.7709,-0.7709,-0.7648,-0.7577,-0.7502,-0.7492,-0.7434,-0.7282,-0.7261,-0.7227,-0.7149,-0.7139,-0.7139,-0.7139,-0.7139,-0.7139,-0.7139,-0.7139,-0.7139,-0.7139,-0.7139,-0.7139,-0.7139,-0.7139,-0.7139,-0.7139,-0.7139,-0.7139,-0.7139,-0.7139,-0.7139,-1.2271,-1.2305,-1.2077,-1.1316,-1.1087,-1.081,-0.9616,-0.9314,0.0,0.0,-0.7943,-0.7723,-0.6966,0.0,0.0,0.0,0.0,0.0,0.0,0.0,0.0,0.0,0.0,0.0,0.0,0.0,0.0,0.0,0.0,0.0,-0.0,-0.0,-0.0,-0.0,-0.0,-0.0,-0.0,-0.0,-0.0,-0.0,-0.0,-0.0,-0.0,-0.0,-0.0,-0.0,-0.0,0.0,0.0,-0.0,-0.0,-0.0,-0.0,-0.0,-0.0,-0.0,-0.0,-0.0,-0.0,-0.0,-0.0,-0.0,-0.0,-0.0,-0.0,-0.0,-0.0,-0.0,-0.0,-0.0,-0.0,-0.0,-0.1212,-0.5984,-0.7604,-0.7985,-0.7969,-0.7952,-0.8038,-0.8038,-0.7943,-0.7862,-0.7862,-0.7767,-0.7682,-0.7651,-0.7645,-0.759,-0.7441,-0.7421,-0.7373,-0.7251,-0.718,-0.7139,-0.7139,-0.7139,-0.7139,-0.7139,-0.7139,-0.7139,-0.7139,-0.7139,-0.7139,-0.7139,-0.7139,-0.7139,-0.7139,-0.7139,-0.7139,-0.7139,-0.7139,-0.7139,-1.2158,-1.2305,-1.2305,-1.2224,-1.215,-1.1847,-1.0692,0.0,0.0,-0.8936,-0.8699,-0.848,-0.7723,-0.7507,0.0,0.0,0.0,0.0,0.0,0.0,0.0,0.0,0.0,0.0,0.0,0.0,0.0,0.0,0.0,0.0,-0.0,-0.0,-0.0,-0.0,-0.0,-0.0,-0.0,-0.0,-0.0,-0.0,-0.0,-0.0,-0.0,-0.0,-0.0,-0.0,-0.0,0.0,0.0,-0.0,-0.0,-0.0,-0.0,-0.0,-0.0,-0.0,-0.0,-0.0,-0.0,-0.0,-0.0,-0.0,-0.0,-0.0,-0.0,-0.0,-0.0,-0.0,-0.0,-0.0,-0.0,-0.0,-0.0706,-0.372,-0.625,-0.7982,-0.8048,-0.8041,-0.8038,-0.8038,-0.8028,-0.8018,-0.8018,-0.8007,-0.795,-0.7814,-0.779,-0.774,-0.7597,-0.758,-0.7573,-0.756,-0.7305,-0.7139,-0.7139,-0.7139,-0.7139,-0.7139,-0.7139,-0.7139,-0.7139,-0.7139,-0.7139,-0.7139,-0.7139,-0.7139,-0.7139,-0.7139,-0.7139,-0.7139,-0.7139,-0.7139,-1.2337,-1.2305,-1.2305,-1.2305,-1.2171,-1.1784,-1.0853,0.0,0.0,-0.9011,-0.8804,-0.8699,-0.8427,-0.7996,-0.7546,0.0,0.0,0.0,0.0,0.0,0.0,0.0,0.0,0.0,0.0,0.0,0.0,0.0,0.0,0.0,-0.0,-0.0,-0.0,-0.0,-0.0,-0.0,-0.0,-0.0,-0.0,-0.0,-0.0,-0.0,-0.0,-0.0,-0.0,-0.0,-0.0,0.0,0.0,-0.0,-0.0,-0.0,-0.0,-0.0,-0.0,-0.0,-0.0,-0.0,-0.0,-0.0,-0.0,-0.0,-0.0,-0.0,-0.0,-0.0,-0.0,-0.0,-0.0,-0.0,-0.0,-0.2424,-0.4645,-0.4121,-0.6039,-0.7972,-0.8045,-0.8038,-0.8038,-0.8038,-0.8038,-0.8038,-0.8038,-0.8038,-0.8018,-0.7957,-0.7946,-0.7896,-0.7746,-0.7726,-0.7695,-0.7607,-0.7489,-0.738,-0.7288,-0.7278,-0.7241,-0.7146,-0.7139,-0.7139,-0.7139,-0.7139,-0.7139,-0.7139,-0.7139,-0.7139,-0.7139,-0.7139,-0.7139,-0.7139,-0.7139,-0.7139,-1.2548,-1.2451,-1.2305,-1.2305,-1.2084,-1.1706,0.0,0.0,-0.9926,-0.9247,-0.8956,-0.8804,-0.8804,-0.8374,-0.7937,0.0,0.0,0.0,0.0,0.0,0.0,0.0,0.0,0.0,0.0,0.0,0.0,0.0,0.0,0.0,-0.0,-0.0,-0.0,-0.0,-0.0,-0.0,-0.0,-0.0,-0.0,-0.0,-0.0,-0.0,-0.0,-0.0,-0.0,-0.0,-0.0,0.0,0.0,-0.0,-0.0,-0.0,-0.0,-0.0,-0.0,-0.0,-0.0,-0.0,-0.0,-0.0,-0.0,-0.0,-0.0,-0.0,-0.0,-0.1116,-0.2325,-0.2323,-0.1211,-0.0202,-0.1008,-0.4545,-0.7503,-0.5636,-0.6645,-0.7965,-0.8045,-0.8038,-0.8038,-0.8038,-0.8038,-0.8038,-0.8038,-0.8038,-0.8038,-0.8038,-0.8038,-0.8001,-0.7892,-0.7879,-0.7841,-0.774,-0.7729,-0.7651,-0.7455,-0.7438,-0.739,-0.7282,-0.7275,-0.7275,-0.7275,-0.7275,-0.7255,-0.721,-0.7207,-0.7187,-0.7139,-0.7139,-0.7139,-0.7139,-0.7139,-0.7139,-1.2799,-1.2727,-1.2305,-1.2305,-1.2084,-1.1839,0.0,0.0,-1.0037,-0.9811,-0.9263,-0.8804,-0.8804,-0.8804,-0.8533,-0.783,-0.777,0.0,0.0,0.0,0.0,0.0,0.0,0.0,0.0,0.0,0.0,0.0,0.0,0.0,-0.0,-0.0,-0.0,-0.0,-0.0,-0.0,-0.0,-0.0,-0.0,-0.0,-0.0,-0.0,-0.0,-0.0,-0.0,-0.0,0.0,0.0,0.0,-0.0,-0.0,-0.0,-0.0,-0.0,-0.0,-0.0,-0.0,-0.0,-0.0,-0.0,-0.0,-0.0,-0.0,-0.0,-0.0,-0.3698,-0.7948,-0.7928,-0.4135,-0.0603,-0.3313,-0.5954,-0.8016,-0.7982,-0.7972,-0.7965,-0.8045,-0.8038,-0.8038,-0.8038,-0.8038,-0.8038,-0.8038,-0.8038,-0.8038,-0.8038,-0.8038,-0.8038,-0.8038,-0.8038,-0.8035,-0.8035,-0.8035,-0.7916,-0.7624,-0.7597,-0.7597,-0.7594,-0.7594,-0.7594,-0.7594,-0.7594,-0.7522,-0.737,-0.737,-0.7292,-0.7139,-0.7139,-0.7139,-0.7139,-0.7139,-0.7139,-1.2862,-1.2818,-1.2876,-1.2591,-1.2274,-1.1989,-1.1741,0.0,-1.0833,-1.0534,-0.9961,-0.9465,-0.9465,-0.9113,-0.8699,-0.848,-0.8361,0.0,0.0,0.0,0.0,0.0,0.0,0.0,0.0,0.0,0.0,0.0,0.0,0.0,-0.2715,-0.2715,-0.1913,-0.0101,-0.3536,-0.5464,-0.5464,-0.1813,-0.0,-0.0,-0.0,-0.0,-0.0,-0.0,-0.0,0.0,0.0,0.0,0.0,-0.0,-0.0,-0.0,-0.0,-0.0,-0.0,-0.0,-0.0,-0.0,-0.0,-0.0,-0.0,-0.0,-0.0,-0.0746,-0.488,-0.7027,-0.7955,-0.8036,-0.6768,-0.5236,-0.4219,-0.5942,-0.7985,-0.7975,-0.7962,-0.8048,-0.8041,-0.8038,-0.8038,-0.8038,-0.8038,-0.8038,-0.8038,-0.8038,-0.8038,-0.8038,-0.8038,-0.8038,-0.8038,-0.8038,-0.8038,-0.8038,-0.8038,-0.796,-0.7763,-0.7743,-0.7702,-0.7604,-0.76,-0.76,-0.76,-0.76,-0.7577,-0.7529,-0.7529,-0.7502,-0.7455,-0.7455,-0.7455,-0.7455,-0.7455,-0.7455,0.0,-1.2944,-1.2915,-1.2637,-1.2362,0.0,0.0,0.0,-1.1259,-1.1192,-1.0415,-0.9814,-0.9814,-0.9263,-0.8804,-0.8804,-0.8743,0.0,0.0,0.0,0.0,0.0,0.0,0.0,0.0,0.0,0.0,0.0,0.0,0.0,-0.5534,-0.5534,-0.4732,-0.3025,-0.5249,-0.698,-0.8009,-0.4734,-0.2513,-0.1507,-0.1509,-0.1511,-0.1511,-0.1511,-0.1511,0.0,0.0,0.0,0.0,-0.0,-0.0,-0.0,-0.0,-0.0,-0.0,-0.0,-0.0,-0.0324,-0.2607,-0.3374,-0.3371,-0.3371,-0.2595,-0.2579,-0.7336,-0.8499,-0.8097,-0.8093,-0.8026,-0.7572,-0.5929,-0.6742,-0.7972,-0.7962,-0.8048,-0.8038,-0.8038,-0.8038,-0.8038,-0.8038,-0.8038,-0.8038,-0.8038,-0.8038,-0.8038,-0.8038,-0.8038,-0.8038,-0.8038,-0.8038,-0.8038,-0.8038,-0.8038,-0.8001,-0.7906,-0.7896,-0.7862,-0.777,-0.7767,-0.7767,-0.7767,-0.7767,-0.774,-0.7682,-0.7678,-0.7651,-0.76,-0.76,-0.76,-0.76,-0.76,-0.76,0.0,0.0,0.0,0.0,0.0,0.0,0.0,0.0,0.0,0.0,0.0,0.0,-0.9895,-0.9278,-0.8811,-0.8838,-0.9078,0.0,0.0,0.0,0.0,0.0,0.0,0.0,0.0,0.0,0.0,0.0,0.0,0.0,-0.7985,-0.7985,-0.7985,-0.7985,-0.5632,-0.5432,-0.7989,-0.7989,-0.6756,-0.4318,-0.4318,-0.4318,-0.4318,-0.4318,-0.4318,0.0,0.0,0.0,0.0,-0.0303,-0.0306,-0.0311,-0.0312,-0.0315,-0.0321,-0.0327,-0.0329,-0.1099,-0.6956,-0.8815,-0.8568,-0.8798,-0.7,-0.5241,-0.7877,-0.8441,-0.8303,-0.8303,-0.8197,-0.7982,-0.8062,-0.7965,-0.7965,-0.8045,-0.8038,-0.8038,-0.8038,-0.8038,-0.8038,-0.8038,-0.8038,-0.8038,-0.8038,-0.8038,-0.8038,-0.8038,-0.8038,-0.8038,-0.8038,-0.8038,-0.8038,-0.8038,-0.8038,-0.8038,-0.8038,-0.8038,-0.8038,-0.8038,-0.8038,-0.8038,-0.8038,-0.8038,-0.7974,-0.7831,-0.7828,-0.7763,-0.7631,-0.7631,-0.7631,-0.7631,-0.7631,-0.7631,-1.3748,0.0,-1.3224,-1.2917,-1.2768,0.0,0.0,0.0,0.0,0.0,0.0,0.0,0.0,0.0,0.0,0.0,0.0,0.0,0.0,0.0,0.0,0.0,0.0,0.0,0.0,0.0,0.0,0.0,0.0,-0.7952,-0.7952,-0.7952,-0.7952,-0.7952,-0.7437,-0.7344,-0.7975,-0.7975,-0.7669,-0.7054,-0.7062,-0.7065,-0.7065,-0.7065,-0.7065,0.0,0.0,-0.4931,-0.3012,-0.3013,-0.3252,-0.3415,-0.3463,-0.3414,-0.3476,-0.3429,-0.345,-0.4007,-0.7644,-0.7421,-0.5938,-0.8211,-0.8406,-0.802,-0.8582,-0.8706,-0.8563,-0.8442,-0.8333,-0.8221,-0.8218,-0.8133,-0.8045,-0.8041,-0.8038,-0.8038,-0.8038,-0.8038,-0.8038,-0.8038,-0.8038,-0.8038,-0.8038,-0.8038,-0.8038,-0.8038,-0.8038,-0.8038,-0.8038,-0.8038,-0.8038,-0.8038,-0.8038,-0.8038,-0.8038,-0.8038,-0.8038,-0.8038,-0.8038,-0.8038,-0.8038,-0.8038,-0.8021,-0.7987,-0.7984,-0.797,-0.7936,-0.7936,-0.7936,-0.7936,-0.7936,-0.7936,-1.3956,-1.3496,-1.3164,-1.2939,-1.2881,-1.2881,0.0,0.0,0.0,0.0,0.0,0.0,0.0,0.0,0.0,0.0,0.0,0.0,0.0,0.0,0.0,0.0,0.0,0.0,0.0,0.0,0.0,0.0,0.0,-0.8038,-0.8038,-0.8038,-0.8038,-0.8038,-0.8038,-0.8045,-0.7959,-0.7959,-0.7959,-0.7959,-0.7965,-0.7965,-0.7965,-0.7965,-0.7965,0.0,0.0,-0.716,-0.5834,-0.5837,-0.6037,-0.6299,-0.6469,-0.6488,-0.6531,-0.6485,-0.5712,-0.4921,-0.7871,-0.7865,-0.6826,-0.8409,-0.8856,-0.8846,-0.8846,-0.8842,-0.8693,-0.8611,-0.8479,-0.8353,-0.8289,-0.8208,-0.813,-0.8058,-0.8038,-0.8038,-0.8038,-0.8038,-0.8038,-0.8038,-0.8038,-0.8038,-0.8038,-0.8038,-0.8038,-0.8038,-0.8038,-0.8038,-0.8038,-0.8038,-0.8038,-0.8038,-0.8038,-0.8038,-0.8038,-0.8038,-0.8038,-0.8038,-0.8038,-0.8038,-0.8038,-0.8038,-0.8038,-0.8038,-0.8038,-0.8038,-0.8038,-0.8038,-0.8038,-0.8038,-0.8038,-0.8038,-1.4226,-1.3463,-1.2978,-1.291,-1.2881,-1.2881,0.0,0.0,0.0,0.0,0.0,0.0,0.0,0.0,0.0,0.0,0.0,0.0,0.0,0.0,0.0,0.0,0.0,0.0,0.0,0.0,0.0,0.0,0.0,-0.8038,-0.8038,-0.8038,-0.8038,-0.8038,-0.8038,-0.8038,-0.8038,-0.8038,-0.8038,-0.8038,-0.8038,-0.8038,-0.8038,-0.8038,-0.8038,-0.8041,0.0,0.0,-0.7969,-0.7979,-0.8163,-0.854,-0.8758,-0.8841,-0.8886,-0.889,-0.729,-0.5479,-0.8081,-0.8873,-0.8853,-0.8947,-0.894,-0.894,-0.894,-0.894,-0.8913,-0.8781,-0.8635,-0.8489,-0.837,-0.8303,-0.8238,-0.8106,-0.8058,-0.8038,-0.8038,-0.8038,-0.8038,-0.8038,-0.8038,-0.8038,-0.8038,-0.8038,-0.8038,-0.8038,-0.8038,-0.8038,-0.8038,-0.8038,-0.8038,-0.8038,-0.8038,-0.8038,-0.8038,-0.8038,-0.8038,-0.8038,-0.8038,-0.8038,-0.8038,-0.8038,-0.8038,-0.8038,-0.8038,-0.8038,-0.8038,-0.8038,-0.8038,-0.8038,-0.8038,-0.8038,-1.4744,-1.4047,-1.3422,-1.2988,-1.2881,-1.2881,0.0,0.0,0.0,0.0,0.0,0.0,0.0,0.0,0.0,0.0,0.0,0.0,0.0,0.0,0.0,0.0,0.0,0.0,0.0,0.0,0.0,0.0,0.0,-0.8038,-0.8038,-0.8038,-0.8038,-0.8038,-0.8038,-0.8038,-0.8038,-0.8038,-0.8038,-0.8038,-0.8038,-0.8038,-0.8038,-0.8038,-0.8038,-0.8038,0.0,-0.8045,-0.8045,-0.8045,-0.8225,-0.8492,-0.8492,-0.8682,-0.8954,-0.886,-0.8624,-0.8266,-0.8722,-0.8947,-0.8944,-0.894,-0.894,-0.894,-0.894,-0.894,-0.8933,-0.891,-0.8794,-0.8669,-0.8648,-0.8459,-0.8265,-0.8241,-0.8136,-0.8038,-0.8038,-0.8038,-0.8038,-0.8038,-0.8038,-0.8038,-0.8038,-0.8038,-0.8038,-0.8038,-0.8038,-0.8038,-0.8038,-0.8038,-0.8038,-0.8038,-0.8038,-0.8038,-0.8038,-0.8038,-0.8038,-0.8038,-0.8038,-0.8038,-0.8038,-0.8038,-0.8038,-0.8038,-0.8038,-0.8038,-0.8038,-0.8038,-0.8038,-0.8038,-0.8038,-0.8038,-1.5365,-1.4697,-1.407,-1.3416,-1.3011,0.0,0.0,0.0,0.0,0.0,0.0,0.0,0.0,0.0,0.0,0.0,0.0,0.0,0.0,0.0,0.0,0.0,0.0,0.0,0.0,0.0,0.0,0.0,0.0,0.0,-0.8038,-0.8038,-0.8038,-0.8038,-0.8038,-0.8038,-0.8038,-0.8038,-0.8038,-0.8038,-0.8038,-0.8038,-0.8038,-0.8038,-0.8038,-0.8038,0.0,-0.8038,-0.8038,-0.8038,-0.8214,-0.8482,-0.8482,-0.8669,-0.894,-0.895,-0.8947,-0.894,-0.894,-0.894,-0.894,-0.894,-0.894,-0.894,-0.894,-0.894,-0.894,-0.894,-0.8889,-0.8815,-0.873,-0.8611,-0.8486,-0.8404,-0.8272,-0.8163,-0.8163,-0.8099,-0.8038,-0.8038,-0.8038,-0.8038,-0.8038,-0.8038,-0.8038,-0.8038,-0.8038,-0.8038,-0.8038,-0.8038,-0.8038,-0.8038,-0.8038,-0.8038,-0.8038,-0.8038,-0.8038,-0.8038,-0.8038,-0.8038,-0.8038,-0.8038,-0.8038,-0.8038,-0.8038,-0.8038,-0.8038,-0.8038,-0.8038,-0.8038,-0.8038,-0.8038,-1.5764,-1.5165,-1.451,-1.3795,0.0,0.0,0.0,0.0,0.0,0.0,0.0,0.0,0.0,0.0,0.0,0.0,0.0,0.0,0.0,0.0,0.0,0.0,0.0,0.0,0.0,0.0,0.0,0.0,0.0,0.0,-0.8038,-0.8038,-0.8038,-0.8038,-0.8038,-0.8038,-0.8038,-0.8038,-0.8038,-0.8038,-0.8038,-0.8038,-0.8038,-0.8038,-0.8038,-0.8038,-0.8038,-0.8038,-0.8038,-0.8038,-0.8194,-0.8435,-0.8469,-0.8669,-0.894,-0.894,-0.894,-0.894,-0.894,-0.894,-0.894,-0.894,-0.894,-0.894,-0.894,-0.894,-0.894,-0.894,-0.894,-0.8913,-0.8794,-0.8737,-0.8679,-0.8564,-0.8425,-0.8319,-0.8319,-0.8201,-0.8092,-0.8092,-0.8065,-0.8038,-0.8038,-0.8038,-0.8038,-0.8038,-0.8038,-0.8038,-0.8038,-0.8038,-0.8038,-0.8038,-0.8038,-0.8038,-0.8038,-0.8038,-0.8038,-0.8038,-0.8038,-0.8038,-0.8038,-0.8038,-0.8038,-0.8038,-0.8038,-0.8038,-0.8038,-0.8038,-0.8038,-0.8038,-0.8038,-0.8038,-1.5764,-1.51,-1.4449,-1.3782,0.0,0.0,0.0,0.0,0.0,0.0,0.0,0.0,0.0,0.0,0.0,0.0,0.0,0.0,0.0,0.0,0.0,0.0,0.0,0.0,0.0,0.0,0.0,0.0,0.0,0.0,-0.8038,-0.8038,-0.8038,-0.8038,-0.8038,-0.8038,-0.8038,-0.8038,-0.8038,-0.8038,-0.8038,-0.8038,-0.8038,-0.8038,-0.8038,-0.8038,-0.8038,-0.8038,-0.8038,-0.8038,-0.8136,-0.8299,-0.8431,-0.8669,-0.894,-0.894,-0.894,-0.894,-0.894,-0.894,-0.894,-0.894,-0.894,-0.894,-0.894,-0.894,-0.894,-0.894,-0.894,-0.8937,-0.8923,-0.8818,-0.8706,-0.8696,-0.8577,-0.8465,-0.8465,-0.8353,-0.8255,-0.8255,-0.8136,-0.8038,-0.8038,-0.8038,-0.8038,-0.8038,-0.8038,-0.8038,-0.8038,-0.8038,-0.8038,-0.8038,-0.8038,-0.8038,-0.8038,-0.8038,-0.8038,-0.8038,-0.8038,-0.8038,-0.8038,-0.8038,-0.8038,-0.8038,-0.8038,-0.8038,-0.8038,-0.8038,-0.8038,-0.8038,-0.8038,-0.8038,-1.5764,-1.5097,-1.4425,-1.3792,0.0,0.0,0.0,0.0,0.0,0.0,0.0,0.0,0.0,0.0,0.0,0.0,0.0,0.0,0.0,0.0,0.0,0.0,0.0,0.0,0.0,0.0,0.0,0.0,0.0,0.0,-0.9217,-0.9217,-0.9217,-0.9217,-0.9998,-0.9604,-0.8041,-0.8825,-0.8821,-0.8038,-0.8038,-0.8038,-0.8038,-0.8038,-0.8038,-0.8038,-0.8038,-0.8038,-0.8038,-0.8038,-0.813,-0.8292,-0.853,-0.8754,-0.894,-0.894,-0.894,-0.894,-0.894,-0.894,-0.894,-0.894,-0.894,-0.894,-0.894,-0.894,-0.894,-0.894,-0.894,-0.894,-0.894,-0.8896,-0.8852,-0.8852,-0.8733,-0.8625,-0.8625,-0.8506,-0.8404,-0.8404,-0.8353,-0.8313,-0.8313,-0.8241,-0.8184,-0.8184,-0.8102,-0.8038,-0.8038,-0.8038,-0.8038,-0.8038,-0.8038,-0.8038,-0.8038,-0.8038,-0.8038,-0.8038,-0.8038,-0.8038,-0.8038,-0.8038,-0.8038,-0.8038,-0.8038,-0.8038,-0.8038,-0.8038,-0.8038,-0.8038,-0.8038,-0.8038,-1.5707,-1.4963,-1.4169,0.0,0.0,0.0,0.0,0.0,0.0,0.0,0.0,0.0,0.0,0.0,0.0,0.0,0.0,0.0,0.0,0.0,0.0,0.0,0.0,0.0,0.0,0.0,0.0,0.0,0.0,0.0,0.0,-0.9805,-0.9805,-0.941,-1.0974,-1.0681,-0.8038,-0.9316,-0.9316,-0.8038,-0.8038,-0.8038,-0.8038,-0.8038,-0.8038,-0.8038,-0.8038,-0.8038,-0.8038,-0.8038,-0.8157,-0.8357,-0.856,-0.876,-0.894,-0.894,-0.894,-0.894,-0.894,-0.894,-0.894,-0.894,-0.894,-0.894,-0.894,-0.894,-0.894,-0.894,-0.894,-0.894,-0.894,-0.894,-0.894,-0.894,-0.8859,-0.8781,-0.8781,-0.8662,-0.8554,-0.8554,-0.8516,-0.8482,-0.8482,-0.8401,-0.8336,-0.8336,-0.8248,-0.818,-0.818,-0.814,-0.8096,-0.8045,-0.8038,-0.8038,-0.8038,-0.8038,-0.8038,-0.8038,-0.8038,-0.8038,-0.8038,-0.8038,-0.8038,-0.8038,-0.8038,-0.8038,-0.8038,-0.8038,-0.8038,-0.8038,-0.8038,-0.8038,-1.5495,-1.4551,0.0,0.0,0.0,0.0,0.0,0.0,0.0,0.0,0.0,0.0,0.0,0.0,0.0,0.0,0.0,0.0,0.0,0.0,0.0,0.0,0.0,0.0,0.0,0.0,0.0,0.0,0.0,0.0,0.0,-0.9316,-0.941,-0.8038,-1.0583,-1.0681,-0.8038,-0.9312,-0.9312,-0.8041,-0.8038,-0.8038,-0.8038,-0.8038,-0.8038,-0.8038,-0.8038,-0.8038,-0.8038,-0.8038,-0.8214,-0.8482,-0.8482,-0.8669,-0.894,-0.894,-0.894,-0.894,-0.894,-0.894,-0.894,-0.894,-0.894,-0.894,-0.894,-0.894,-0.894,-0.894,-0.894,-0.894,-0.894,-0.894,-0.894,-0.894,-0.894,-0.894,-0.894,-0.8818,-0.8713,-0.8713,-0.8591,-0.8486,-0.8486,-0.8486,-0.8482,-0.8482,-0.8482,-0.8482,-0.8482,-0.836,-0.8214,-0.8062,-0.8041,-0.8041,-0.8041,-0.8041,-0.8041,-0.8038,-0.8038,-0.8038,-0.8038,-0.8038,-0.8038,-0.8038,-0.8038,-0.8038,-0.8038,-0.8038,-0.8038,-0.8038,-0.8038,-0.8038,-1.5184,0.0,0.0,0.0,0.0,0.0,0.0,0.0,0.0,0.0,0.0,0.0,0.0,0.0,0.0,0.0,0.0,0.0,0.0,0.0,0.0,0.0,0.0,0.0,0.0,0.0,0.0,0.0,0.0,-0.8821,-1.0681,-1.0293,-1.0194,-1.0779,-1.2425,-1.2032,-0.941,-1.0681,-1.0681,-0.941,-0.8432,-0.8038,-0.8038,-0.8038,-0.8038,-0.8038,-0.8038,-0.8038,-0.8038,-0.8038,-0.8214,-0.8482,-0.8482,-0.8669,-0.894,-0.894,-0.894,-0.894,-0.894,-0.894,-0.894,-0.894,-0.894,-0.894,-0.894,-0.894,-0.894,-0.894,-0.894,-0.894,-0.894,-0.894,-0.894,-0.894,-0.894,-0.894,-0.894,-0.8903,-0.8869,-0.8869,-0.8835,-0.8804,-0.8804,-0.8713,-0.8642,-0.8642,-0.855,-0.8482,-0.8482,-0.8445,-0.8401,-0.8357,-0.835,-0.8309,-0.8211,-0.8201,-0.8153,-0.8045,-0.8038,-0.8038,-0.8038,-0.8038,-0.8038,-0.8038,-0.8038,-0.8038,-0.8038,-0.8038,-0.8038,-0.8038,-0.8038,-0.8038,-1.4863,0.0,0.0,0.0,0.0,0.0,0.0,0.0,0.0,0.0,0.0,0.0,0.0,0.0,0.0,0.0,0.0,0.0,0.0,0.0,0.0,0.0,0.0,0.0,0.0,0.0,0.0,0.0,-0.8038,-0.892,-1.1072,-1.0877,-1.1072,-1.1853,-1.3686,-1.3397,-1.0779,-1.2037,-1.1745,-0.9998,-0.9217,-0.8531,-0.8038,-0.8038,-0.8038,-0.8038,-0.8038,-0.8038,-0.8045,-0.8106,-0.8269,-0.8486,-0.855,-0.8723,-0.894,-0.894,-0.894,-0.894,-0.894,-0.894,-0.894,-0.894,-0.894,-0.894,-0.894,-0.894,-0.894,-0.894,-0.894,-0.894,-0.894,-0.894,-0.894,-0.894,-0.894,-0.894,-0.894,-0.894,-0.894,-0.894,-0.894,-0.894,-0.894,-0.8862,-0.8801,-0.8801,-0.8723,-0.8642,-0.8581,-0.8574,-0.855,-0.8489,-0.8482,-0.8445,-0.8364,-0.8353,-0.8313,-0.8221,-0.816,-0.8133,-0.8133,-0.8072,-0.8038,-0.8038,-0.8038,-0.8038,-0.8038,-0.8038,-0.8038,-0.8038,-0.8038,-0.8038,0.0,0.0,0.0,0.0,0.0,0.0,0.0,0.0,0.0,0.0,0.0,0.0,0.0,0.0,0.0,0.0,0.0,0.0,0.0,0.0,0.0,0.0,0.0,0.0,0.0,0.0,-0.8038,-0.8137,-0.8134,-0.8821,-1.0288,-1.1365,-1.1945,-1.2042,-1.437,-1.4465,-1.2139,-1.3295,-1.2716,-1.0386,-1.0194,-0.9509,-0.8137,-0.8038,-0.8038,-0.8038,-0.8038,-0.8038,-0.8052,-0.8208,-0.8353,-0.8499,-0.8652,-0.8804,-0.894,-0.894,-0.894,-0.894,-0.894,-0.894,-0.894,-0.894,-0.894,-0.894,-0.894,-0.894,-0.894,-0.894,-0.894,-0.894,-0.894,-0.894,-0.894,-0.894,-0.894,-0.894,-0.894,-0.894,-0.894,-0.894,-0.894,-0.894,-0.894,-0.894,-0.894,-0.894,-0.894,-0.8889,-0.875,-0.873,-0.8676,-0.8537,-0.8523,-0.8516,-0.8506,-0.8503,-0.8496,-0.8482,-0.836,-0.8289,-0.8289,-0.813,-0.8038,-0.8038,-0.8038,-0.8038,-0.8038,-0.8038,-0.8038,-0.8038,-0.8038,-0.8038,0.0,0.0,0.0,0.0,0.0,0.0,0.0,0.0,0.0,0.0,0.0,0.0,0.0,0.0,0.0,0.0,0.0,0.0,0.0,0.0,0.0,0.0,0.0,0.0,0.0,-0.8038,-0.8432,-0.9509,-0.9608,-1.0578,-1.2904,-1.2334,-1.2334,-1.3392,-1.3974,-1.407,-1.3494,-1.3776,-1.3584,-1.3006,-1.1945,-1.0779,-0.9509,-0.8432,-0.8038,-0.8038,-0.8038,-0.8038,-0.8052,-0.8208,-0.8353,-0.8499,-0.8652,-0.8804,-0.894,-0.894,-0.894,-0.894,-0.894,-0.894,-0.894,-0.894,-0.894,-0.894,-0.894,-0.894,-0.894,-0.894,-0.894,-0.894,-0.894,-0.894,-0.894,-0.894,-0.894,-0.894,-0.894,-0.894,-0.894,-0.894,-0.894,-0.894,-0.894,-0.894,-0.894,-0.894,-0.894,-0.8927,-0.8893,-0.8889,-0.8876,-0.8845,-0.8842,-0.8791,-0.8672,-0.8662,-0.8611,-0.8489,-0.8455,-0.8435,-0.8435,-0.818,-0.8038,-0.8038,-0.8038,-0.8038,-0.8038,-0.8038,-0.8038,-0.8038,-0.8038,-0.8038,0.0,0.0,0.0,0.0,0.0,0.0,0.0,0.0,0.0,0.0,0.0,0.0,0.0,0.0,0.0,0.0,0.0,0.0,0.0,0.0,0.0,0.0,0.0,0.0,0.0,-0.8038,-0.8528,-0.9903,-0.9998,-1.0872,-1.2813,-1.2909,-1.3199,-1.3878,-1.4459,-1.4848,-1.4848,-1.4848,-1.4459,-1.3872,-1.3199,-1.1843,-0.9998,-0.8627,-0.8038,-0.8038,-0.8038,-0.8038,-0.8058,-0.8279,-0.8414,-0.8506,-0.873,-0.8869,-0.894,-0.894,-0.894,-0.894,-0.894,-0.894,-0.894,-0.894,-0.9372,-0.9915,-0.9915,-1.0457,-1.0891,-1.0131,-1.0457,-1.0672,-0.9265,-0.9372,-0.9809,-0.9047,-0.894,-0.894,-0.894,-0.894,-0.894,-0.894,-0.894,-0.894,-0.894,-0.894,-0.894,-0.894,-0.894,-0.894,-0.894,-0.894,-0.894,-0.894,-0.894,-0.8906,-0.8825,-0.8818,-0.8784,-0.8706,-0.8632,-0.8591,-0.8591,-0.837,-0.8221,-0.815,-0.815,-0.8113,-0.8038,-0.8038,-0.8038,-0.8038,-0.8038,-0.8038,0.0,0.0,0.0,0.0,0.0,0.0,0.0,0.0,0.0,0.0,0.0,0.0,0.0,0.0,0.0,0.0,0.0,0.0,0.0,0.0,0.0,0.0,0.0,0.0,-0.8432,-0.8137,-0.8528,-0.9903,-0.9998,-1.0583,-1.1848,-1.2909,-1.368,-1.3872,-1.4949,-1.554,-1.5832,-1.5832,-1.5242,-1.4262,-1.3974,-1.2813,-1.0578,-0.9019,-0.8237,-0.8038,-0.8038,-0.8038,-0.8062,-0.836,-0.8482,-0.8513,-0.8818,-0.894,-0.894,-0.894,-0.894,-0.894,-0.894,-0.9047,-0.9265,-0.8937,-0.9915,-1.1105,-1.1105,-1.1973,-1.2729,-1.1755,-1.2403,-1.2724,-1.0241,-1.0351,-1.0781,-0.9592,-0.9047,-0.894,-0.894,-0.894,-0.894,-0.894,-0.894,-0.894,-0.894,-0.894,-0.894,-0.894,-0.894,-0.894,-0.894,-0.894,-0.894,-0.894,-0.894,-0.894,-0.894,-0.894,-0.894,-0.894,-0.8818,-0.875,-0.875,-0.8628,-0.8492,-0.835,-0.8319,-0.8231,-0.8079,-0.8079,-0.8065,-0.8038,-0.8038,-0.8038,0.0,0.0,0.0,0.0,0.0,0.0,0.0,0.0,0.0,0.0,0.0,0.0,0.0,0.0,0.0,0.0,0.0,0.0,0.0,0.0,0.0,0.0,0.0,-0.9899,-0.9702,-0.8726,-0.8528,-0.9903,-0.9998,-1.0583,-1.1848,-1.2042,-1.2716,-1.3872,-1.407,-1.4657,-1.5825,-1.5832,-1.573,-1.5534,-1.4459,-1.368,-1.3295,-1.0872,-0.9118,-0.8038,-0.8038,-0.8038,-0.8062,-0.836,-0.8482,-0.8513,-0.8818,-0.894,-0.894,-0.894,-0.894,-0.894,-0.894,-0.9699,-1.0566,-0.9265,-0.9915,-1.1105,-1.1105,-1.1214,-1.1647,-1.2724,-1.3156,-1.3156,-1.2832,-1.1864,-1.0996,-1.0891,-0.9809,-0.894,-0.894,-0.894,-0.894,-0.894,-0.894,-0.894,-0.894,-0.894,-0.894,-0.894,-0.894,-0.894,-0.894,-0.894,-0.894,-0.894,-0.894,-0.894,-0.894,-0.894,-0.894,-0.894,-0.892,-0.891,-0.891,-0.8889,-0.8808,-0.8655,-0.852,-0.8384,-0.8241,-0.8241,-0.817,-0.8038,-0.8038,-0.8038,0.0,0.0,0.0,0.0,0.0,0.0,0.0,0.0,0.0,0.0,0.0,0.0,0.0,0.0,0.0,0.0,0.0,0.0,0.0,0.0,0.0,0.0,0.0,-1.1648,-1.0096,-0.9509,-0.941,-0.9998,-0.9998,-1.0194,-1.0779,-1.1556,-1.1848,-1.1745,-1.2425,-1.3011,-1.3596,-1.4364,-1.4752,-1.4752,-1.4854,-1.4172,-1.2813,-1.2328,-1.1063,-0.9118,-0.8333,-0.8038,-0.8062,-0.836,-0.8482,-0.8513,-0.8818,-0.894,-0.894,-0.894,-0.894,-0.894,-0.894,-0.9372,-0.9809,-0.9154,-0.9915,-1.1214,-1.2077,-1.2832,-1.3691,-1.4341,-1.5097,-1.531,-1.3696,-1.3372,-1.3048,-1.1428,-1.0566,-0.9915,-0.9047,-0.894,-0.894,-0.894,-0.894,-0.894,-0.894,-0.894,-0.894,-0.894,-0.894,-0.894,-0.894,-0.894,-0.894,-0.894,-0.894,-0.894,-0.894,-0.894,-0.894,-0.894,-0.894,-0.894,-0.894,-0.894,-0.8906,-0.8842,-0.8686,-0.8537,-0.8387,-0.8387,-0.8353,-0.8286,-0.8286,-0.8245,0.0,0.0,0.0,0.0,0.0,0.0,0.0,0.0,0.0,0.0,0.0,0.0,0.0,0.0,0.0,0.0,0.0,0.0,0.0,0.0,0.0,0.0,0.0,-1.303,-1.1156,-1.0681,-1.0485,-1.0485,-1.0194,-0.9998,-0.9998,-1.0583,-1.0583,-0.9998,-1.0877,-1.156,-1.1945,-1.2909,-1.3584,-1.3878,-1.4561,-1.398,-1.2431,-1.3102,-1.2328,-1.0386,-0.9118,-0.8528,-0.8556,-0.846,-0.8482,-0.8513,-0.8818,-0.894,-0.894,-0.894,-0.894,-0.894,-0.894,-0.9154,-0.9372,-0.9047,-0.9915,-1.1428,-1.2832,-1.4019,-1.499,-1.5743,-1.6499,-1.6611,-1.4883,-1.4663,-1.4449,-1.2615,-1.1969,-1.1105,-0.9265,-0.894,-0.894,-0.894,-0.894,-0.894,-0.894,-0.894,-0.894,-0.894,-0.894,-0.894,-0.894,-0.894,-0.894,-0.894,-0.894,-0.894,-0.894,-0.894,-0.894,-0.894,-0.894,-0.894,-0.894,-0.894,-0.894,-0.894,-0.8825,-0.8693,-0.854,-0.854,-0.852,-0.8482,-0.8482,-0.8425,0.0,0.0,0.0,0.0,0.0,0.0,0.0,0.0,0.0,0.0,0.0,0.0,0.0,0.0,0.0,0.0,0.0,0.0,0.0,0.0,0.0,0.0,-1.4179,-1.3508,-1.3657,-1.2522,-1.1755,-1.1755,-1.0681,-0.9998,-0.9998,-0.8821,-0.8726,-0.9998,-1.0096,-1.0681,-1.1848,-1.1945,-1.2624,-1.3872,-1.2721,-1.2716,-1.3776,-1.2522,-1.1945,-1.175,-1.0485,-0.9903,-0.983,-0.887,-0.8482,-0.8513,-0.8818,-0.894,-0.894,-0.894,-0.894,-0.894,-0.894,-0.9805,-1.0781,-0.9375,-0.9915,-1.1428,-1.2832,-1.3372,-1.4019,-1.6717,-1.6499,-1.5849,-1.7041,-1.5417,-1.3696,-1.4877,-1.4126,-1.2403,-0.9482,-0.894,-0.894,-0.894,-0.894,-0.894,-0.894,-0.894,-0.894,-0.894,-0.894,-0.894,-0.894,-0.894,-0.894,-0.894,-0.894,-0.894,-0.894,-0.894,-0.894,-0.894,-0.894,-0.894,-0.894,-0.894,-0.894,-0.894,-0.893,-0.8852,-0.8699,-0.8699,-0.8625,-0.8482,-0.8482,-0.8479,0.0,0.0,0.0,0.0,0.0,0.0,0.0,0.0,0.0,0.0,0.0,0.0,0.0,0.0,0.0,0.0,0.0,0.0,0.0,0.0,0.0,0.0,-1.4741,-1.4191,-1.3602,-1.3153,-1.2554,-1.1935,-1.1458,-1.1268,-1.1268,-0.9998,-0.9509,-0.9998,-0.9118,-0.9312,-1.0681,-1.0681,-1.0872,-1.1356,-1.175,-1.175,-1.1453,-1.175,-1.1945,-1.1848,-1.0583,-1.0485,-1.1105,-1.0088,-0.9719,-0.965,-0.9142,-0.894,-0.894,-0.894,-0.894,-0.894,-0.894,-0.9265,-0.9588,-0.9047,-0.9265,-0.9915,-1.1433,-1.1864,-1.2295,-1.4234,-1.4449,-1.4341,-1.5849,-1.5417,-1.477,-1.531,-1.2832,-1.0457,-1.0351,-0.9592,-0.894,-0.894,-0.894,-0.894,-0.894,-0.894,-0.894,-0.894,-0.894,-0.894,-0.894,-0.894,-0.894,-0.894,-0.894,-0.894,-0.894,-0.894,-0.894,-0.894,-0.894,-0.894,-0.894,-0.894,-0.894,-0.894,-0.894,-0.8913,-0.8855,-0.8855,-0.8828,-0.8774,-0.8774,-0.8723,0.0,0.0,0.0,0.0,0.0,0.0,0.0,0.0,0.0,0.0,0.0,0.0,0.0,0.0,0.0,0.0,0.0,0.0,0.0,0.0,0.0,0.0,-1.4816,-1.4558,-1.3995,-1.3927,-1.3665,-1.3166,-1.2699,0.0,-1.2619,-1.1361,-1.0681,-1.0681,-0.9312,-0.9118,-0.9998,-0.9509,-0.9509,-0.9998,-1.0386,-1.0386,-0.9998,-1.0877,-1.1268,-1.1263,-1.0779,-1.1072,-1.1785,-1.0395,-1.0339,-1.0993,-0.9465,-0.9154,-0.9588,-0.9047,-0.894,-0.894,-0.894,-0.894,-0.894,-0.894,-0.894,-0.9154,-1.0672,-1.1105,-1.1433,-1.2832,-1.2945,-1.294,-1.4341,-1.4663,-1.4663,-1.4663,-1.2077,-0.9915,-1.0891,-0.9915,-0.894,-0.894,-0.894,-0.894,-0.894,-0.894,-0.894,-0.894,-0.894,-0.894,-0.894,-0.894,-0.894,-0.894,-0.894,-0.894,-0.894,-0.894,-0.894,-0.894,-0.894,-0.894,-0.894,-0.894,-0.894,-0.894,-0.894,-0.894,-0.894,-0.894,-0.894,-0.894,-0.894,-0.8886,0.0,0.0,0.0,0.0,0.0,0.0,0.0,0.0,0.0,0.0,0.0,0.0,0.0,0.0,0.0,0.0,0.0,0.0,0.0,0.0,0.0,0.0,-1.4502,-1.4623,-1.4923,-1.495,-1.507,-1.5357,-1.4149,-1.3596,-1.3951,-1.2716,-1.1945,-1.1848,-1.0681,-0.9998,-0.9899,-0.8627,-0.8627,-0.9899,-0.8627,-0.8726,-0.9899,-0.9899,-0.9899,-0.9998,-1.1263,-1.1848,-1.1688,-0.948,-1.0132,-1.2329,-0.9892,-0.9805,-1.0891,-0.9592,-0.9047,-0.8937,-0.8937,-0.8937,-0.894,-0.894,-0.894,-0.9154,-1.0566,-1.1,-1.1324,-1.2729,-1.2186,-1.1324,-1.2832,-1.3264,-1.3264,-1.3264,-1.2186,-1.0996,-1.1105,-0.9915,-0.894,-0.894,-0.894,-0.894,-0.894,-0.894,-0.894,-0.894,-0.894,-0.894,-0.894,-0.894,-0.894,-0.894,-0.894,-0.894,-0.894,-0.894,-0.894,-0.894,-0.894,-0.894,-0.894,-0.894,-0.894,-0.894,-0.894,-0.894,-0.894,-0.894,-0.894,-0.894,-0.894,-0.8954,-1.3862,0.0,0.0,0.0,0.0,0.0,0.0,0.0,0.0,0.0,0.0,0.0,0.0,0.0,0.0,0.0,0.0,0.0,0.0,0.0,0.0,0.0,-1.4208,-1.4322,-1.4616,-1.4643,-1.477,0.0,-1.4989,-1.4862,-1.4939,-1.3975,-1.2522,-1.0583,-1.0194,-0.9509,-0.8528,-0.8137,-0.8237,-0.8528,-0.8137,-0.8237,-0.8528,-0.8528,-0.8528,-0.8531,-0.892,-0.9608,-1.0516,-1.0088,-1.0339,-1.0993,-1.0638,-1.0781,-1.1214,-1.1864,-1.1433,-1.0457,-1.0457,-0.9809,-0.894,-0.894,-0.894,-0.8937,-0.9372,-0.9482,-0.9588,-1.0025,-0.9809,-0.9805,-1.1324,-1.1755,-1.1969,-1.3048,-1.1324,-0.9805,-1.0891,-0.9915,-0.894,-0.894,-0.894,-0.894,-0.894,-0.894,-0.894,-0.894,-0.894,-0.894,-0.894,-0.894,-0.894,-0.894,-0.894,-0.894,-0.894,-0.894,-0.894,-0.894,-0.894,-0.894,-0.894,-0.894,-0.894,-0.894,-0.894,-0.894,-0.894,-0.894,-0.894,-0.894,-0.8846,-0.8866,0.0,0.0,0.0,0.0,0.0,0.0,-1.2053,-1.1531,-1.0888,0.0,0.0,0.0,0.0,0.0,0.0,0.0,0.0,0.0,0.0,0.0,0.0,0.0,-1.4088,-1.4155,-1.4322,-1.4342,-1.4462,-1.4756,-1.4937,-1.5137,-1.5384,-1.4884,-1.3868,-1.2425,-1.194,-1.097,-0.9604,-0.9118,-0.8528,-0.8038,-0.8038,-0.8038,-0.8038,-0.8038,-0.8038,-0.8038,-0.8038,-0.8432,-0.9137,-0.9407,-1.0273,-1.12,-1.0534,-1.0891,-1.2077,-1.2295,-1.1864,-1.1105,-1.1105,-1.0131,-0.894,-0.894,-0.894,-0.894,-0.894,-0.894,-0.894,-0.894,-0.894,-0.9047,-0.9915,-1.0131,-1.0347,-1.1214,-1.0131,-0.9158,-1.0025,-0.9482,-0.894,-0.894,-0.894,-0.894,-0.894,-0.894,-0.894,-0.894,-0.894,-0.894,-0.894,-0.894,-0.894,-0.894,-0.894,-0.894,-0.894,-0.894,-0.894,-0.894,-0.894,-0.894,-0.894,-0.894,-0.894,-0.894,-0.894,-0.894,-0.894,-0.894,-0.8944,-0.8954,-0.8856,-0.8876,0.0,0.0,0.0,0.0,0.0,0.0,-1.218,-1.0733,-0.9415,-1.0343,0.0,0.0,0.0,0.0,0.0,0.0,0.0,0.0,0.0,0.0,0.0,0.0,0.0,-1.4088,-1.4088,-1.4088,-1.4195,-1.4449,-1.4502,-1.4763,-1.5317,-1.5378,-1.5418,-1.5576,-1.4447,-1.3199,-1.1653,-1.0583,-0.9316,-0.8038,-0.8038,-0.8038,-0.8038,-0.8038,-0.8038,-0.8038,-0.8038,-0.8038,-0.8052,-0.8208,-0.9776,-1.1916,-0.9869,-1.087,-1.3156,-1.1969,-1.1433,-1.1324,-1.1324,-1.0241,-0.894,-0.894,-0.894,-0.894,-0.894,-0.894,-0.894,-0.894,-0.894,-0.894,-0.894,-0.894,-0.894,-0.894,-0.894,-0.894,-0.894,-0.894,-0.894,-0.894,-0.894,-0.894,-0.894,-0.894,-0.894,-0.894,-0.894,-0.894,-0.894,-0.894,-0.894,-0.894,-0.894,-0.894,-0.894,-0.894,-0.894,-0.894,-0.894,-0.894,-0.894,-0.894,-0.894,-0.894,-0.894,-0.894,-0.894,-0.894,-0.8954,-0.8866,-0.8866,-0.8542,0.0,0.0,0.0,0.0,0.0,0.0,-1.1229,-1.0758,-1.005,0.0,0.0,0.0,0.0,0.0,0.0,0.0,0.0,0.0,0.0,0.0,0.0,0.0,0.0,-1.4088,-1.4088,-1.4088,-1.4115,-1.4168,-1.4389,-1.4676,-1.503,-1.5271,-1.4942,-1.3942,-1.3862,-1.2711,-1.0391,-1.0096,-0.9316,-0.8038,-0.8038,-0.8038,-0.8038,-0.8038,-0.8038,-0.8038,-0.8038,-0.8038,-0.8052,-0.8208,-0.866,-0.9433,-1.0158,-1.1612,-1.3372,-1.4234,-1.3804,-1.2837,-1.2837,-1.1105,-0.894,-0.894,-0.894,-0.894,-0.894,-0.894,-0.894,-0.894,-0.894,-0.894,-0.894,-0.894,-0.894,-0.894,-0.894,-0.894,-0.894,-0.894,-0.894,-0.894,-0.894,-0.894,-0.894,-0.894,-0.894,-0.894,-0.894,-0.894,-0.894,-0.894,-0.894,-0.894,-0.894,-0.894,-0.894,-0.894,-0.894,-0.894,-0.894,-0.894,-0.894,-0.894,-0.894,-0.894,-0.8846,-0.8846,-0.894,-0.8846,-0.8866,-0.889,-0.89,-0.6289,0.0,0.0,0.0,-1.2452,0.0,0.0,0.0,-1.0365,-0.9699,-0.8804,-0.8433,-0.8334,0.0,0.0,0.0,0.0,0.0,0.0,0.0,0.0,0.0,0.0,0.0,-1.3265,-1.3778,-1.4001,-1.4088,-1.4088,-1.4222,-1.4429,-1.473,-1.5017,-1.4675,-1.3485,-1.3737,-1.2614,-0.9998,-0.9998,-0.9316,-0.8038,-0.8038,-0.8038,-0.8038,-0.8038,-0.8038,-0.8038,-0.8038,-0.8038,-0.8045,-0.8123,-0.8286,-0.8601,-0.9492,-1.0833,-1.2295,-1.3048,-1.2832,-1.2186,-1.2186,-1.0781,-0.894,-0.894,-0.894,-0.894,-0.894,-0.894,-0.894,-0.894,-0.894,-0.894,-0.894,-0.894,-0.894,-0.894,-0.894,-0.894,-0.894,-0.894,-0.894,-0.894,-0.894,-0.894,-0.894,-0.894,-0.894,-0.894,-0.894,-0.894,-0.894,-0.894,-0.894,-0.894,-0.894,-0.894,-0.894,-0.894,-0.894,-0.894,-0.894,-0.894,-0.894,-0.894,-0.894,-0.894,-0.895,-0.8846,-0.8846,-0.8866,-0.8196,-0.6728,-0.8217,-0.5727,0.0,0.0,0.0,0.0,0.0,-1.1268,0.0,0.0,0.0,-0.8985,-0.8324,0.0,0.0,0.0,0.0,0.0,0.0,0.0,0.0,0.0,0.0,0.0,-1.1632,-1.2331,-1.3154,-1.3567,-1.3841,-1.4068,-1.3928,-1.4008,-1.4416,-1.4716,-1.445,-1.3403,-1.3667,-1.2571,-0.9998,-0.9998,-0.9316,-0.8038,-0.8038,-0.8038,-0.8038,-0.8038,-0.8038,-0.8038,-0.8038,-0.8038,-0.8038,-0.8038,-0.8197,-0.8455,-0.8608,-0.963,-1.1105,-1.1105,-1.1105,-1.1105,-1.1105,-1.0131,-0.894,-0.894,-0.894,-0.894,-0.894,-0.894,-0.894,-0.894,-0.894,-0.894,-0.894,-0.894,-0.894,-0.894,-0.894,-0.894,-0.894,-0.894,-0.894,-0.894,-0.894,-0.894,-0.894,-0.894,-0.894,-0.894,-0.894,-0.894,-0.894,-0.894,-0.894,-0.894,-0.894,-0.894,-0.894,-0.894,-0.894,-0.894,-0.894,-0.894,-0.894,-0.894,-0.894,-0.894,-0.8947,-0.885,-0.8863,-0.889,-0.7644,-0.5373,-0.6626,-0.4601,0.0,0.0,0.0,0.0,-1.0466,0.0,0.0,0.0,-0.8864,-0.8823,0.0,0.0,0.0,0.0,0.0,0.0,0.0,0.0,0.0,0.0,0.0,-0.8828,-1.0625,-1.1829,-1.2072,-1.2331,-1.2946,-1.4008,-1.3347,-1.326,-1.4088,-1.4416,-1.4065,-1.3053,-1.3304,-1.2305,-0.9998,-0.9998,-0.9316,-0.8038,-0.8038,-0.8038,-0.8038,-0.8038,-0.8038,-0.8038,-0.8038,-0.8038,-0.8038,-0.8038,-0.814,-0.8309,-0.8452,-0.9529,-1.1105,-1.1105,-1.1105,-1.1105,-1.1105,-1.0131,-0.894,-0.894,-0.894,-0.894,-0.894,-0.894,-0.894,-0.894,-0.894,-0.894,-0.894,-0.894,-0.894,-0.894,-0.894,-0.894,-0.894,-0.894,-0.894,-0.894,-0.894,-0.894,-0.894,-0.894,-0.894,-0.894,-0.894,-0.894,-0.894,-0.894,-0.894,-0.894,-0.894,-0.894,-0.894,-0.894,-0.894,-0.894,-0.894,-0.894,-0.894,-0.894,-0.894,-0.894,-0.8866,-0.888,-0.8863,-0.8913,-0.87,-0.8335,-0.3363,-0.0673,0.0,0.0,0.0,0.0,0.0,0.0,-0.9492,0.0,-0.9263,0.0,0.0,0.0,0.0,0.0,0.0,0.0,-0.7505,0.0,0.0,0.0,0.0,0.0,0.0,0.0,-1.0963,-1.2326,-1.2823,-1.1997,-1.2927,-1.3054,-1.2151,-1.2325,-1.1971,-1.08,-1.114,-1.051,-0.8773,-0.8776,-0.8528,-0.8038,-0.8038,-0.8038,-0.8038,-0.8038,-0.8038,-0.8038,-0.8038,-0.8038,-0.8038,-0.8038,-0.813,-0.8286,-0.8428,-0.9033,-0.9675,-0.9771,-0.9809,-0.9809,-0.9809,-0.9372,-0.894,-0.894,-0.894,-0.894,-0.894,-0.894,-0.894,-0.894,-0.894,-0.894,-0.894,-0.894,-0.894,-0.894,-0.894,-0.894,-0.894,-0.894,-0.894,-0.894,-0.894,-0.894,-0.894,-0.894,-0.894,-0.894,-0.894,-0.894,-0.894,-0.894,-0.894,-0.894,-0.894,-0.894,-0.894,-0.894,-0.894,-0.894,-0.894,-0.894,-0.894,-0.894,-0.894,-0.894,-0.886,-0.8075,-0.6376,-0.8109,-0.893,-0.8706,-0.2805,-0.0,-0.9503,0.0,0.0,0.0,0.0,0.0,0.0,0.0,0.0,0.0,0.0,0.0,0.0,0.0,0.0,0.0,0.0,-0.7412,0.0,0.0,0.0,0.0,0.0,0.0,0.0,-1.2308,-1.2586,-1.0772,0.0,-1.2649,-1.0682,-1.085,-1.0346,-0.9152,-0.9469,-0.9096,-0.7811,-0.7963,-0.8038,-0.8038,-0.8038,-0.8038,-0.8038,-0.8038,-0.8038,-0.8038,-0.8038,-0.8038,-0.8038,-0.8038,-0.8106,-0.8225,-0.8411,-0.855,-0.8672,-0.8866,-0.894,-0.894,-0.894,-0.894,-0.894,-0.894,-0.894,-0.894,-0.894,-0.894,-0.894,-0.894,-0.894,-0.894,-0.894,-0.894,-0.894,-0.894,-0.894,-0.894,-0.894,-0.894,-0.894,-0.894,-0.894,-0.894,-0.894,-0.894,-0.894,-0.894,-0.894,-0.894,-0.894,-0.894,-0.894,-0.894,-0.894,-0.894,-0.894,-0.894,-0.894,-0.894,-0.894,-0.894,-0.894,-0.8947,-0.8947,-0.8947,-0.8863,-0.7853,-0.5712,-0.7882,-0.8012,-0.6312,-0.202,-0.0,0.0,0.0,0.0,-0.8568,0.0,0.0,0.0,0.0,-0.8731,0.0,0.0,0.0,0.0,0.0,0.0,0.0,0.0,0.0,0.0,0.0,0.0,0.0,0.0,0.0,0.0,-1.2158,-1.2112,0.0,-1.1822,-1.1611,-1.0646,-1.0616,-1.0105,-0.9148,-0.925,-0.8785,-0.7811,-0.7963,-0.8038,-0.8038,-0.8038,-0.8038,-0.8038,-0.8038,-0.8038,-0.8038,-0.8038,-0.8038,-0.8038,-0.8038,-0.8041,-0.8075,-0.8367,-0.8486,-0.8526,-0.8828,-0.894,-0.894,-0.894,-0.894,-0.894,-0.894,-0.894,-0.894,-0.894,-0.894,-0.894,-0.894,-0.894,-0.894,-0.894,-0.894,-0.894,-0.894,-0.894,-0.894,-0.894,-0.894,-0.894,-0.894,-0.894,-0.894,-0.894,-0.894,-0.894,-0.894,-0.894,-0.894,-0.894,-0.894,-0.894,-0.894,-0.894,-0.894,-0.894,-0.894,-0.894,-0.894,-0.894,-0.894,-0.894,-0.885,-0.886,-0.886,-0.8893,-0.8798,-0.8798,-0.8821,-0.5969,-0.0336,-0.0112,-0.0,0.0,0.0,-0.7927,-0.7731,0.0,0.0,0.0,0.0,0.0,0.0,0.0,0.0,0.0,0.0,0.0,0.0,0.0,0.0,0.0,0.0,0.0,0.0,0.0,0.0,0.0,0.0,0.0,0.0,-1.0073,0.0,-0.8263,-0.821,-0.812,-0.783,-0.7993,-0.7884,-0.7672,-0.7818,-0.794,-0.8038,-0.8038,-0.8038,-0.8038,-0.8038,-0.8038,-0.8038,-0.8038,-0.8038,-0.8038,-0.8038,-0.8038,-0.8058,-0.8262,-0.8397,-0.852,-0.8825,-0.894,-0.894,-0.894,-0.894,-0.894,-0.894,-0.894,-0.894,-0.894,-0.894,-0.894,-0.894,-0.894,-0.894,-0.894,-0.894,-0.894,-0.894,-0.894,-0.894,-0.894,-0.894,-0.894,-0.894,-0.894,-0.894,-0.894,-0.894,-0.894,-0.894,-0.894,-0.894,-0.894,-0.894,-0.894,-0.894,-0.894,-0.894,-0.894,-0.894,-0.894,-0.894,-0.894,-0.894,-0.894,-0.8947,-0.895,-0.895,-0.761,-0.6609,-0.594,-0.403,-0.2016,-0.0,-0.0,-0.0,-0.7273,-0.741,0.0,-0.7273,-0.7375,0.0,-0.6827,0.0,0.0,0.0,0.0,0.0,0.0,0.0,0.0,0.0,0.0,0.0,0.0,-0.9319,0.0,0.0,0.0,0.0,0.0,0.0,0.0,-0.8185,-0.929,-0.9247,0.0,-0.7187,-0.7088,-0.7139,-0.7292,-0.7444,-0.7597,-0.774,-0.7889,-0.8038,-0.8038,-0.8038,-0.8038,-0.8038,-0.8038,-0.8038,-0.8038,-0.8038,-0.8038,-0.8038,-0.8038,-0.8055,-0.8211,-0.8357,-0.8513,-0.8764,-0.8893,-0.894,-0.894,-0.894,-0.894,-0.894,-0.894,-0.894,-0.894,-0.894,-0.896,-0.9066,-0.9022,-0.8964,-0.9069,-0.9018,-0.894,-0.894,-0.894,-0.894,-0.894,-0.894,-0.894,-0.894,-0.894,-0.894,-0.894,-0.894,-0.894,-0.894,-0.894,-0.894,-0.894,-0.894,-0.894,-0.894,-0.894,-0.894,-0.894,-0.894,-0.894,-0.894,-0.894,-0.894,-0.894,-0.8947,-0.895,-0.895,-0.7721,-0.6717,-0.6054,-0.2011,-0.0,-0.0,-0.0,-0.0]},{"header":{"parameterUnit":"m.s-1","parameterCategory":1,"la1":30.6,"la2":29.2853,"lo1":-89.7004,"lo2":-87.6739,"dy":0.0162,"dx":0.0183,"nx":112,"ny":82,"refTime":"2023-05-12T06:00:00:Z","depth":0,"parameterNumber":3,"parameterNumberName":"V-component_of_WINDS"},"data":[0.0,0.0,0.0,0.0,0.0,0.0,0.0,0.0,0.0,0.0,0.0,0.0,0.0,0.0,0.0,0.0,0.0,0.0,0.0,0.0,0.0,0.0,0.0,0.0,0.0,0.0,0.0,0.0,0.0,0.0,0.0,0.0,0.0,0.0,0.0,0.0,0.0,0.0,0.0,0.0,0.0,0.0,0.0,0.0,0.0,0.0,0.0,0.0,0.0,0.0,0.0,0.0,0.0,0.0,0.0,0.0,0.0,0.0,0.0,0.0,0.0,0.0,0.0,0.0,0.0,0.0,0.0,0.0,0.0,0.0,0.0,0.0,0.0,0.0,0.0,0.0,0.0,0.0,0.0,0.0,0.0,0.0,0.0,0.0,0.0,0.0,0.0,0.0,0.0,0.0,-2.6992,-2.6445,-2.8871,-3.0513,-3.0506,-3.0448,-2.9679,-2.8005,0.0,0.0,0.0,0.0,0.0,0.0,0.0,0.0,0.0,0.0,0.0,0.0,0.0,0.0,0.0,0.0,0.0,0.0,0.0,0.0,0.0,0.0,0.0,0.0,0.0,0.0,0.0,0.0,0.0,0.0,0.0,0.0,0.0,0.0,0.0,0.0,0.0,0.0,0.0,0.0,0.0,0.0,0.0,0.0,0.0,0.0,0.0,0.0,0.0,0.0,0.0,0.0,0.0,0.0,0.0,0.0,0.0,0.0,0.0,0.0,0.0,0.0,0.0,0.0,0.0,0.0,0.0,0.0,0.0,0.0,0.0,0.0,0.0,0.0,0.0,0.0,0.0,0.0,0.0,0.0,0.0,0.0,0.0,0.0,0.0,0.0,0.0,0.0,0.0,0.0,0.0,0.0,0.0,0.0,0.0,0.0,0.0,0.0,0.0,0.0,0.0,0.0,0.0,0.0,-2.8574,-2.9805,-3.0314,-3.0552,-3.051,-3.0448,-2.9679,-2.8005,0.0,0.0,0.0,0.0,0.0,0.0,0.0,0.0,0.0,0.0,0.0,0.0,0.0,0.0,0.0,0.0,0.0,0.0,0.0,0.0,0.0,0.0,0.0,0.0,0.0,0.0,0.0,0.0,0.0,0.0,0.0,0.0,0.0,0.0,0.0,0.0,0.0,0.0,0.0,0.0,0.0,0.0,0.0,0.0,0.0,0.0,0.0,0.0,0.0,0.0,0.0,0.0,0.0,0.0,0.0,0.0,0.0,0.0,0.0,0.0,0.0,0.0,0.0,0.0,0.0,0.0,0.0,0.0,0.0,0.0,0.0,0.0,0.0,0.0,0.0,0.0,0.0,0.0,0.0,0.0,0.0,0.0,0.0,0.0,0.0,0.0,0.0,0.0,0.0,0.0,0.0,0.0,0.0,0.0,0.0,0.0,0.0,0.0,0.0,0.0,0.0,0.0,0.0,-2.6934,-2.7891,-3.0527,-3.0714,-3.0633,-3.0598,-3.0544,-2.9783,-2.8071,-2.8038,0.0,0.0,0.0,0.0,0.0,0.0,0.0,0.0,0.0,0.0,0.0,0.0,0.0,0.0,0.0,0.0,0.0,0.0,0.0,0.0,0.0,0.0,0.0,0.0,0.0,0.0,0.0,0.0,0.0,0.0,0.0,0.0,0.0,0.0,0.0,0.0,0.0,0.0,0.0,0.0,0.0,0.0,0.0,0.0,0.0,0.0,0.0,0.0,0.0,0.0,0.0,0.0,0.0,0.0,0.0,0.0,0.0,0.0,0.0,0.0,0.0,0.0,0.0,0.0,0.0,0.0,0.0,0.0,0.0,0.0,0.0,0.0,0.0,0.0,0.0,0.0,0.0,0.0,0.0,0.0,0.0,0.0,0.0,0.0,0.0,0.0,0.0,0.0,0.0,0.0,0.0,0.0,0.0,0.0,0.0,0.0,0.0,0.0,0.0,0.0,0.0,0.0,-2.707,-2.7949,-3.0625,-3.0957,-3.1014,-3.1009,-3.0946,-3.0258,-2.8724,-2.836,0.0,0.0,0.0,0.0,0.0,0.0,0.0,0.0,0.0,0.0,0.0,0.0,0.0,0.0,0.0,0.0,0.0,0.0,0.0,0.0,0.0,0.0,0.0,0.0,0.0,0.0,0.0,0.0,0.0,0.0,0.0,0.0,0.0,0.0,0.0,0.0,0.0,0.0,0.0,0.0,0.0,0.0,0.0,0.0,0.0,0.0,0.0,0.0,0.0,0.0,0.0,0.0,0.0,0.0,0.0,0.0,0.0,0.0,0.0,0.0,0.0,0.0,0.0,0.0,0.0,0.0,0.0,0.0,0.0,0.0,0.0,0.0,0.0,0.0,0.0,0.0,0.0,0.0,0.0,0.0,0.0,0.0,0.0,0.0,0.0,0.0,0.0,0.0,0.0,0.0,0.0,0.0,0.0,0.0,0.0,0.0,0.0,0.0,0.0,0.0,0.0,0.0,-2.957,-3.0625,-3.0879,-3.1504,-3.1914,-3.1912,-3.1854,-3.143,-3.0568,-2.9052,0.0,0.0,0.0,0.0,0.0,0.0,0.0,0.0,0.0,0.0,0.0,0.0,0.0,0.0,0.0,0.0,0.0,0.0,0.0,0.0,0.0,0.0,0.0,0.0,0.0,0.0,0.0,0.0,0.0,0.0,0.0,0.0,0.0,0.0,0.0,0.0,0.0,0.0,0.0,0.0,0.0,0.0,0.0,0.0,0.0,0.0,0.0,0.0,0.0,0.0,0.0,0.0,0.0,0.0,0.0,0.0,0.0,0.0,0.0,0.0,0.0,0.0,0.0,0.0,0.0,0.0,0.0,0.0,0.0,0.0,0.0,0.0,0.0,0.0,0.0,0.0,0.0,0.0,0.0,0.0,0.0,0.0,0.0,0.0,0.0,0.0,0.0,0.0,0.0,0.0,0.0,0.0,0.0,0.0,0.0,0.0,0.0,0.0,0.0,0.0,0.0,0.0,-3.0156,-3.1309,0.0,-3.2715,-3.2871,-3.2871,-3.2845,-3.2232,-3.0845,0.0,0.0,0.0,0.0,0.0,0.0,0.0,0.0,0.0,0.0,0.0,0.0,0.0,0.0,0.0,0.0,0.0,0.0,0.0,0.0,0.0,0.0,0.0,0.0,0.0,0.0,0.0,0.0,0.0,0.0,0.0,0.0,0.0,0.0,0.0,0.0,0.0,0.0,0.0,0.0,0.0,0.0,0.0,0.0,0.0,0.0,0.0,0.0,0.0,0.0,0.0,0.0,0.0,0.0,0.0,0.0,0.0,0.0,0.0,0.0,0.0,0.0,0.0,0.0,0.0,0.0,0.0,0.0,0.0,0.0,0.0,0.0,0.0,0.0,0.0,0.0,0.0,0.0,0.0,0.0,0.0,0.0,0.0,0.0,0.0,0.0,0.0,0.0,0.0,0.0,0.0,0.0,0.0,0.0,0.0,0.0,0.0,0.0,0.0,0.0,0.0,0.0,-2.9824,-3.0996,-3.2129,0.0,-3.3652,-3.3809,-3.3809,-3.3809,-3.3199,-3.173,0.0,0.0,0.0,0.0,0.0,0.0,0.0,0.0,0.0,0.0,0.0,0.0,0.0,0.0,0.0,0.0,0.0,0.0,0.0,0.0,0.0,0.0,0.0,0.0,0.0,0.0,0.0,0.0,0.0,0.0,0.0,0.0,0.0,0.0,0.0,0.0,0.0,0.0,0.0,0.0,0.0,0.0,0.0,0.0,0.0,0.0,0.0,0.0,0.0,0.0,0.0,0.0,0.0,0.0,0.0,0.0,0.0,0.0,0.0,0.0,0.0,0.0,0.0,0.0,0.0,0.0,0.0,0.0,0.0,0.0,0.0,0.0,0.0,0.0,0.0,0.0,0.0,0.0,0.0,0.0,0.0,0.0,0.0,0.0,0.0,0.0,0.0,0.0,0.0,0.0,0.0,0.0,0.0,0.0,0.0,0.0,0.0,0.0,0.0,0.0,0.0,0.0,-3.0781,-3.2363,-3.3418,-3.3437,-3.4199,-3.4707,-3.4707,-3.4707,-3.4336,0.0,0.0,0.0,0.0,0.0,0.0,0.0,0.0,0.0,0.0,0.0,0.0,0.0,0.0,0.0,0.0,0.0,0.0,0.0,0.0,0.0,0.0,0.0,0.0,0.0,0.0,0.0,0.0,0.0,0.0,0.0,0.0,0.0,0.0,0.0,0.0,0.0,0.0,0.0,0.0,0.0,0.0,0.0,0.0,0.0,0.0,0.0,0.0,0.0,0.0,0.0,0.0,0.0,0.0,0.0,0.0,0.0,0.0,0.0,0.0,0.0,0.0,0.0,0.0,0.0,0.0,0.0,0.0,0.0,0.0,0.0,0.0,0.0,0.0,0.0,0.0,0.0,0.0,0.0,0.0,0.0,0.0,0.0,0.0,0.0,0.0,0.0,0.0,0.0,0.0,0.0,0.0,0.0,0.0,0.0,0.0,0.0,0.0,0.0,0.0,0.0,0.0,0.0,-3.0879,-3.2891,-3.4551,-3.5176,-3.5469,-3.5625,-3.5625,-3.5625,-3.498,-3.3496,0.0,0.0,0.0,0.0,0.0,0.0,0.0,0.0,0.0,0.0,0.0,0.0,0.0,0.0,0.0,0.0,0.0,0.0,0.0,0.0,0.0,0.0,0.0,0.0,0.0,0.0,0.0,0.0,0.0,0.0,0.0,0.0,0.0,0.0,0.0,0.0,0.0,0.0,0.0,0.0,0.0,0.0,0.0,0.0,0.0,0.0,0.0,0.0,0.0,0.0,0.0,0.0,0.0,0.0,0.0,0.0,0.0,0.0,0.0,0.0,0.0,0.0,0.0,0.0,0.0,0.0,0.0,0.0,0.0,0.0,0.0,0.0,0.0,0.0,0.0,0.0,0.0,0.0,0.0,0.0,0.0,0.0,0.0,0.0,0.0,0.0,0.0,0.0,0.0,0.0,0.0,0.0,0.0,0.0,0.0,0.0,0.0,0.0,0.0,0.0,0.0,0.0,-3.1426,-3.3633,-3.543,-3.5937,-3.5996,-3.5996,-3.5996,-3.5996,-3.5391,-3.4004,0.0,0.0,0.0,0.0,0.0,0.0,0.0,0.0,0.0,0.0,0.0,0.0,0.0,0.0,0.0,0.0,0.0,0.0,0.0,0.0,0.0,0.0,0.0,0.0,0.0,0.0,0.0,0.0,0.0,0.0,0.0,0.0,0.0,0.0,0.0,0.0,0.0,0.0,0.0,0.0,0.0,0.0,0.0,0.0,0.0,0.0,0.0,0.0,0.0,0.0,0.0,0.0,0.0,0.0,0.0,0.0,0.0,0.0,0.0,0.0,0.0,0.0,0.0,0.0,0.0,0.0,0.0,0.0,0.0,0.0,0.0,0.0,0.0,0.0,0.0,0.0,0.0,0.0,0.0,0.0,0.0,0.0,0.0,0.0,0.0,0.0,0.0,0.0,0.0,0.0,0.0,0.0,0.0,0.0,0.0,0.0,0.0,0.0,0.0,0.0,0.0,0.0,-3.2109,-3.4375,-3.5996,-3.5996,-3.5996,-3.5996,-3.5996,-3.5996,-3.5625,-3.4766,0.0,0.0,0.0,0.0,0.0,0.0,0.0,0.0,0.0,0.0,0.0,0.0,0.0,0.0,0.0,0.0,0.0,0.0,0.0,0.0,0.0,0.0,0.0,0.0,0.0,0.0,0.0,0.0,0.0,0.0,0.0,0.0,0.0,0.0,0.0,0.0,0.0,0.0,0.0,0.0,0.0,0.0,0.0,0.0,0.0,0.0,0.0,0.0,0.0,0.0,0.0,0.0,0.0,0.0,0.0,0.0,0.0,0.0,0.0,0.0,-2.6553,0.0,0.0,0.0,0.0,0.0,0.0,0.0,0.0,0.0,0.0,0.0,0.0,0.0,0.0,0.0,0.0,0.0,0.0,0.0,0.0,0.0,0.0,0.0,0.0,0.0,0.0,0.0,0.0,0.0,0.0,0.0,0.0,0.0,0.0,0.0,0.0,0.0,0.0,0.0,0.0,0.0,-3.1348,-3.4004,-3.5996,-3.5996,-3.5996,-3.5996,-3.5996,-3.5996,-3.5625,-3.4766,-3.4473,0.0,0.0,0.0,0.0,0.0,0.0,0.0,0.0,0.0,0.0,0.0,0.0,0.0,0.0,0.0,0.0,0.0,0.0,0.0,0.0,0.0,0.0,0.0,0.0,0.0,0.0,0.0,0.0,0.0,0.0,0.0,0.0,0.0,0.0,0.0,0.0,0.0,0.0,0.0,0.0,0.0,0.0,0.0,0.0,0.0,0.0,0.0,0.0,0.0,0.0,0.0,0.0,0.0,0.0,0.0,0.0,0.0,0.0,0.0,0.0,-2.7355,0.0,0.0,0.0,0.0,0.0,0.0,0.0,0.0,0.0,0.0,0.0,0.0,0.0,0.0,0.0,0.0,0.0,0.0,0.0,0.0,0.0,0.0,0.0,0.0,0.0,0.0,0.0,0.0,0.0,0.0,0.0,0.0,0.0,0.0,0.0,0.0,0.0,0.0,0.0,0.0,-3.1074,-3.3887,-3.5996,-3.5996,-3.5996,-3.5996,-3.5996,-3.5996,-3.5801,-3.5351,-3.4902,0.0,0.0,0.0,0.0,0.0,0.0,0.0,0.0,0.0,0.0,0.0,0.0,0.0,0.0,0.0,0.0,0.0,0.0,0.0,0.0,0.0,0.0,0.0,0.0,0.0,0.0,0.0,0.0,0.0,0.0,0.0,0.0,0.0,0.0,0.0,0.0,0.0,0.0,0.0,0.0,0.0,0.0,0.0,0.0,0.0,0.0,0.0,0.0,0.0,0.0,0.0,0.0,0.0,-2.9201,-2.9079,-2.8613,-2.9269,-3.0128,-3.1115,-3.0879,-3.0956,-3.103,-2.8886,0.0,0.0,0.0,0.0,0.0,0.0,0.0,0.0,0.0,0.0,0.0,0.0,0.0,0.0,0.0,0.0,0.0,0.0,0.0,0.0,0.0,0.0,0.0,0.0,-3.3398,-3.4355,0.0,0.0,0.0,0.0,0.0,0.0,0.0,0.0,0.0,0.0,0.0,0.0,-3.1406,-3.4062,-3.5996,-3.5996,-3.5996,-3.5996,-3.5996,-3.5996,-3.5996,-3.5996,-3.5312,-3.4785,0.0,0.0,0.0,0.0,0.0,0.0,0.0,0.0,0.0,0.0,0.0,0.0,0.0,0.0,0.0,0.0,0.0,0.0,0.0,0.0,0.0,0.0,0.0,0.0,0.0,0.0,0.0,0.0,0.0,0.0,0.0,0.0,-2.6707,-2.6543,0.0,0.0,0.0,0.0,0.0,0.0,0.0,0.0,0.0,0.0,0.0,0.0,0.0,-2.8509,-2.8749,-2.958,-2.9989,-3.0008,-3.159,-3.2679,-3.3313,-3.3409,-3.3947,-3.4807,-3.476,0.0,-3.0366,-3.0725,0.0,0.0,0.0,0.0,0.0,0.0,0.0,0.0,0.0,0.0,0.0,0.0,0.0,0.0,0.0,0.0,0.0,0.0,0.0,0.0,0.0,0.0,-3.5332,-3.5332,-3.5586,-3.5742,0.0,-3.4141,-3.3008,-3.2773,-3.2812,0.0,0.0,0.0,0.0,0.0,0.0,0.0,-3.3008,-3.4785,-3.5996,-3.5996,-3.5996,-3.5996,-3.5996,-3.5996,-3.5996,-3.5996,-3.5898,-3.5156,-3.3633,-3.4099,0.0,0.0,0.0,0.0,0.0,0.0,0.0,0.0,0.0,0.0,0.0,0.0,0.0,0.0,0.0,0.0,0.0,0.0,0.0,0.0,0.0,0.0,0.0,0.0,0.0,0.0,0.0,0.0,0.0,-2.5879,-2.6294,-2.6024,-2.6001,-2.5299,0.0,0.0,0.0,0.0,0.0,0.0,0.0,0.0,0.0,-3.1321,-3.1032,-3.1363,-3.2465,-3.2938,-3.319,-3.319,-3.398,-3.4564,-3.493,-3.493,-3.5141,-3.5493,-3.5493,-3.4614,-3.3119,-3.2388,-3.1002,-2.9314,0.0,0.0,0.0,0.0,-2.9651,-2.9563,-3.1352,-3.1641,0.0,-2.9514,0.0,0.0,0.0,0.0,0.0,0.0,0.0,0.0,0.0,0.0,-3.4785,-3.5762,-3.5996,-3.5996,-3.5996,-3.5391,-3.457,0.0,-3.2637,-3.1601,-3.0371,0.0,0.0,0.0,0.0,-3.3008,-3.3359,-3.4922,-3.5996,-3.5996,-3.5996,-3.5996,-3.5996,-3.5996,-3.5996,-3.5996,-3.5996,-3.5664,-3.4883,-3.4297,-3.3478,0.0,0.0,0.0,0.0,0.0,0.0,0.0,0.0,0.0,0.0,0.0,0.0,0.0,0.0,0.0,0.0,0.0,0.0,0.0,0.0,0.0,0.0,0.0,0.0,0.0,0.0,0.0,0.0,-2.6296,-2.6467,-2.58,-2.6796,-2.6631,0.0,0.0,0.0,0.0,0.0,0.0,-3.0413,-3.0684,-3.1607,-3.3283,-3.334,-3.4031,-3.5493,-3.5493,-3.5493,-3.5493,-3.5493,-3.5493,-3.5493,-3.5493,-3.5493,-3.5493,-3.5493,-3.5493,-3.5397,-3.3954,-3.3135,-3.2672,-3.1278,-3.0579,-3.0445,-3.1533,-3.1546,-3.1371,-3.3718,-3.4103,-3.3468,-3.2795,-3.2319,-3.1888,-3.1315,0.0,0.0,0.0,0.0,-3.1934,-3.3633,-3.4062,-3.4394,-3.5684,-3.5996,-3.5996,-3.5996,-3.5644,-3.5078,0.0,-3.3066,-3.1855,-3.0762,0.0,0.0,0.0,0.0,-3.3555,-3.4004,-3.5195,-3.5996,-3.5996,-3.5996,-3.5996,-3.5996,-3.5996,-3.5996,-3.5996,-3.5996,-3.5996,-3.5996,-3.473,-3.4121,-3.4255,0.0,0.0,0.0,0.0,0.0,0.0,0.0,0.0,0.0,0.0,0.0,0.0,0.0,0.0,0.0,0.0,0.0,0.0,0.0,0.0,0.0,0.0,0.0,0.0,0.0,0.0,0.0,0.0,0.0,-2.7028,-2.8927,0.0,0.0,0.0,0.0,-2.9157,-2.958,-3.0883,-3.3443,-3.3592,-3.4129,-3.5306,-3.5359,-3.5397,-3.5493,-3.5493,-3.5493,-3.5493,-3.5493,-3.5493,-3.5493,-3.5493,-3.5493,-3.5493,-3.5493,-3.5493,-3.5493,-3.5397,-3.4271,-3.2607,-3.2512,-3.1518,-3.0314,-3.1957,-3.2637,-3.3026,-3.4834,-3.5411,-3.4968,-3.2545,-3.0641,-2.9737,-3.2154,-3.1808,0.0,0.0,-3.3223,-3.3672,-3.543,-3.5879,-3.5898,-3.5976,-3.5996,-3.5996,-3.5996,-3.4707,-3.3984,0.0,-3.5801,-3.5195,-3.3496,0.0,-3.3262,-3.3223,-3.332,-3.4004,-3.5664,-3.5957,-3.5996,-3.5996,-3.5996,-3.5996,-3.5996,-3.5996,-3.5996,-3.5996,-3.5996,-3.5996,-3.5996,-3.5849,-3.5001,-3.3402,-3.4024,0.0,0.0,0.0,0.0,0.0,0.0,0.0,0.0,0.0,0.0,0.0,0.0,0.0,0.0,0.0,0.0,0.0,0.0,0.0,0.0,0.0,0.0,0.0,0.0,0.0,0.0,0.0,0.0,-2.894,-3.0614,0.0,-2.8871,-3.0574,-3.1699,-3.1483,-3.2707,-3.3887,-3.4832,-3.4904,-3.5072,-3.5493,-3.5493,-3.5493,-3.5493,-3.5493,-3.5493,-3.5493,-3.5493,-3.5493,-3.5493,-3.5493,-3.5493,-3.5493,-3.5493,-3.5493,-3.5493,-3.5493,-3.5095,-3.4462,-3.4462,-3.4098,-3.3651,-3.4251,-3.4524,-3.4661,-3.5295,-3.5493,-3.5353,-3.4449,-3.3737,-3.3378,-3.4326,-3.4282,-3.4029,-3.4658,-3.4945,-3.5215,-3.584,-3.5996,-3.5996,-3.5996,-3.5996,-3.5996,-3.5996,-3.5508,-3.5254,-3.5879,-3.5098,-3.4121,-3.3516,-3.4336,-3.4687,-3.3574,-3.4355,-3.5293,-3.5918,-3.5996,-3.5996,-3.5996,-3.5996,-3.5996,-3.5996,-3.5996,-3.5977,-3.5946,-3.5948,-3.5889,-3.5802,-3.5772,-3.5463,-3.4787,-3.507,-3.3807,0.0,0.0,0.0,0.0,0.0,0.0,0.0,0.0,0.0,0.0,0.0,0.0,0.0,0.0,0.0,0.0,0.0,0.0,0.0,0.0,0.0,0.0,0.0,0.0,0.0,0.0,-3.1197,-2.9962,-3.187,-3.2642,-3.0915,-3.2861,-3.4063,-3.3604,-3.4779,-3.5493,-3.5493,-3.5493,-3.5493,-3.5493,-3.5776,-3.5911,-3.5911,-3.6199,-3.6353,-3.6353,-3.6353,-3.6353,-3.6353,-3.6353,-3.6353,-3.6334,-3.6026,-3.5911,-3.5892,-3.5622,-3.5493,-3.5493,-3.5493,-3.5493,-3.5493,-3.5493,-3.5493,-3.5493,-3.5493,-3.5493,-3.5493,-3.5493,-3.5493,-3.5493,-3.5545,-3.5622,-3.5714,-3.5747,-3.587,-3.5996,-3.5996,-3.5996,-3.5996,-3.5996,-3.5996,-3.5996,-3.5996,-3.5996,-3.5996,-3.5996,-3.5078,-3.4277,-3.4277,-3.5234,-3.541,-3.3652,-3.4883,-3.5781,-3.5195,-3.5644,-3.5996,-3.5996,-3.5996,-3.5992,-3.5977,-3.5458,-3.5341,-3.58,-3.531,-3.5232,-3.5688,-3.5406,-3.5087,-3.4787,-3.4749,-3.3615,-3.1315,0.0,0.0,0.0,0.0,0.0,0.0,0.0,0.0,0.0,0.0,0.0,0.0,0.0,0.0,0.0,0.0,0.0,0.0,0.0,0.0,0.0,0.0,0.0,-3.0148,-3.1292,-3.1709,-3.017,-3.2788,-3.4188,-3.2825,-3.4165,-3.5242,-3.5532,-3.5545,-3.5565,-3.5584,-3.5584,-3.5584,-3.5584,-3.6334,-3.6738,-3.6738,-3.7584,-3.8007,-3.8007,-3.8007,-3.8007,-3.8007,-3.8007,-3.8007,-3.795,-3.7123,-3.6738,-3.668,-3.5911,-3.5584,-3.557,-3.5526,-3.5493,-3.5493,-3.5493,-3.5493,-3.5493,-3.5493,-3.5493,-3.5493,-3.5493,-3.5493,-3.5526,-3.5584,-3.5641,-3.5732,-3.5867,-3.5949,-3.5996,-3.5996,-3.5996,-3.5996,-3.5996,-3.5996,-3.5996,-3.5996,-3.5996,-3.5996,-3.5996,-3.5996,-3.5996,-3.5996,-3.5996,-3.543,-3.373,-3.4922,0.0,-3.3691,-3.4961,-3.6015,-3.5957,-3.5976,-3.5974,-3.592,-3.4417,-3.4144,-3.5684,-3.4295,-3.4145,-3.5718,-3.4891,-3.407,-3.3311,-3.3138,-3.2993,-3.2891,0.0,0.0,0.0,0.0,0.0,0.0,0.0,0.0,0.0,0.0,0.0,0.0,0.0,0.0,0.0,0.0,0.0,0.0,0.0,0.0,0.0,0.0,-3.3465,-3.2027,-3.3425,-3.4423,-3.3978,-3.473,-3.5132,-3.4745,-3.5129,-3.5662,-3.632,-3.6372,-3.6661,-3.7276,-3.7315,-3.7315,-3.7315,-3.7526,-3.7642,-3.7642,-3.7873,-3.8007,-3.8007,-3.8007,-3.8007,-3.8007,-3.8007,-3.8007,-3.7988,-3.7757,-3.7642,-3.7623,-3.7411,-3.7315,-3.7199,-3.5968,-3.5493,-3.5493,-3.5493,-3.5493,-3.5493,-3.5493,-3.5493,-3.5493,-3.5493,-3.5493,-3.5526,-3.5584,-3.5651,-3.5737,-3.5856,-3.5949,-3.5996,-3.5996,-3.5996,-3.5996,-3.5996,-3.5996,-3.5996,-3.5996,-3.5996,-3.5996,-3.5996,-3.5996,-3.5996,-3.5996,-3.5996,-3.584,-3.5351,-3.565,0.0,-3.5272,-3.611,-3.6278,-3.5117,-3.5547,-3.5927,-3.5902,-3.5489,-3.5852,-3.7353,-3.7016,-3.6974,-3.7353,-3.7123,-3.6603,-3.5748,-3.4499,-3.3551,0.0,0.0,0.0,0.0,0.0,0.0,0.0,0.0,0.0,0.0,0.0,0.0,0.0,0.0,0.0,0.0,0.0,0.0,0.0,0.0,0.0,0.0,-3.41,-3.4747,-3.3994,-3.4854,-3.5545,-3.5493,-3.5815,-3.6007,-3.6007,-3.6334,-3.6738,-3.7219,-3.7238,-3.7469,-3.7969,-3.8007,-3.8007,-3.8007,-3.8354,-3.8546,-3.8546,-3.8873,-3.9046,-3.9046,-3.9046,-3.9046,-3.9046,-3.9046,-3.9046,-3.9027,-3.8681,-3.8546,-3.8527,-3.8142,-3.8007,0.0,0.0,0.0,0.0,0.0,-3.6546,-3.6546,-3.6546,-3.6546,-3.6488,-3.6122,-3.6007,-3.5968,-3.5718,-3.5678,-3.5735,-3.59,-3.5966,-3.5996,-3.5996,-3.5996,-3.6094,-3.6465,-3.6543,-3.6641,-3.7012,-3.709,-3.709,-3.709,-3.709,0.0,-3.7013,-3.6696,-3.6223,-3.5522,-3.626,-3.6644,-3.5911,-3.6825,-3.7182,-3.6255,-3.6601,-3.6872,-3.6825,-3.6197,0.0,0.0,0.0,-3.7171,-3.745,-3.7151,0.0,0.0,0.0,-3.4864,-3.5026,0.0,0.0,0.0,-3.2737,-3.266,0.0,0.0,0.0,0.0,0.0,0.0,0.0,0.0,0.0,0.0,0.0,0.0,0.0,0.0,0.0,0.0,-3.5275,-3.5878,-3.5859,-3.5891,-3.5836,-3.568,-3.6372,-3.6853,-3.6853,-3.7546,-3.8046,-3.8142,-3.8142,-3.818,-3.8277,0.0,0.0,0.0,0.0,-3.9623,-3.9719,-4.0431,-4.0777,-4.0777,-4.0777,-4.0777,-4.0777,-4.0681,-4.0642,-4.0585,-3.9777,-3.9431,-3.9373,-3.8604,-3.8277,-3.8257,-3.8065,-3.8007,-3.8007,-3.8007,-3.8007,-3.8007,-3.8007,0.0,0.0,-3.7103,-3.6853,-3.6738,-3.6161,-3.5987,-3.6033,-3.6246,-3.6289,-3.6289,-3.6289,-3.6289,-3.6484,-3.7266,-3.7441,-3.7656,-3.8437,-3.8594,-3.8594,-3.8594,-3.8591,-3.8536,-3.8425,-3.7759,-3.6734,-3.5251,-3.688,-3.7724,-3.6166,-3.7416,-3.8339,-3.8139,0.0,0.0,-3.8118,-3.6784,-3.6615,-3.818,-3.6944,-3.6449,-3.7103,-3.6488,-3.6411,-3.6988,-3.6353,-3.6661,-3.8007,-3.8007,-3.7603,-3.6757,-3.291,-3.2275,0.0,0.0,0.0,0.0,0.0,0.0,0.0,0.0,0.0,0.0,0.0,0.0,0.0,0.0,0.0,-3.4459,-3.5946,-3.6982,-3.6923,-3.7417,-3.7501,-3.6727,-3.7296,-3.7757,-3.7757,-3.7892,-3.8296,-3.8988,-3.9046,-3.9335,-3.9969,-4.0008,-4.0335,-4.1046,-4.1239,-4.1643,-4.2354,-4.2527,-4.2604,-4.2604,0.0,0.0,-4.2566,-4.1873,-4.1546,-4.1508,-4.0642,-4.0258,-4.0239,-4.0085,-4.0008,-3.9873,-3.8527,-3.8007,-3.8007,-3.8007,-3.8007,-3.8007,-3.8007,-3.8007,-3.7969,-3.7796,-3.7757,-3.7738,-3.7781,-3.7801,0.0,-3.8042,-3.8105,-3.8105,-3.8105,-3.8105,-3.8144,-3.8301,-3.8359,-3.8398,-3.8555,-3.8594,-3.8594,-3.8594,-3.8507,-3.844,-3.8401,-3.8255,-3.8009,-3.7644,-3.7887,-3.8007,-3.7685,-3.8507,-3.8589,-3.7233,-3.7733,-3.8132,-3.8097,-3.7798,-3.8312,-3.9912,-3.9719,-3.9623,-3.9758,-3.9642,-3.9315,-3.8815,-3.8646,-3.8377,-3.8007,-3.8007,-3.7911,-3.7719,-3.6199,-3.5411,0.0,0.0,0.0,0.0,0.0,0.0,0.0,0.0,0.0,0.0,0.0,-3.2441,0.0,0.0,-3.4467,-3.5738,-3.6699,-3.7448,-3.7838,-3.8539,-3.8637,-3.767,-3.82,-3.8642,-3.8642,-3.9411,-4.0085,-4.0527,-4.095,-4.1373,-4.1777,-4.1797,-4.1989,-4.245,-4.245,-4.2662,-4.3104,-4.3104,-4.3104,-4.3104,-4.3104,-4.3104,-4.3085,-4.2643,-4.247,-4.2467,-4.1989,-4.1832,-4.1851,-4.1813,-4.1797,-4.1662,-4.0392,-3.9642,-3.9238,-3.9238,-3.9238,-3.9238,-3.9238,-3.9238,-3.9181,-3.8777,-3.8642,-3.8618,-3.8363,-3.8304,-3.8344,-3.8531,-3.8594,-3.8594,-3.8594,-3.8594,-3.8711,-3.9141,-3.9258,-3.9375,-3.9805,-3.9902,-3.9902,-3.9902,-3.9855,-3.9762,-3.9627,-3.9608,-3.9419,-3.8923,-3.9108,-3.9296,-3.9296,-3.9642,-3.9585,-3.8742,-3.9035,-3.9304,-3.9304,-3.9304,-3.9646,-4.045,-4.0489,-4.0489,-4.0489,-4.0489,-4.0296,-3.9912,-3.9892,-3.9681,-3.9238,-3.9238,-3.9046,-3.8642,-3.82,-3.7546,0.0,0.0,0.0,0.0,0.0,0.0,0.0,0.0,-3.1595,-3.2454,-3.2795,-3.3359,-3.4707,-3.5098,-3.5664,-3.707,-3.7578,-3.8047,-3.875,-3.9497,-3.971,-3.9066,-3.9488,-3.9815,-3.9796,-4.1162,-4.2047,-4.2047,-4.2701,-4.3104,-4.3104,-4.3104,-4.3162,-4.3335,-4.3335,-4.3412,-4.3585,-4.3585,-4.3585,-4.3585,-4.3585,-4.3605,-4.3624,-4.3451,-4.3429,-4.3484,-4.3275,-4.3198,-4.3233,-4.3143,-4.3124,-4.3085,-4.2335,-4.1623,-4.0985,-4.0639,-4.0489,-4.0489,-4.0489,-4.0489,-4.0392,-3.9738,-3.9546,-3.9469,-3.8945,-3.8798,-3.8863,-3.9055,-3.9101,-3.9101,-3.9101,-3.9101,-3.9277,-3.998,-4.0156,-4.0332,-4.1055,-4.1191,-4.1191,-4.1191,-4.1175,-4.1081,-4.0881,-4.0812,-4.0508,-3.9723,-4.0123,-4.0489,-4.0489,-4.0489,-4.0489,-4.0489,-4.0489,-4.0489,-4.0489,-4.0489,-4.0489,-4.0489,-4.0489,-4.0489,-4.0489,-4.0489,-4.0489,-4.0489,-4.0489,-4.0489,-4.0489,-4.0489,-4.0162,-3.9527,-3.9527,-3.8969,-2.6631,-2.8035,-2.9937,-3.1124,-3.2025,-3.3006,0.0,0.0,-3.4284,-3.5111,-3.5422,-3.5625,-3.582,-3.6484,-3.707,-3.7266,-3.8594,-3.9648,-3.9746,-4.039,-4.11,-4.1759,-4.1755,-4.1643,-4.1527,-4.2393,-4.2951,-4.2951,-4.3047,-4.3104,-4.3104,-4.3104,-4.3431,-4.4143,-4.4162,-4.4528,-4.5297,-4.5316,-4.5316,-4.5316,-4.5316,-4.5374,-4.5468,-4.4699,-4.441,-4.4491,-4.3701,-4.3371,-4.3371,-4.3239,-4.3258,-4.3335,-4.3066,-4.2929,-4.2694,-4.1101,-4.0489,-4.0489,-4.0489,-4.0489,-4.0489,-4.0392,-4.0466,-4.0543,-4.0523,-4.0592,-4.0732,-4.0879,-4.0918,-4.0918,-4.0918,-4.0918,-4.0937,-4.1035,-4.1055,-4.1074,-4.1172,-4.1191,-4.1191,-4.1191,-4.1091,-4.1018,-4.0968,-4.0831,-4.0639,-4.0412,-4.045,-4.0489,-4.0489,-4.0489,-4.0489,-4.0489,-4.0489,-4.0489,-4.0489,-4.0489,-4.0489,-4.0489,-4.0489,-4.0489,-4.0489,-4.0489,-4.0489,-4.0489,-4.0489,-4.0489,-4.0489,-4.0489,-4.045,-4.0354,-4.0354,-3.9508,-2.9645,-3.0509,0.0,0.0,-3.341,-3.3853,-3.4584,-3.4558,-3.4619,-3.5512,-3.5828,-3.6113,-3.666,-3.7051,-3.7637,0.0,-3.9414,-4.0078,-4.0586,-4.1328,-4.1947,-4.2253,-4.3097,-4.3368,-4.2681,-4.3335,-4.3797,-4.3797,-4.4259,-4.4547,-4.4547,-4.4547,-4.4701,-4.5047,-4.5047,-4.5259,-4.5719,-4.5719,-4.5738,-4.5776,-4.5776,-4.5796,-4.5834,-4.5485,-4.5362,-4.5382,-4.5101,-4.4937,-4.4858,-4.48,-4.4766,-4.4754,-4.4143,-4.3882,-4.3698,-4.245,-4.2008,-4.2008,-4.2008,-4.2008,-4.2008,-4.2063,-4.1793,-4.1485,-4.1636,-4.1366,-4.1029,-4.1169,-4.1191,-4.1191,-4.1191,-4.1191,-4.1191,-4.1191,-4.1191,-4.1191,-4.1191,-4.1191,-4.1191,-4.1191,-4.1152,-4.108,-4.0908,-4.0796,-4.0699,-4.0534,-4.0489,-4.0489,-4.0489,-4.0489,-4.0489,-4.0489,-4.0489,-4.0489,-4.0489,-4.0489,-4.0489,-4.0489,-4.0489,-4.0489,-4.0489,-4.0489,-4.0489,-4.0489,-4.0489,-4.0489,-4.0489,-4.0489,-4.0489,-4.0489,-4.0489,-4.0123,-3.1449,0.0,0.0,-3.3882,-3.4372,-3.4564,-3.4564,-3.4603,-3.4853,-3.5524,-3.5958,-3.6417,-3.7148,-3.7656,-3.8398,-3.9687,-4.0098,-4.0566,-4.1406,-4.2031,-4.2558,-4.2988,-4.4085,-4.4583,-4.4042,-4.4432,-4.4701,-4.4662,-4.524,-4.5605,-4.5643,-4.5643,-4.5643,-4.568,-4.568,-4.5738,-4.5834,-4.5835,-4.5858,-4.5896,-4.5896,-4.5912,-4.5967,-4.5998,-4.6001,-4.6027,-4.6106,-4.61,-4.6001,-4.5962,-4.5957,-4.5861,-4.5144,-4.4839,-4.472,-4.4066,-4.3528,-4.3104,-4.3104,-4.3104,-4.314,-4.3176,-4.2868,-4.2464,-4.2611,-4.2221,-4.1723,-4.157,-4.1523,-4.1484,-4.1269,-4.1191,-4.1191,-4.1191,-4.1191,-4.1191,-4.1191,-4.1191,-4.1191,-4.1191,-4.1177,-4.1075,-4.0888,-4.082,-4.0707,-4.0573,-4.0508,-4.0489,-4.0489,-4.0489,-4.0489,-4.0489,-4.0489,-4.0489,-4.0489,-4.0489,-4.0489,-4.0489,-4.0489,-4.0489,-4.0489,-4.0489,-4.0489,-4.0489,-4.0489,-4.0489,-4.0489,-4.0489,-4.0489,-4.0489,-4.0489,-4.0489,0.0,0.0,-3.284,-3.3928,-3.4834,-3.5468,-3.5468,-3.5507,-3.5565,-3.5597,-3.6327,-3.7027,-3.7166,-3.8535,-3.9687,-3.9863,-4.0605,-4.1445,-4.2246,-4.2383,-4.3027,-4.4726,-4.4844,-4.5124,0.0,-4.5851,-4.5699,-4.5566,-4.5586,-4.5643,-4.5796,-4.5796,-4.5815,-4.5892,-4.5892,-4.5892,-4.5911,-4.5891,-4.5909,-4.5909,-4.5909,-4.5968,-4.61,-4.624,-4.6289,-4.6289,-4.6289,-4.6289,-4.6289,-4.6152,-4.6171,-4.6245,-4.5887,-4.5873,-4.6007,-4.5796,-4.4605,-4.3104,-4.3104,-4.314,-4.3195,-4.3195,-4.3362,-4.3547,-4.3567,-4.3594,-4.3437,-4.2598,-4.2363,-4.2187,-4.1406,-4.1191,-4.1191,-4.1191,-4.1191,-4.1191,-4.1191,-4.1191,-4.1191,-4.1191,-4.1104,-4.0997,-4.0997,-4.0827,-4.0712,-4.0696,-4.0581,-4.0489,-4.0489,-4.0489,-4.0489,-4.0489,-4.0489,-4.0489,-4.0489,-4.0489,-4.0489,-4.0489,-4.0489,-4.0489,-4.0489,-4.0489,-4.0489,-4.0489,-4.0489,-4.0489,-4.0489,-4.0489,-4.0489,-4.0489,-4.0489,-4.0489,0.0,0.0,-3.3658,-3.4773,-3.5276,-3.5493,-3.5493,-3.5526,-3.5705,-3.632,-3.6241,-3.6447,-3.7696,-3.8424,-3.9043,-3.9668,-4.0566,-4.1484,-4.2285,-4.2891,-4.3691,-4.4863,-4.5469,0.0,0.0,0.0,0.0,-4.5796,-4.5796,-4.5815,-4.5853,-4.5872,-4.5883,-4.5902,-4.5902,-4.5938,-4.6026,-4.604,-4.6074,-4.6173,-4.6173,-4.6195,-4.6234,-4.6282,-4.6308,-4.6308,-4.6308,-4.6308,-4.6308,-4.625,-4.6211,-4.6152,-4.603,-4.5997,-4.5965,-4.5893,-4.5475,-4.4967,-4.497,-4.4968,-4.5007,-4.5101,-4.4776,-4.4407,-4.4491,-4.4142,-4.3633,-4.3359,-4.3262,-4.3203,-4.293,-4.2422,-4.1992,-4.1992,-4.1582,-4.1191,-4.1191,-4.1134,-4.1082,-4.1082,-4.0955,-4.0851,-4.0819,-4.0735,-4.0677,-4.0581,-4.0543,-4.0489,-4.0489,-4.0489,-4.0489,-4.0489,-4.0489,-4.0489,-4.0489,-4.0489,-4.0489,-4.0489,-4.0489,-4.0489,-4.0489,-4.0489,-4.0489,-4.0489,-4.0489,-4.0489,-4.0489,-4.0489,-4.0489,-4.0489,-4.0489,-4.0489,-3.2147,-3.3285,-3.4189,-3.5249,-3.5493,-3.5493,-3.5493,-3.5493,-3.5743,-3.6647,-3.6147,-3.6007,-3.7516,-3.8103,-3.8452,-3.8769,-3.9883,-4.1133,-4.2246,-4.2871,-4.3789,-4.5293,-4.5957,-4.6269,0.0,0.0,0.0,-4.5916,-4.5902,-4.592,-4.5986,-4.5969,-4.5988,-4.6039,-4.6039,-4.6084,-4.6158,-4.6177,-4.6201,-4.6308,-4.6308,-4.6308,-4.6308,-4.6308,-4.6308,-4.6308,-4.6308,-4.6308,-4.6308,-4.6308,-4.625,-4.6172,-4.6113,-4.6072,-4.6042,-4.599,-4.5997,-4.6036,-4.5925,-4.5928,-4.5988,-4.6065,-4.5737,-4.5347,-4.5436,-4.5078,-4.4551,-4.4258,-4.416,-4.4082,-4.3789,-4.3281,-4.2851,-4.2851,-4.2461,-4.2012,-4.1699,-4.1532,-4.1366,-4.1058,-4.0862,-4.0742,-4.0723,-4.0658,-4.06,-4.0508,-4.0489,-4.0489,-4.0489,-4.0489,-4.0489,-4.0489,-4.0489,-4.0489,-4.0489,-4.0489,-4.0489,-4.0489,-4.0489,-4.0489,-4.0489,-4.0489,-4.0489,-4.0489,-4.0489,-4.0489,-4.0489,-4.0489,-4.0489,-4.0489,-4.0489,-4.0489,-3.2978,-3.3808,-3.4455,-3.5282,-3.5493,-3.5493,-3.5493,-3.5493,-3.5699,-3.643,-3.593,-3.5636,0.0,0.0,-3.7939,-3.7235,-3.873,-4.0547,-4.2168,-4.2441,-4.3398,0.0,0.0,0.0,0.0,0.0,0.0,-4.5932,0.0,-4.5986,-4.6108,-4.6114,-4.6166,-4.6308,-4.6308,-4.6308,-4.6308,-4.6308,-4.6308,-4.6308,-4.6308,-4.6308,-4.6308,-4.6308,-4.6308,-4.6308,-4.6308,-4.6308,-4.6308,-4.6308,-4.6308,-4.6289,-4.6152,-4.6183,-4.6268,-4.6159,-4.6189,-4.6247,-4.6013,-4.6007,-4.6114,-4.6114,-4.6201,-4.6308,-4.6308,-4.6308,-4.6133,-4.5293,-4.5078,-4.4883,-4.4043,-4.3808,-4.3769,-4.3769,-4.373,-4.3476,-4.2656,-4.2416,-4.2106,-4.1232,-4.085,-4.0696,-4.0696,-4.0581,-4.0489,-4.0489,-4.0489,-4.0489,-4.0489,-4.0489,-4.0489,-4.0489,-4.0489,-4.0489,-4.0489,-4.0489,-4.0489,-4.0489,-4.0489,-4.0489,-4.0489,-4.0489,-4.0489,-4.0489,-4.0489,-4.0489,-4.0489,-4.0489,-4.0489,-4.0489,-4.0489,-4.0489,-3.3071,-3.4108,-3.4971,-3.5388,-3.5493,-3.5493,-3.5493,-3.5493,-3.5372,-3.493,-3.416,-3.3449,0.0,0.0,0.0,-3.6189,-3.8815,0.0,-4.2266,-4.2969,0.0,-4.5176,0.0,-4.6308,-4.6308,-4.6308,0.0,0.0,-4.62,-4.6212,-4.6245,-4.6245,-4.6267,-4.6308,-4.6308,-4.6308,-4.6308,-4.6308,-4.6308,-4.6308,-4.6308,-4.6308,-4.6308,-4.6308,-4.6308,-4.6308,-4.6308,-4.6308,-4.6308,-4.6308,-4.6308,-4.6308,-4.6269,-4.6262,-4.6298,-4.6264,-4.6266,-4.6297,-4.6219,-4.6225,-4.6245,-4.6245,-4.6276,-4.6308,-4.6308,-4.6308,-4.625,-4.6035,-4.5976,-4.5918,-4.5683,-4.5156,-4.4668,-4.4668,-4.418,-4.3649,-4.3421,-4.3236,-4.2862,-4.1986,-4.1135,-4.0562,-4.0562,-4.0508,-4.0489,-4.0489,-4.0489,-4.0489,-4.0489,-4.0489,-4.0489,-4.0489,-4.0489,-4.0489,-4.0489,-4.0489,-4.0489,-4.0489,-4.0489,-4.0489,-4.0489,-4.0489,-4.0489,-4.0489,-4.0489,-4.0489,-4.0489,-4.0489,-4.0489,-4.0489,-4.0489,-4.0489,-3.3489,-3.4318,-3.4981,-3.5273,-3.532,-3.5128,-3.4391,-3.4218,-3.3988,-3.3144,-3.1974,0.0,0.0,0.0,0.0,0.0,0.0,0.0,-4.1758,-4.2598,-4.3594,0.0,-4.5762,0.0,-4.6308,-4.6308,-4.6308,0.0,-4.6308,-4.6308,-4.6308,-4.6308,-4.6308,-4.6308,-4.6308,-4.6308,-4.6308,-4.6308,-4.6308,-4.6308,-4.6308,-4.6308,-4.6308,-4.6308,-4.6308,-4.6308,0.0,-4.6308,-4.6308,-4.6308,-4.6308,-4.6308,-4.6308,-4.6308,-4.6307,-4.6305,-4.6293,-4.6308,-4.6308,-4.6308,-4.6308,-4.6308,-4.6308,-4.6308,-4.6308,-4.6308,-4.6308,-4.6308,-4.6308,-4.6308,-4.6308,-4.5937,-4.5566,-4.5566,-4.5199,-4.4712,-4.4277,-4.4072,-4.3694,-4.2733,-4.1736,-4.1066,-4.1066,-4.0739,-4.0489,-4.0489,-4.0489,-4.0489,-4.0489,-4.0489,-4.0489,-4.0489,-4.0489,-4.0489,-4.0489,-4.0489,-4.0489,-4.0489,-4.0489,-4.0489,-4.0489,-4.0489,-4.0489,-4.0489,-4.0489,-4.0489,-4.0489,-4.0489,-4.0489,-4.0489,-4.0489,-4.0489,-3.399,-3.4401,-3.4694,-3.4981,-3.5053,-3.4613,-3.2928,-3.2562,-3.2237,-3.1077,0.0,-2.8829,-2.9543,-3.1915,-3.3635,-3.3258,0.0,-3.9922,-4.1016,-4.1973,-4.3125,-4.4648,-4.5703,-4.6308,-4.6308,-4.6308,-4.6308,-4.6308,-4.6308,-4.6308,-4.6308,-4.6308,-4.6308,-4.6308,-4.6308,-4.6308,-4.6308,-4.6308,-4.6308,-4.6308,-4.6308,-4.6308,-4.6308,-4.6308,-4.6308,-4.6308,-4.6308,-4.6308,-4.6308,-4.6308,-4.6308,-4.6308,-4.6308,-4.6308,-4.6308,-4.6308,-4.6308,-4.6308,-4.6308,-4.6308,-4.6308,-4.6308,-4.6308,-4.6308,-4.6308,-4.6308,-4.6308,-4.6308,-4.6308,-4.6308,-4.6308,-4.6308,-4.6308,-4.63,-4.6289,-4.6026,-4.5163,-4.4808,-4.4389,-4.3455,-4.2566,-4.197,-4.197,-4.1354,-4.0796,-4.0681,-4.0662,-4.0623,-4.0508,-4.0489,-4.0489,-4.0489,-4.0489,-4.0489,-4.0489,-4.0489,-4.0489,-4.0489,-4.0489,-4.0489,-4.0489,-4.0489,-4.0489,-4.0489,-4.0489,-4.0489,-4.0489,-4.0489,-4.0489,-4.0489,-4.0489,-4.0489,-3.411,-3.4246,-3.4379,-3.4694,-3.4754,-3.4339,-3.2655,-3.2275,0.0,0.0,0.0,-2.7224,-2.6129,-2.814,0.0,-3.2768,0.0,0.0,0.0,0.0,-4.3594,0.0,0.0,0.0,0.0,0.0,0.0,0.0,0.0,-4.6308,-4.6308,-4.6308,-4.6308,-4.6308,-4.6308,-4.6308,-4.6308,-4.6308,-4.6308,-4.6308,-4.6308,-4.6308,-4.6308,-4.6308,-4.6308,-4.6308,-4.6308,0.0,-4.6308,-4.6308,-4.6308,-4.6308,-4.6308,-4.6308,-4.6308,-4.6308,-4.6308,-4.6308,-4.6308,-4.6308,-4.6308,-4.6308,-4.6308,-4.6308,-4.6308,-4.6308,-4.6308,-4.6308,-4.6308,-4.6308,-4.6308,-4.6308,-4.6295,-4.6305,-4.6221,-4.6084,-4.5911,-4.517,-4.4434,-4.4141,-4.3431,-4.2874,-4.2874,-4.2758,-4.2393,-4.1681,-4.1566,-4.1316,-4.0585,-4.0489,-4.0489,-4.0489,-4.0489,-4.0489,-4.0489,-4.0489,-4.0489,-4.0489,-4.0489,-4.0489,-4.0489,-4.0489,-4.0489,-4.0489,-4.0489,-4.0489,-4.0489,-4.0489,-4.0489,-4.0489,-4.0489,-4.0489,-3.3961,-3.3986,-3.4068,-3.4357,-3.4423,-3.3789,-3.1317,0.0,0.0,0.0,0.0,-2.5653,-2.5015,0.0,0.0,0.0,0.0,0.0,0.0,0.0,0.0,0.0,0.0,0.0,0.0,0.0,0.0,0.0,0.0,-4.6308,-4.6308,-4.6308,-4.6308,-4.6308,-4.6308,-4.6308,-4.6308,-4.6308,-4.6308,-4.6308,-4.6308,-4.6308,-4.6308,-4.6308,-4.6308,-4.6308,-4.6308,0.0,-4.6308,-4.6308,-4.6308,-4.6308,-4.6308,-4.6308,-4.6308,-4.6308,-4.6308,-4.6308,-4.6308,-4.6308,-4.6308,-4.6308,-4.6308,-4.6308,-4.6308,-4.6308,-4.6308,-4.6308,-4.6308,-4.6308,-4.6308,-4.6308,-4.6309,-4.6293,-4.6142,-4.5988,-4.595,-4.5488,-4.5045,-4.4989,-4.4297,-4.372,-4.372,-4.3374,-4.297,-4.2547,-4.2489,-4.2162,-4.1296,-4.1181,-4.0989,-4.0546,-4.0489,-4.0489,-4.0489,-4.0489,-4.0489,-4.0489,-4.0489,-4.0489,-4.0489,-4.0489,-4.0489,-4.0489,-4.0489,-4.0489,-4.0489,-4.0489,-4.0489,-4.0489,-4.0489,-4.0489,-3.3715,-3.3807,-3.3868,-3.4068,-3.4123,-3.3268,-3.0041,-2.9318,0.0,0.0,-2.4445,-2.4495,-2.47,0.0,0.0,0.0,0.0,0.0,0.0,0.0,0.0,0.0,0.0,0.0,0.0,0.0,0.0,0.0,0.0,0.0,-4.6308,-4.6308,-4.6308,-4.6308,-4.6308,-4.6308,-4.6308,-4.6308,-4.6308,-4.6308,-4.6308,-4.6308,-4.6308,-4.6308,-4.6308,-4.6308,-4.6308,0.0,0.0,-4.6308,-4.6308,-4.6308,-4.6308,-4.6308,-4.6308,-4.6308,-4.6308,-4.6308,-4.6308,-4.6308,-4.6308,-4.6308,-4.6308,-4.6308,-4.6308,-4.6308,-4.6308,-4.6308,-4.6308,-4.6308,-4.6308,-4.6308,-4.6293,-4.6235,-4.6056,-4.5873,-4.5776,-4.568,-4.5586,-4.5586,-4.5047,-4.4586,-4.4586,-4.4047,-4.3566,-4.3393,-4.3355,-4.3047,-4.22,-4.2085,-4.1816,-4.1123,-4.0719,-4.0489,-4.0489,-4.0489,-4.0489,-4.0489,-4.0489,-4.0489,-4.0489,-4.0489,-4.0489,-4.0489,-4.0489,-4.0489,-4.0489,-4.0489,-4.0489,-4.0489,-4.0489,-4.0489,-3.3403,-3.3807,-3.3807,-3.3815,-3.3842,-3.2996,-2.9779,0.0,0.0,-2.489,-2.4228,-2.4284,-2.4495,-2.4746,0.0,0.0,0.0,0.0,0.0,0.0,0.0,0.0,0.0,0.0,0.0,0.0,0.0,0.0,0.0,0.0,-4.6308,-4.6308,-4.6308,-4.6308,-4.6308,-4.6308,-4.6308,-4.6308,-4.6308,-4.6308,-4.6308,-4.6308,-4.6308,-4.6308,-4.6308,-4.6308,-4.6308,0.0,0.0,-4.6308,-4.6308,-4.6308,-4.6308,-4.6308,-4.6308,-4.6308,-4.6308,-4.6308,-4.6308,-4.6308,-4.6308,-4.6308,-4.6308,-4.6308,-4.6308,-4.6308,-4.6308,-4.6308,-4.6308,-4.6308,-4.6308,-4.6308,-4.6245,-4.5982,-4.5924,-4.5853,-4.5643,-4.5605,-4.5586,-4.5586,-4.5528,-4.547,-4.547,-4.5413,-4.5086,-4.4316,-4.4182,-4.3893,-4.3085,-4.2989,-4.2951,-4.2874,-4.1431,-4.0489,-4.0489,-4.0489,-4.0489,-4.0489,-4.0489,-4.0489,-4.0489,-4.0489,-4.0489,-4.0489,-4.0489,-4.0489,-4.0489,-4.0489,-4.0489,-4.0489,-4.0489,-4.0489,-3.3441,-3.3807,-3.3807,-3.3807,-3.344,-3.2375,-2.9617,0.0,0.0,-2.4759,-2.419,-2.4228,-2.4303,-2.4428,-2.4877,0.0,0.0,0.0,0.0,0.0,0.0,0.0,0.0,0.0,0.0,0.0,0.0,0.0,0.0,0.0,-4.6308,-4.6308,-4.6308,-4.6308,-4.6308,-4.6308,-4.6308,-4.6308,-4.6308,-4.6308,-4.6308,-4.6308,-4.6308,-4.6308,-4.6308,-4.6308,-4.6308,0.0,0.0,-4.6308,-4.6308,-4.6308,-4.6308,-4.6308,-4.6308,-4.6308,-4.6308,-4.6308,-4.6308,-4.6308,-4.6308,-4.6308,-4.6308,-4.6308,-4.6308,-4.6308,-4.6308,-4.6308,-4.6308,-4.6308,-4.6308,-4.6245,-4.6134,-4.5948,-4.5874,-4.5796,-4.5624,-4.5586,-4.5586,-4.5586,-4.5586,-4.5586,-4.5586,-4.5586,-4.547,-4.5124,-4.5066,-4.4778,-4.3932,-4.3816,-4.3643,-4.3143,-4.247,-4.1854,-4.1335,-4.1277,-4.1066,-4.0527,-4.0489,-4.0489,-4.0489,-4.0489,-4.0489,-4.0489,-4.0489,-4.0489,-4.0489,-4.0489,-4.0489,-4.0489,-4.0489,-4.0489,-3.2903,-3.3524,-3.3807,-3.3807,-3.3201,-3.1946,0.0,0.0,-2.7086,-2.4567,-2.4113,-2.419,-2.419,-2.4321,-2.4426,0.0,0.0,0.0,0.0,0.0,0.0,0.0,0.0,0.0,0.0,0.0,0.0,0.0,0.0,0.0,-4.6308,-4.6308,-4.6308,-4.6308,-4.6308,-4.6308,-4.6308,-4.6308,-4.6308,-4.6308,-4.6308,-4.6308,-4.6308,-4.6308,-4.6308,-4.6308,-4.6308,0.0,0.0,-4.6308,-4.6308,-4.6308,-4.6308,-4.6308,-4.6328,-4.6582,-4.668,-4.6719,-4.6973,-4.707,-4.707,-4.707,-4.707,-4.7012,-4.6758,-4.649,-4.6289,-4.625,-4.6234,-4.623,-4.618,-4.6144,-4.6073,-4.5905,-4.5829,-4.5757,-4.5624,-4.5586,-4.5586,-4.5586,-4.5586,-4.5586,-4.5586,-4.5586,-4.5586,-4.5586,-4.5586,-4.5374,-4.4759,-4.4682,-4.447,-4.3893,-4.3835,-4.3393,-4.2277,-4.2181,-4.1912,-4.1296,-4.1258,-4.1258,-4.1258,-4.1258,-4.1143,-4.0893,-4.0873,-4.0758,-4.0489,-4.0489,-4.0489,-4.0489,-4.0489,-4.0489,-3.1482,-3.2939,-3.3807,-3.3807,-3.3201,-3.1876,0.0,0.0,-2.7024,-2.4284,-2.3976,-2.419,-2.419,-2.419,-2.4266,-2.4461,-2.5217,0.0,0.0,0.0,0.0,0.0,0.0,0.0,0.0,0.0,0.0,0.0,0.0,0.0,-4.6308,-4.6308,-4.6308,-4.6308,-4.6308,-4.6308,-4.6308,-4.6308,-4.6308,-4.6308,-4.6308,-4.6308,-4.6308,-4.6308,-4.6308,-4.6308,0.0,0.0,0.0,-4.6308,-4.6308,-4.6308,-4.6308,-4.6308,-4.6406,-4.7266,-4.7598,-4.7715,-4.8574,-4.8867,-4.8867,-4.8867,-4.8867,-4.8711,-4.7851,-4.6984,-4.6256,-4.614,-4.6104,-4.607,-4.5935,-4.6003,-4.6046,-4.5853,-4.5796,-4.5757,-4.5624,-4.5586,-4.5586,-4.5586,-4.5586,-4.5586,-4.5586,-4.5586,-4.5586,-4.5586,-4.5586,-4.5586,-4.5586,-4.5586,-4.5566,-4.5566,-4.5566,-4.4893,-4.3239,-4.3085,-4.3085,-4.3066,-4.3066,-4.3066,-4.3066,-4.3066,-4.2662,-4.1797,-4.1797,-4.1354,-4.0489,-4.0489,-4.0489,-4.0489,-4.0489,-4.0489,-2.9058,-3.0014,-3.052,-3.0025,-2.9269,-2.8244,-2.6841,0.0,-2.5064,-2.3659,-2.361,-2.3876,-2.3876,-2.4054,-2.4228,-2.4284,-2.5541,0.0,0.0,0.0,0.0,0.0,0.0,0.0,0.0,0.0,0.0,0.0,0.0,0.0,-4.6033,-4.6033,-4.6113,-4.6289,-4.6212,-4.6162,-4.6162,-4.6156,-4.6152,-4.6152,-4.6269,-4.6308,-4.6308,-4.6308,-4.6308,0.0,0.0,0.0,0.0,-4.6308,-4.6308,-4.6367,-4.6953,-4.7187,-4.7285,-4.8164,-4.8496,-4.8535,-4.8808,-4.8906,-4.8906,-4.8906,-4.8906,-4.8822,-4.8466,-4.7728,-4.6908,-4.6161,-4.5969,-4.5953,-4.592,-4.5906,-4.5873,-4.5815,-4.5738,-4.5643,-4.5605,-4.5586,-4.5586,-4.5586,-4.5586,-4.5586,-4.5586,-4.5586,-4.5586,-4.5586,-4.5586,-4.5586,-4.5586,-4.5586,-4.5586,-4.5586,-4.5586,-4.5143,-4.4028,-4.3912,-4.3682,-4.3124,-4.3104,-4.3104,-4.3104,-4.3104,-4.297,-4.2701,-4.2701,-4.2547,-4.2277,-4.2277,-4.2277,-4.2277,-4.2277,-4.2277,0.0,-2.8078,-2.8671,-2.8217,-2.7442,0.0,0.0,0.0,-2.4145,-2.3203,-2.3392,-2.3692,-2.3692,-2.3976,-2.419,-2.419,-2.5392,0.0,0.0,0.0,0.0,0.0,0.0,0.0,0.0,0.0,0.0,0.0,0.0,0.0,-4.5898,-4.5898,-4.5988,-4.6151,-4.6069,-4.6017,-4.6007,-4.6007,-4.6025,-4.603,-4.6108,-4.6147,-4.6147,-4.6147,-4.6147,0.0,0.0,0.0,0.0,-4.6289,-4.6484,-4.6836,-4.7383,-4.7793,-4.8203,-4.9062,-4.9394,-4.9432,-4.9736,-4.9808,-4.9769,-4.9769,-4.9522,-4.921,-4.9084,-4.8202,-4.7122,-4.6488,-4.6103,-4.5863,-4.5809,-4.5795,-4.5796,-4.5738,-4.5643,-4.5586,-4.5586,-4.5586,-4.5586,-4.5586,-4.5586,-4.5586,-4.5586,-4.5586,-4.5586,-4.5586,-4.5586,-4.5586,-4.5586,-4.5586,-4.5586,-4.5586,-4.5586,-4.5374,-4.4836,-4.4778,-4.4586,-4.4066,-4.4047,-4.4047,-4.4047,-4.4047,-4.3893,-4.3566,-4.3547,-4.3393,-4.3104,-4.3104,-4.3104,-4.3104,-4.3104,-4.3104,0.0,0.0,0.0,0.0,0.0,0.0,0.0,0.0,0.0,0.0,0.0,0.0,-2.3743,-2.4012,-2.4208,-2.4281,-2.4942,0.0,0.0,0.0,0.0,0.0,0.0,0.0,0.0,0.0,0.0,0.0,0.0,0.0,-4.5873,-4.5873,-4.5873,-4.5873,-4.5866,-4.5891,-4.5892,-4.5892,-4.5892,-4.5891,-4.5891,-4.5891,-4.5891,-4.5891,-4.5891,0.0,0.0,0.0,0.0,-4.6229,-4.6796,-4.7577,-4.7636,-4.8202,-4.9061,-4.994,-5.0272,-5.0379,-5.1111,-5.1299,-5.1202,-5.1203,-5.0612,-4.9862,-4.9732,-4.8489,-4.7086,-4.7086,-4.649,-4.5853,-4.572,-4.5757,-4.5757,-4.5624,-4.5586,-4.5586,-4.5586,-4.5586,-4.5586,-4.5586,-4.5586,-4.5586,-4.5586,-4.5586,-4.5586,-4.5586,-4.5586,-4.5586,-4.5586,-4.5586,-4.5586,-4.5586,-4.5586,-4.5586,-4.5586,-4.5586,-4.5586,-4.5586,-4.5586,-4.5586,-4.5586,-4.5586,-4.522,-4.4412,-4.4393,-4.4028,-4.3278,-4.3278,-4.3278,-4.3278,-4.3278,-4.3278,-2.2545,0.0,-2.4356,-2.379,-2.3515,0.0,0.0,0.0,0.0,0.0,0.0,0.0,0.0,0.0,0.0,0.0,0.0,0.0,0.0,0.0,0.0,0.0,0.0,0.0,0.0,0.0,0.0,0.0,0.0,-4.568,-4.568,-4.568,-4.568,-4.568,-4.5668,-4.5722,-4.5815,-4.5815,-4.5828,-4.5827,-4.5885,-4.5905,-4.5905,-4.5905,-4.5905,0.0,0.0,-4.5947,-4.5956,-4.5975,-4.6507,-4.7357,-4.802,-4.8826,-4.9703,-5.0626,-5.0938,-5.0917,-5.1151,-5.1183,-5.1121,-5.1122,-5.0912,-5.0638,-5.0605,-4.9375,-4.7952,-4.7875,-4.7259,-4.6624,-4.6605,-4.6124,-4.5624,-4.5605,-4.5586,-4.5586,-4.5586,-4.5586,-4.5586,-4.5586,-4.5586,-4.5586,-4.5586,-4.5586,-4.5586,-4.5586,-4.5586,-4.5586,-4.5586,-4.5586,-4.5586,-4.5586,-4.5586,-4.5586,-4.5586,-4.5586,-4.5586,-4.5586,-4.5586,-4.5586,-4.5586,-4.5586,-4.549,-4.5297,-4.5278,-4.5201,-4.5009,-4.5009,-4.5009,-4.5009,-4.5009,-4.5009,-2.1491,-2.2241,-2.2801,-2.2412,-2.231,-2.231,0.0,0.0,0.0,0.0,0.0,0.0,0.0,0.0,0.0,0.0,0.0,0.0,0.0,0.0,0.0,0.0,0.0,0.0,0.0,0.0,0.0,0.0,0.0,-4.5586,-4.5586,-4.5586,-4.5586,-4.5586,-4.5586,-4.5624,-4.5719,-4.5719,-4.5719,-4.5719,-4.5757,-4.5757,-4.5757,-4.5757,-4.5757,0.0,0.0,-4.5851,-4.5861,-4.588,-4.6642,-4.7849,-4.8319,-4.9282,-5.0458,-5.0976,-5.1127,-5.1111,-5.1136,-5.1097,-5.099,-5.0931,-5.0875,-5.0818,-5.0818,-5.0144,-4.9298,-4.8836,-4.8086,-4.7375,-4.7009,-4.6547,-4.6105,-4.5701,-4.5586,-4.5586,-4.5586,-4.5586,-4.5586,-4.5586,-4.5586,-4.5586,-4.5586,-4.5586,-4.5586,-4.5586,-4.5586,-4.5586,-4.5586,-4.5586,-4.5586,-4.5586,-4.5586,-4.5586,-4.5586,-4.5586,-4.5586,-4.5586,-4.5586,-4.5586,-4.5586,-4.5586,-4.5586,-4.5586,-4.5586,-4.5586,-4.5586,-4.5586,-4.5586,-4.5586,-4.5586,-4.5586,-2.129,-2.2078,-2.2592,-2.2361,-2.231,-2.231,0.0,0.0,0.0,0.0,0.0,0.0,0.0,0.0,0.0,0.0,0.0,0.0,0.0,0.0,0.0,0.0,0.0,0.0,0.0,0.0,0.0,0.0,0.0,-4.5586,-4.5586,-4.5586,-4.5586,-4.5586,-4.5586,-4.5586,-4.5586,-4.5586,-4.5586,-4.5586,-4.5586,-4.5586,-4.5586,-4.5586,-4.5586,-4.5605,0.0,0.0,-4.5776,-4.5834,-4.6892,-4.8432,-4.8433,-4.951,-5.1049,-5.1068,-5.1064,-5.1054,-5.1024,-5.0972,-5.0856,-5.0741,-5.0702,-5.0702,-5.0702,-5.0702,-5.0548,-4.9798,-4.8971,-4.8144,-4.7471,-4.7086,-4.6721,-4.597,-4.5701,-4.5586,-4.5586,-4.5586,-4.5586,-4.5586,-4.5586,-4.5586,-4.5586,-4.5586,-4.5586,-4.5586,-4.5586,-4.5586,-4.5586,-4.5586,-4.5586,-4.5586,-4.5586,-4.5586,-4.5586,-4.5586,-4.5586,-4.5586,-4.5586,-4.5586,-4.5586,-4.5586,-4.5586,-4.5586,-4.5586,-4.5586,-4.5586,-4.5586,-4.5586,-4.5586,-4.5586,-4.5586,-2.0959,-2.259,-2.3845,-2.2609,-2.231,-2.231,0.0,0.0,0.0,0.0,0.0,0.0,0.0,0.0,0.0,0.0,0.0,0.0,0.0,0.0,0.0,0.0,0.0,0.0,0.0,0.0,0.0,0.0,0.0,-4.5586,-4.5586,-4.5586,-4.5586,-4.5586,-4.5586,-4.5586,-4.5586,-4.5586,-4.5586,-4.5586,-4.5586,-4.5586,-4.5586,-4.5586,-4.5586,-4.5586,0.0,-4.5624,-4.5624,-4.5624,-4.6644,-4.8163,-4.8163,-4.924,-5.0779,-5.0895,-5.0856,-5.0757,-5.076,-5.0741,-5.0721,-5.0702,-5.0702,-5.0702,-5.0702,-5.0702,-5.0664,-5.0529,-4.9875,-4.9163,-4.9048,-4.7971,-4.6874,-4.674,-4.6144,-4.5586,-4.5586,-4.5586,-4.5586,-4.5586,-4.5586,-4.5586,-4.5586,-4.5586,-4.5586,-4.5586,-4.5586,-4.5586,-4.5586,-4.5586,-4.5586,-4.5586,-4.5586,-4.5586,-4.5586,-4.5586,-4.5586,-4.5586,-4.5586,-4.5586,-4.5586,-4.5586,-4.5586,-4.5586,-4.5586,-4.5586,-4.5586,-4.5586,-4.5586,-4.5586,-4.5586,-4.5586,-2.0483,-2.1585,-2.2737,-2.3354,-2.4471,0.0,0.0,0.0,0.0,0.0,0.0,0.0,0.0,0.0,0.0,0.0,0.0,0.0,0.0,0.0,0.0,0.0,0.0,0.0,0.0,0.0,0.0,0.0,0.0,0.0,-4.5586,-4.5586,-4.5586,-4.5586,-4.5586,-4.5586,-4.5586,-4.5586,-4.5586,-4.5586,-4.5586,-4.5586,-4.5586,-4.5586,-4.5586,-4.5586,0.0,-4.5586,-4.5586,-4.5586,-4.6586,-4.8105,-4.8105,-4.9163,-5.0702,-5.076,-5.0741,-5.0702,-5.0702,-5.0702,-5.0702,-5.0702,-5.0702,-5.0702,-5.0702,-5.0702,-5.0702,-5.0702,-5.0414,-4.999,-4.951,-4.8836,-4.8125,-4.7663,-4.6913,-4.6297,-4.6297,-4.5932,-4.5586,-4.5586,-4.5586,-4.5586,-4.5586,-4.5586,-4.5586,-4.5586,-4.5586,-4.5586,-4.5586,-4.5586,-4.5586,-4.5586,-4.5586,-4.5586,-4.5586,-4.5586,-4.5586,-4.5586,-4.5586,-4.5586,-4.5586,-4.5586,-4.5586,-4.5586,-4.5586,-4.5586,-4.5586,-4.5586,-4.5586,-4.5586,-4.5586,-4.5586,-2.0177,-2.097,-2.2132,-2.4015,0.0,0.0,0.0,0.0,0.0,0.0,0.0,0.0,0.0,0.0,0.0,0.0,0.0,0.0,0.0,0.0,0.0,0.0,0.0,0.0,0.0,0.0,0.0,0.0,0.0,0.0,-4.5586,-4.5586,-4.5586,-4.5586,-4.5586,-4.5586,-4.5586,-4.5586,-4.5586,-4.5586,-4.5586,-4.5586,-4.5586,-4.5586,-4.5586,-4.5586,-4.5586,-4.5586,-4.5586,-4.5586,-4.6471,-4.7836,-4.8029,-4.9163,-5.0702,-5.0702,-5.0702,-5.0702,-5.0702,-5.0702,-5.0702,-5.0702,-5.0702,-5.0702,-5.0702,-5.0702,-5.0702,-5.0702,-5.0702,-5.0548,-4.9875,-4.9548,-4.9221,-4.8567,-4.7778,-4.7182,-4.7182,-4.6509,-4.5893,-4.5893,-4.574,-4.5586,-4.5586,-4.5586,-4.5586,-4.5586,-4.5586,-4.5586,-4.5586,-4.5586,-4.5586,-4.5586,-4.5586,-4.5586,-4.5586,-4.5586,-4.5586,-4.5586,-4.5586,-4.5586,-4.5586,-4.5586,-4.5586,-4.5586,-4.5586,-4.5586,-4.5586,-4.5586,-4.5586,-4.5586,-4.5586,-4.5586,-2.0177,-2.1971,-2.3811,-2.436,0.0,0.0,0.0,0.0,0.0,0.0,0.0,0.0,0.0,0.0,0.0,0.0,0.0,0.0,0.0,0.0,0.0,0.0,0.0,0.0,0.0,0.0,0.0,0.0,0.0,0.0,-4.5586,-4.5586,-4.5586,-4.5586,-4.5586,-4.5586,-4.5586,-4.5586,-4.5586,-4.5586,-4.5586,-4.5586,-4.5586,-4.5586,-4.5586,-4.5586,-4.5586,-4.5586,-4.5586,-4.5586,-4.6144,-4.7067,-4.7817,-4.9163,-5.0702,-5.0702,-5.0702,-5.0702,-5.0702,-5.0702,-5.0702,-5.0702,-5.0702,-5.0702,-5.0702,-5.0702,-5.0702,-5.0702,-5.0702,-5.0683,-5.0606,-5.001,-4.9375,-4.9317,-4.8644,-4.8009,-4.8009,-4.7375,-4.6817,-4.6817,-4.6144,-4.5586,-4.5586,-4.5586,-4.5586,-4.5586,-4.5586,-4.5586,-4.5586,-4.5586,-4.5586,-4.5586,-4.5586,-4.5586,-4.5586,-4.5586,-4.5586,-4.5586,-4.5586,-4.5586,-4.5586,-4.5586,-4.5586,-4.5586,-4.5586,-4.5586,-4.5586,-4.5586,-4.5586,-4.5586,-4.5586,-4.5586,-2.0177,-2.2069,-2.4007,-2.4377,0.0,0.0,0.0,0.0,0.0,0.0,0.0,0.0,0.0,0.0,0.0,0.0,0.0,0.0,0.0,0.0,0.0,0.0,0.0,0.0,0.0,0.0,0.0,0.0,0.0,0.0,-4.5302,-4.5302,-4.5302,-4.5302,-4.5096,-4.5182,-4.5605,-4.54,-4.5381,-4.5586,-4.5586,-4.5586,-4.5586,-4.5586,-4.5586,-4.5586,-4.5586,-4.5586,-4.5586,-4.5586,-4.6105,-4.7028,-4.8375,-4.9644,-5.0702,-5.0702,-5.0702,-5.0702,-5.0702,-5.0702,-5.0702,-5.0702,-5.0702,-5.0702,-5.0702,-5.0702,-5.0702,-5.0702,-5.0702,-5.0702,-5.0702,-5.0452,-5.0202,-5.0202,-4.9529,-4.8913,-4.8913,-4.824,-4.7663,-4.7663,-4.7375,-4.7144,-4.7144,-4.674,-4.6413,-4.6413,-4.5951,-4.5586,-4.5586,-4.5586,-4.5586,-4.5586,-4.5586,-4.5586,-4.5586,-4.5586,-4.5586,-4.5586,-4.5586,-4.5586,-4.5586,-4.5586,-4.5586,-4.5586,-4.5586,-4.5586,-4.5586,-4.5586,-4.5586,-4.5586,-4.5586,-4.5586,-2.113,-2.2606,-2.4295,0.0,0.0,0.0,0.0,0.0,0.0,0.0,0.0,0.0,0.0,0.0,0.0,0.0,0.0,0.0,0.0,0.0,0.0,0.0,0.0,0.0,0.0,0.0,0.0,0.0,0.0,0.0,0.0,-4.5159,-4.5159,-4.5243,-4.4849,-4.4919,-4.5586,-4.5282,-4.5282,-4.5586,-4.5586,-4.5586,-4.5586,-4.5586,-4.5586,-4.5586,-4.5586,-4.5586,-4.5586,-4.5586,-4.6259,-4.7394,-4.8548,-4.9683,-5.0702,-5.0702,-5.0702,-5.0702,-5.0702,-5.0702,-5.0702,-5.0702,-5.0702,-5.0702,-5.0702,-5.0702,-5.0702,-5.0702,-5.0702,-5.0702,-5.0702,-5.0702,-5.0702,-5.0702,-5.024,-4.9798,-4.9798,-4.9125,-4.8509,-4.8509,-4.8298,-4.8105,-4.8105,-4.7644,-4.7278,-4.7278,-4.6778,-4.6394,-4.6394,-4.6163,-4.5913,-4.5624,-4.5586,-4.5586,-4.5586,-4.5586,-4.5586,-4.5586,-4.5586,-4.5586,-4.5586,-4.5586,-4.5586,-4.5586,-4.5586,-4.5586,-4.5586,-4.5586,-4.5586,-4.5586,-4.5586,-4.5586,-2.319,-2.3862,0.0,0.0,0.0,0.0,0.0,0.0,0.0,0.0,0.0,0.0,0.0,0.0,0.0,0.0,0.0,0.0,0.0,0.0,0.0,0.0,0.0,0.0,0.0,0.0,0.0,0.0,0.0,0.0,0.0,-4.5282,-4.5243,-4.5586,-4.4943,-4.4919,-4.5586,-4.5263,-4.5263,-4.5605,-4.5586,-4.5586,-4.5586,-4.5586,-4.5586,-4.5586,-4.5586,-4.5586,-4.5586,-4.5586,-4.6586,-4.8105,-4.8105,-4.9163,-5.0702,-5.0702,-5.0702,-5.0702,-5.0702,-5.0702,-5.0702,-5.0702,-5.0702,-5.0702,-5.0702,-5.0702,-5.0702,-5.0702,-5.0702,-5.0702,-5.0702,-5.0702,-5.0702,-5.0702,-5.0702,-5.0702,-5.0702,-5.001,-4.9413,-4.9413,-4.8721,-4.8125,-4.8125,-4.8125,-4.8105,-4.8105,-4.8105,-4.8105,-4.8105,-4.7413,-4.6586,-4.572,-4.5605,-4.5605,-4.5605,-4.5605,-4.5605,-4.5586,-4.5586,-4.5586,-4.5586,-4.5586,-4.5586,-4.5586,-4.5586,-4.5586,-4.5586,-4.5586,-4.5586,-4.5586,-4.5586,-4.5586,-2.1485,0.0,0.0,0.0,0.0,0.0,0.0,0.0,0.0,0.0,0.0,0.0,0.0,0.0,0.0,0.0,0.0,0.0,0.0,0.0,0.0,0.0,0.0,0.0,0.0,0.0,0.0,0.0,0.0,-4.5381,-4.4919,-4.503,-4.5052,-4.4896,-4.4428,-4.4516,-4.5243,-4.4919,-4.4919,-4.5243,-4.5495,-4.5586,-4.5586,-4.5586,-4.5586,-4.5586,-4.5586,-4.5586,-4.5586,-4.5586,-4.6586,-4.8105,-4.8105,-4.9163,-5.0702,-5.0702,-5.0702,-5.0702,-5.0702,-5.0702,-5.0702,-5.0702,-5.0702,-5.0702,-5.0702,-5.0702,-5.0702,-5.0702,-5.0702,-5.0702,-5.0702,-5.0702,-5.0702,-5.0702,-5.0702,-5.0702,-5.0702,-5.0491,-5.0298,-5.0298,-5.0106,-4.9933,-4.9933,-4.9413,-4.9009,-4.9009,-4.849,-4.8105,-4.8105,-4.7894,-4.7644,-4.7394,-4.7355,-4.7124,-4.6567,-4.6509,-4.624,-4.5624,-4.5586,-4.5586,-4.5586,-4.5586,-4.5586,-4.5586,-4.5586,-4.5586,-4.5586,-4.5586,-4.5586,-4.5586,-4.5586,-4.5586,-2.3785,0.0,0.0,0.0,0.0,0.0,0.0,0.0,0.0,0.0,0.0,0.0,0.0,0.0,0.0,0.0,0.0,0.0,0.0,0.0,0.0,0.0,0.0,0.0,0.0,0.0,0.0,0.0,-4.5586,-4.5362,-4.4825,-4.4872,-4.4825,-4.4624,-4.4076,-4.4165,-4.4896,-4.4535,-4.4612,-4.5096,-4.5302,-4.5476,-4.5586,-4.5586,-4.5586,-4.5586,-4.5586,-4.5586,-4.5624,-4.597,-4.6894,-4.8125,-4.849,-4.9471,-5.0702,-5.0702,-5.0702,-5.0702,-5.0702,-5.0702,-5.0702,-5.0702,-5.0702,-5.0702,-5.0702,-5.0702,-5.0702,-5.0702,-5.0702,-5.0702,-5.0702,-5.0702,-5.0702,-5.0702,-5.0702,-5.0702,-5.0702,-5.0702,-5.0702,-5.0702,-5.0702,-5.0702,-5.0702,-5.026,-4.9913,-4.9913,-4.9471,-4.9009,-4.8663,-4.8625,-4.849,-4.8144,-4.8105,-4.7894,-4.7432,-4.7375,-4.7144,-4.6624,-4.6278,-4.6124,-4.6124,-4.5778,-4.5586,-4.5586,-4.5586,-4.5586,-4.5586,-4.5586,-4.5586,-4.5586,-4.5586,-4.5586,0.0,0.0,0.0,0.0,0.0,0.0,0.0,0.0,0.0,0.0,0.0,0.0,0.0,0.0,0.0,0.0,0.0,0.0,0.0,0.0,0.0,0.0,0.0,0.0,0.0,0.0,-4.5586,-4.5568,-4.5549,-4.5381,-4.5011,-4.4751,-4.458,-4.4553,-4.3899,-4.3868,-4.4527,-4.4175,-4.4346,-4.4988,-4.5052,-4.5222,-4.5568,-4.5586,-4.5586,-4.5586,-4.5586,-4.5586,-4.5663,-4.6547,-4.7375,-4.8202,-4.9067,-4.9933,-5.0702,-5.0702,-5.0702,-5.0702,-5.0702,-5.0702,-5.0702,-5.0702,-5.0702,-5.0702,-5.0702,-5.0702,-5.0702,-5.0702,-5.0702,-5.0702,-5.0702,-5.0702,-5.0702,-5.0702,-5.0702,-5.0702,-5.0702,-5.0702,-5.0702,-5.0702,-5.0702,-5.0702,-5.0702,-5.0702,-5.0702,-5.0702,-5.0702,-5.0414,-4.9625,-4.951,-4.9202,-4.8413,-4.8336,-4.8298,-4.824,-4.8221,-4.8182,-4.8105,-4.7413,-4.7009,-4.7009,-4.6105,-4.5586,-4.5586,-4.5586,-4.5586,-4.5586,-4.5586,-4.5586,-4.5586,-4.5586,-4.5586,0.0,0.0,0.0,0.0,0.0,0.0,0.0,0.0,0.0,0.0,0.0,0.0,0.0,0.0,0.0,0.0,0.0,0.0,0.0,0.0,0.0,0.0,0.0,0.0,0.0,-4.5586,-4.5495,-4.5222,-4.5201,-4.4924,-4.4271,-4.4474,-4.4474,-4.4146,-4.3986,-4.3955,-4.4136,-4.4028,-4.4087,-4.4261,-4.458,-4.4896,-4.5222,-4.5495,-4.5586,-4.5586,-4.5586,-4.5586,-4.5663,-4.6547,-4.7375,-4.8202,-4.9067,-4.9933,-5.0702,-5.0702,-5.0702,-5.0702,-5.0702,-5.0702,-5.0702,-5.0702,-5.0702,-5.0702,-5.0702,-5.0702,-5.0702,-5.0702,-5.0702,-5.0702,-5.0702,-5.0702,-5.0702,-5.0702,-5.0702,-5.0702,-5.0702,-5.0702,-5.0702,-5.0702,-5.0702,-5.0702,-5.0702,-5.0702,-5.0702,-5.0702,-5.0702,-5.0625,-5.0433,-5.0414,-5.0337,-5.0164,-5.0144,-4.9856,-4.9183,-4.9125,-4.8836,-4.8144,-4.7952,-4.7836,-4.7836,-4.6394,-4.5586,-4.5586,-4.5586,-4.5586,-4.5586,-4.5586,-4.5586,-4.5586,-4.5586,-4.5586,0.0,0.0,0.0,0.0,0.0,0.0,0.0,0.0,0.0,0.0,0.0,0.0,0.0,0.0,0.0,0.0,0.0,0.0,0.0,0.0,0.0,0.0,0.0,0.0,0.0,-4.5586,-4.5457,-4.5137,-4.5096,-4.4853,-4.4318,-4.429,-4.4204,-4.4016,-4.3849,-4.374,-4.374,-4.374,-4.3849,-4.3998,-4.4204,-4.4587,-4.5096,-4.5438,-4.5586,-4.5586,-4.5586,-4.5586,-4.5701,-4.6951,-4.7721,-4.824,-4.951,-5.0298,-5.0702,-5.0702,-5.0702,-5.0702,-5.0702,-5.0702,-5.0702,-5.0702,-5.0565,-5.0421,-5.0421,-5.0272,-5.0159,-5.0358,-5.0272,-5.0206,-5.0604,-5.0565,-5.0462,-5.0663,-5.0702,-5.0702,-5.0702,-5.0702,-5.0702,-5.0702,-5.0702,-5.0702,-5.0702,-5.0702,-5.0702,-5.0702,-5.0702,-5.0702,-5.0702,-5.0702,-5.0702,-5.0702,-5.0702,-5.051,-5.0048,-5.001,-4.9817,-4.9375,-4.8952,-4.8721,-4.8721,-4.7471,-4.6624,-4.622,-4.622,-4.6009,-4.5586,-4.5586,-4.5586,-4.5586,-4.5586,-4.5586,0.0,0.0,0.0,0.0,0.0,0.0,0.0,0.0,0.0,0.0,0.0,0.0,0.0,0.0,0.0,0.0,0.0,0.0,0.0,0.0,0.0,0.0,0.0,0.0,-4.5495,-4.5568,-4.5457,-4.5137,-4.5096,-4.4943,-4.4606,-4.429,-4.4058,-4.3998,-4.3726,-4.3582,-4.3497,-4.3497,-4.3646,-4.3893,-4.3986,-4.4318,-4.4924,-4.5342,-4.555,-4.5586,-4.5586,-4.5586,-4.572,-4.7413,-4.8105,-4.8279,-5.001,-5.0702,-5.0702,-5.0702,-5.0702,-5.0702,-5.0702,-5.0663,-5.0604,-5.0683,-5.0421,-5.0092,-5.0092,-4.9872,-4.9664,-4.9924,-4.9746,-4.9645,-5.0336,-5.0313,-5.0183,-5.0523,-5.0663,-5.0702,-5.0702,-5.0702,-5.0702,-5.0702,-5.0702,-5.0702,-5.0702,-5.0702,-5.0702,-5.0702,-5.0702,-5.0702,-5.0702,-5.0702,-5.0702,-5.0702,-5.0702,-5.0702,-5.0702,-5.0702,-5.0702,-5.0702,-5.001,-4.9625,-4.9625,-4.8933,-4.8163,-4.7355,-4.7182,-4.6682,-4.5817,-4.5817,-4.574,-4.5586,-4.5586,-4.5586,0.0,0.0,0.0,0.0,0.0,0.0,0.0,0.0,0.0,0.0,0.0,0.0,0.0,0.0,0.0,0.0,0.0,0.0,0.0,0.0,0.0,0.0,0.0,-4.5118,-4.5161,-4.5419,-4.5457,-4.5137,-4.5096,-4.4943,-4.4606,-4.4553,-4.4346,-4.3998,-4.3955,-4.3804,-4.3479,-4.3497,-4.3513,-4.3563,-4.3849,-4.4058,-4.4175,-4.4853,-4.5322,-4.5586,-4.5586,-4.5586,-4.572,-4.7413,-4.8105,-4.8279,-5.001,-5.0702,-5.0702,-5.0702,-5.0702,-5.0702,-5.0702,-5.0483,-5.0249,-5.0604,-5.0421,-5.0092,-5.0092,-5.0068,-4.9949,-4.9645,-4.9532,-4.9532,-4.9617,-4.9898,-5.0116,-5.0159,-5.0462,-5.0702,-5.0702,-5.0702,-5.0702,-5.0702,-5.0702,-5.0702,-5.0702,-5.0702,-5.0702,-5.0702,-5.0702,-5.0702,-5.0702,-5.0702,-5.0702,-5.0702,-5.0702,-5.0702,-5.0702,-5.0702,-5.0702,-5.0702,-5.0587,-5.0529,-5.0529,-5.0414,-4.9952,-4.9086,-4.8317,-4.7548,-4.674,-4.674,-4.6336,-4.5586,-4.5586,-4.5586,0.0,0.0,0.0,0.0,0.0,0.0,0.0,0.0,0.0,0.0,0.0,0.0,0.0,0.0,0.0,0.0,0.0,0.0,0.0,0.0,0.0,0.0,0.0,-4.4638,-4.5074,-4.5222,-4.5243,-4.5096,-4.5096,-4.5052,-4.4896,-4.4682,-4.4606,-4.4612,-4.4428,-4.428,-4.4125,-4.3881,-4.3772,-4.3772,-4.3758,-4.3943,-4.4318,-4.4455,-4.4787,-4.5322,-4.5513,-4.5586,-4.572,-4.7413,-4.8105,-4.8279,-5.001,-5.0702,-5.0702,-5.0702,-5.0702,-5.0702,-5.0702,-5.0565,-5.0462,-5.0624,-5.0421,-5.0068,-4.9827,-4.9617,-4.9367,-4.9202,-4.8996,-4.893,-4.9386,-4.9475,-4.9561,-4.9999,-5.0249,-5.0421,-5.0663,-5.0702,-5.0702,-5.0702,-5.0702,-5.0702,-5.0702,-5.0702,-5.0702,-5.0702,-5.0702,-5.0702,-5.0702,-5.0702,-5.0702,-5.0702,-5.0702,-5.0702,-5.0702,-5.0702,-5.0702,-5.0702,-5.0702,-5.0702,-5.0702,-5.0702,-5.051,-5.0144,-4.926,-4.8413,-4.7567,-4.7567,-4.7375,-4.699,-4.699,-4.6759,0.0,0.0,0.0,0.0,0.0,0.0,0.0,0.0,0.0,0.0,0.0,0.0,0.0,0.0,0.0,0.0,0.0,0.0,0.0,0.0,0.0,0.0,0.0,-4.3989,-4.4743,-4.4919,-4.4966,-4.4966,-4.5052,-4.5096,-4.5096,-4.4943,-4.4943,-4.5096,-4.4872,-4.4701,-4.458,-4.429,-4.4087,-4.4016,-4.3836,-4.4004,-4.4447,-4.4233,-4.4455,-4.4988,-4.5322,-4.5457,-4.5611,-4.7375,-4.8105,-4.8279,-5.001,-5.0702,-5.0702,-5.0702,-5.0702,-5.0702,-5.0702,-5.0624,-5.0565,-5.0663,-5.0421,-4.9999,-4.9617,-4.9295,-4.9029,-4.8813,-4.8604,-4.8586,-4.9062,-4.9108,-4.9171,-4.9673,-4.9853,-5.0092,-5.0604,-5.0702,-5.0702,-5.0702,-5.0702,-5.0702,-5.0702,-5.0702,-5.0702,-5.0702,-5.0702,-5.0702,-5.0702,-5.0702,-5.0702,-5.0702,-5.0702,-5.0702,-5.0702,-5.0702,-5.0702,-5.0702,-5.0702,-5.0702,-5.0702,-5.0702,-5.0702,-5.0702,-5.0048,-4.9298,-4.8432,-4.8432,-4.8317,-4.8105,-4.8105,-4.7778,0.0,0.0,0.0,0.0,0.0,0.0,0.0,0.0,0.0,0.0,0.0,0.0,0.0,0.0,0.0,0.0,0.0,0.0,0.0,0.0,0.0,0.0,-4.2687,-4.317,-4.3983,-4.4401,-4.465,-4.465,-4.4919,-4.5096,-4.5096,-4.5381,-4.5419,-4.5096,-4.5074,-4.4919,-4.4606,-4.458,-4.4392,-4.3998,-4.4364,-4.4346,-4.4028,-4.4401,-4.458,-4.4631,-4.4966,-4.5137,-4.5273,-4.7281,-4.8105,-4.8279,-5.001,-5.0702,-5.0702,-5.0702,-5.0702,-5.0702,-5.0702,-5.0442,-5.0183,-5.0584,-5.0421,-4.9999,-4.9617,-4.9475,-4.9295,-4.855,-4.8604,-4.8779,-4.8458,-4.8897,-4.9386,-4.9043,-4.9265,-4.9746,-5.0544,-5.0702,-5.0702,-5.0702,-5.0702,-5.0702,-5.0702,-5.0702,-5.0702,-5.0702,-5.0702,-5.0702,-5.0702,-5.0702,-5.0702,-5.0702,-5.0702,-5.0702,-5.0702,-5.0702,-5.0702,-5.0702,-5.0702,-5.0702,-5.0702,-5.0702,-5.0702,-5.0702,-5.0644,-5.0202,-4.9336,-4.9336,-4.8913,-4.8105,-4.8105,-4.8086,0.0,0.0,0.0,0.0,0.0,0.0,0.0,0.0,0.0,0.0,0.0,0.0,0.0,0.0,0.0,0.0,0.0,0.0,0.0,0.0,0.0,0.0,-4.1627,-4.2106,-4.3141,-4.3361,-4.3782,-4.4542,-4.4707,-4.4776,-4.4776,-4.5096,-4.5222,-4.5096,-4.5322,-4.5263,-4.4919,-4.4919,-4.4853,-4.4713,-4.4631,-4.4631,-4.4688,-4.4631,-4.458,-4.4606,-4.4943,-4.4966,-4.4957,-4.6956,-4.7771,-4.7965,-4.9932,-5.0702,-5.0702,-5.0702,-5.0702,-5.0702,-5.0702,-5.0604,-5.0504,-5.0663,-5.0604,-5.0421,-5.0019,-4.9898,-4.9773,-4.9234,-4.9171,-4.9202,-4.8779,-4.8897,-4.9075,-4.893,-4.9617,-5.0272,-5.0313,-5.0523,-5.0702,-5.0702,-5.0702,-5.0702,-5.0702,-5.0702,-5.0702,-5.0702,-5.0702,-5.0702,-5.0702,-5.0702,-5.0702,-5.0702,-5.0702,-5.0702,-5.0702,-5.0702,-5.0702,-5.0702,-5.0702,-5.0702,-5.0702,-5.0702,-5.0702,-5.0702,-5.0702,-5.0548,-5.0221,-5.0221,-5.0067,-4.976,-4.976,-4.9471,0.0,0.0,0.0,0.0,0.0,0.0,0.0,0.0,0.0,0.0,0.0,0.0,0.0,0.0,0.0,0.0,0.0,0.0,0.0,0.0,0.0,0.0,-4.0708,-4.1112,-4.2131,-4.2236,-4.269,-4.3745,-4.3924,0.0,-4.4373,-4.4732,-4.4919,-4.4919,-4.5263,-4.5322,-4.5096,-4.5222,-4.5222,-4.5096,-4.4988,-4.4988,-4.5096,-4.4872,-4.4776,-4.4757,-4.4896,-4.4825,-4.4764,-4.6889,-4.7621,-4.7615,-4.9852,-5.0624,-5.0504,-5.0663,-5.0702,-5.0702,-5.0702,-5.0702,-5.0702,-5.0702,-5.0702,-5.0624,-5.0206,-5.0092,-5.0019,-4.9617,-4.9608,-4.9589,-4.9202,-4.9108,-4.9108,-4.9108,-4.9827,-5.0421,-5.0159,-5.0421,-5.0702,-5.0702,-5.0702,-5.0702,-5.0702,-5.0702,-5.0702,-5.0702,-5.0702,-5.0702,-5.0702,-5.0702,-5.0702,-5.0702,-5.0702,-5.0702,-5.0702,-5.0702,-5.0702,-5.0702,-5.0702,-5.0702,-5.0702,-5.0702,-5.0702,-5.0702,-5.0702,-5.0702,-5.0702,-5.0702,-5.0702,-5.0702,-5.0702,-5.0394,0.0,0.0,0.0,0.0,0.0,0.0,0.0,0.0,0.0,0.0,0.0,0.0,0.0,0.0,0.0,0.0,0.0,0.0,0.0,0.0,0.0,0.0,-3.9845,-4.0175,-4.1001,-4.1075,-4.1405,-4.2194,-4.2594,-4.3122,-4.3911,-4.4346,-4.458,-4.4606,-4.4919,-4.5096,-4.5118,-4.5438,-4.5438,-4.5118,-4.5438,-4.5419,-4.5118,-4.5118,-4.5118,-4.5096,-4.4757,-4.4606,-4.4789,-4.7122,-4.7665,-4.7246,-4.9729,-5.0442,-5.0159,-5.0523,-5.0663,-5.0683,-5.0683,-5.0683,-5.0702,-5.0702,-5.0702,-5.0624,-5.0249,-5.0135,-5.0043,-4.9664,-4.98,-5.0043,-4.9617,-4.9504,-4.9504,-4.9504,-4.98,-5.0116,-5.0092,-5.0421,-5.0702,-5.0702,-5.0702,-5.0702,-5.0702,-5.0702,-5.0702,-5.0702,-5.0702,-5.0702,-5.0702,-5.0702,-5.0702,-5.0702,-5.0702,-5.0702,-5.0702,-5.0702,-5.0702,-5.0702,-5.0702,-5.0702,-5.0702,-5.0702,-5.0702,-5.0702,-5.0702,-5.0702,-5.0702,-5.0702,-5.0702,-5.0702,-5.0702,-5.0779,-2.1552,0.0,0.0,0.0,0.0,0.0,0.0,0.0,0.0,0.0,0.0,0.0,0.0,0.0,0.0,0.0,0.0,0.0,0.0,0.0,0.0,0.0,-3.9038,-3.935,-4.0157,-4.023,-4.0579,0.0,-4.2036,-4.2558,-4.2779,-4.3658,-4.4401,-4.4943,-4.5052,-4.5222,-4.5457,-4.5568,-4.555,-4.5457,-4.5568,-4.555,-4.5457,-4.5457,-4.5457,-4.5476,-4.5362,-4.5201,-4.5099,-4.6956,-4.7621,-4.7615,-4.9515,-5.0183,-5.0068,-4.9898,-5.0019,-5.0272,-5.0272,-5.0462,-5.0702,-5.0702,-5.0702,-5.0683,-5.0565,-5.0544,-5.0504,-5.0399,-5.0462,-5.0442,-5.0043,-4.9924,-4.9853,-4.9561,-5.0043,-5.0442,-5.0159,-5.0421,-5.0702,-5.0702,-5.0702,-5.0702,-5.0702,-5.0702,-5.0702,-5.0702,-5.0702,-5.0702,-5.0702,-5.0702,-5.0702,-5.0702,-5.0702,-5.0702,-5.0702,-5.0702,-5.0702,-5.0702,-5.0702,-5.0702,-5.0702,-5.0702,-5.0702,-5.0702,-5.0702,-5.0702,-5.0702,-5.0702,-5.0702,-5.0702,-5.0818,-5.0933,0.0,0.0,0.0,0.0,0.0,0.0,-2.6295,-2.854,-3.0746,0.0,0.0,0.0,0.0,0.0,0.0,0.0,0.0,0.0,0.0,0.0,0.0,0.0,-3.8707,-3.8891,-3.935,-3.9405,-3.9735,-4.0543,-4.1038,-4.1589,-4.2268,-4.2922,-4.3651,-4.4428,-4.4561,-4.483,-4.5182,-4.5322,-4.5457,-4.5586,-4.5586,-4.5586,-4.5586,-4.5586,-4.5586,-4.5586,-4.5586,-4.5495,-4.5418,-4.6758,-4.7315,-4.7566,-4.9557,-5.0159,-4.9827,-4.9773,-4.9898,-5.0092,-5.0092,-5.0358,-5.0702,-5.0702,-5.0702,-5.0702,-5.0702,-5.0702,-5.0702,-5.0702,-5.0702,-5.0663,-5.0421,-5.0358,-5.0294,-5.0068,-5.0358,-5.0643,-5.0399,-5.0544,-5.0702,-5.0702,-5.0702,-5.0702,-5.0702,-5.0702,-5.0702,-5.0702,-5.0702,-5.0702,-5.0702,-5.0702,-5.0702,-5.0702,-5.0702,-5.0702,-5.0702,-5.0702,-5.0702,-5.0702,-5.0702,-5.0702,-5.0702,-5.0702,-5.0702,-5.0702,-5.0702,-5.0702,-5.0702,-5.0702,-5.0721,-5.0779,-5.0875,-5.0991,0.0,0.0,0.0,0.0,0.0,0.0,-2.6881,-2.8328,-2.9859,-3.2803,0.0,0.0,0.0,0.0,0.0,0.0,0.0,0.0,0.0,0.0,0.0,0.0,0.0,-3.8707,-3.8707,-3.8707,-3.9001,-3.9698,-3.9845,-4.0561,-4.2084,-4.2249,-4.265,-4.3382,-4.3812,-4.4204,-4.4657,-4.4943,-4.5282,-4.5586,-4.5586,-4.5586,-4.5586,-4.5586,-4.5586,-4.5586,-4.5586,-4.5586,-4.5663,-4.6547,-4.7002,-4.7352,-4.9614,-5.0064,-4.9532,-4.9853,-5.0019,-5.0043,-5.0043,-5.0336,-5.0702,-5.0702,-5.0702,-5.0702,-5.0702,-5.0702,-5.0702,-5.0702,-5.0702,-5.0702,-5.0702,-5.0702,-5.0702,-5.0702,-5.0702,-5.0702,-5.0702,-5.0702,-5.0702,-5.0702,-5.0702,-5.0702,-5.0702,-5.0702,-5.0702,-5.0702,-5.0702,-5.0702,-5.0702,-5.0702,-5.0702,-5.0702,-5.0702,-5.0702,-5.0702,-5.0702,-5.0702,-5.0702,-5.0702,-5.0702,-5.0702,-5.0702,-5.0702,-5.0702,-5.0702,-5.0702,-5.0702,-5.0702,-5.0779,-5.0933,-5.0933,-5.1048,0.0,0.0,0.0,0.0,0.0,0.0,-2.3943,-2.5499,-2.7061,0.0,0.0,0.0,0.0,0.0,0.0,0.0,0.0,0.0,0.0,0.0,0.0,0.0,0.0,-3.8707,-3.8707,-3.8707,-3.8781,-3.8927,-3.9533,-4.0322,-4.1295,-4.1956,-4.2488,-4.2909,-4.3632,-4.4327,-4.5007,-4.5074,-4.5282,-4.5586,-4.5586,-4.5586,-4.5586,-4.5586,-4.5586,-4.5586,-4.5586,-4.5586,-4.5663,-4.6547,-4.73,-4.7968,-4.8837,-4.9315,-4.9475,-4.9234,-4.9356,-4.9636,-4.9636,-5.0092,-5.0702,-5.0702,-5.0702,-5.0702,-5.0702,-5.0702,-5.0702,-5.0702,-5.0702,-5.0702,-5.0702,-5.0702,-5.0702,-5.0702,-5.0702,-5.0702,-5.0702,-5.0702,-5.0702,-5.0702,-5.0702,-5.0702,-5.0702,-5.0702,-5.0702,-5.0702,-5.0702,-5.0702,-5.0702,-5.0702,-5.0702,-5.0702,-5.0702,-5.0702,-5.0702,-5.0702,-5.0702,-5.0702,-5.0702,-5.0702,-5.0702,-5.0702,-5.0702,-5.0702,-5.0818,-5.0818,-5.0702,-5.0818,-5.0933,-5.1068,-5.1126,-5.1217,0.0,0.0,0.0,-2.2463,0.0,0.0,0.0,-2.5493,-2.6649,-2.7922,-2.8933,-2.955,0.0,0.0,0.0,0.0,0.0,0.0,0.0,0.0,0.0,0.0,0.0,-3.8253,-3.8113,-3.8469,-3.8707,-3.8707,-3.9074,-3.9643,-4.0469,-4.1258,-4.2023,-4.2768,-4.3569,-4.4354,-4.5096,-4.5096,-4.5282,-4.5586,-4.5586,-4.5586,-4.5586,-4.5586,-4.5586,-4.5586,-4.5586,-4.5586,-4.5624,-4.6067,-4.699,-4.8164,-4.8832,-4.9372,-4.9773,-4.9561,-4.9617,-4.98,-4.98,-5.0183,-5.0702,-5.0702,-5.0702,-5.0702,-5.0702,-5.0702,-5.0702,-5.0702,-5.0702,-5.0702,-5.0702,-5.0702,-5.0702,-5.0702,-5.0702,-5.0702,-5.0702,-5.0702,-5.0702,-5.0702,-5.0702,-5.0702,-5.0702,-5.0702,-5.0702,-5.0702,-5.0702,-5.0702,-5.0702,-5.0702,-5.0702,-5.0702,-5.0702,-5.0702,-5.0702,-5.0702,-5.0702,-5.0702,-5.0702,-5.0702,-5.0702,-5.0702,-5.0702,-5.0702,-5.076,-5.0818,-5.0818,-5.0933,-5.1026,-5.1102,-5.1161,-5.1263,0.0,0.0,0.0,0.0,0.0,-2.3362,0.0,0.0,0.0,-2.807,-2.8558,0.0,0.0,0.0,0.0,0.0,0.0,0.0,0.0,0.0,0.0,0.0,-3.6614,-3.7394,-3.6636,-3.7276,-3.8028,-3.8652,-3.8267,-3.8487,-3.9606,-4.0432,-4.1378,-4.2507,-4.3346,-4.4204,-4.5096,-4.5096,-4.5282,-4.5586,-4.5586,-4.5586,-4.5586,-4.5586,-4.5586,-4.5586,-4.5586,-4.5586,-4.5586,-4.5586,-4.649,-4.7952,-4.8817,-4.9541,-5.0092,-5.0092,-5.0092,-5.0092,-5.0092,-5.0358,-5.0702,-5.0702,-5.0702,-5.0702,-5.0702,-5.0702,-5.0702,-5.0702,-5.0702,-5.0702,-5.0702,-5.0702,-5.0702,-5.0702,-5.0702,-5.0702,-5.0702,-5.0702,-5.0702,-5.0702,-5.0702,-5.0702,-5.0702,-5.0702,-5.0702,-5.0702,-5.0702,-5.0702,-5.0702,-5.0702,-5.0702,-5.0702,-5.0702,-5.0702,-5.0702,-5.0702,-5.0702,-5.0702,-5.0702,-5.0702,-5.0702,-5.0702,-5.0702,-5.0702,-5.0741,-5.0837,-5.0914,-5.1068,-5.1151,-5.1125,-5.1194,-5.1298,0.0,0.0,0.0,0.0,-2.3369,0.0,0.0,0.0,-2.4521,-2.4744,0.0,0.0,0.0,0.0,0.0,0.0,0.0,0.0,0.0,0.0,0.0,-2.9101,-3.3697,-3.5873,-3.3393,-3.388,-3.5569,-3.8487,-3.667,-3.6431,-3.8707,-3.9606,-4.056,-4.1716,-4.2518,-4.363,-4.5096,-4.5096,-4.5282,-4.5586,-4.5586,-4.5586,-4.5586,-4.5586,-4.5586,-4.5586,-4.5586,-4.5586,-4.5586,-4.5586,-4.6163,-4.7124,-4.7932,-4.9024,-5.0092,-5.0092,-5.0092,-5.0092,-5.0092,-5.0358,-5.0702,-5.0702,-5.0702,-5.0702,-5.0702,-5.0702,-5.0702,-5.0702,-5.0702,-5.0702,-5.0702,-5.0702,-5.0702,-5.0702,-5.0702,-5.0702,-5.0702,-5.0702,-5.0702,-5.0702,-5.0702,-5.0702,-5.0702,-5.0702,-5.0702,-5.0702,-5.0702,-5.0702,-5.0702,-5.0702,-5.0702,-5.0702,-5.0702,-5.0702,-5.0702,-5.0702,-5.0702,-5.0702,-5.0702,-5.0702,-5.0702,-5.0702,-5.0702,-5.0702,-5.0933,-5.101,-5.0914,-5.1203,-5.1299,-5.1181,-5.1316,-5.1382,0.0,0.0,0.0,0.0,0.0,0.0,-2.4096,0.0,-2.3976,0.0,0.0,0.0,0.0,0.0,0.0,0.0,-2.243,0.0,0.0,0.0,0.0,0.0,0.0,0.0,-3.2765,-3.4567,-3.6463,-3.8342,-3.7544,-3.7645,-3.9133,-4.0,-4.0739,-4.1387,-4.2691,-4.3776,-4.4614,-4.5151,-4.5457,-4.5586,-4.5586,-4.5586,-4.5586,-4.5586,-4.5586,-4.5586,-4.5586,-4.5586,-4.5586,-4.5586,-4.6105,-4.699,-4.7798,-4.874,-4.9771,-5.027,-5.0462,-5.0462,-5.0462,-5.0565,-5.0702,-5.0702,-5.0702,-5.0702,-5.0702,-5.0702,-5.0702,-5.0702,-5.0702,-5.0702,-5.0702,-5.0702,-5.0702,-5.0702,-5.0702,-5.0702,-5.0702,-5.0702,-5.0702,-5.0702,-5.0702,-5.0702,-5.0702,-5.0702,-5.0702,-5.0702,-5.0702,-5.0702,-5.0702,-5.0702,-5.0702,-5.0702,-5.0702,-5.0702,-5.0702,-5.0702,-5.0702,-5.0702,-5.0702,-5.0702,-5.0702,-5.0702,-5.0702,-5.0702,-5.0895,-5.0985,-5.1009,-5.1198,-5.1299,-5.1337,-5.1369,-5.1406,-2.4595,0.0,0.0,0.0,0.0,0.0,0.0,0.0,0.0,0.0,0.0,0.0,0.0,0.0,0.0,0.0,0.0,-2.2152,0.0,0.0,0.0,0.0,0.0,0.0,0.0,-3.314,-3.5055,-3.6958,0.0,-3.7803,-3.9519,-4.0141,-4.0738,-4.1283,-4.2713,-4.3732,-4.4297,-4.5163,-4.5586,-4.5586,-4.5586,-4.5586,-4.5586,-4.5586,-4.5586,-4.5586,-4.5586,-4.5586,-4.5586,-4.5586,-4.597,-4.6644,-4.7702,-4.849,-4.9183,-5.0279,-5.0702,-5.0702,-5.0702,-5.0702,-5.0702,-5.0702,-5.0702,-5.0702,-5.0702,-5.0702,-5.0702,-5.0702,-5.0702,-5.0702,-5.0702,-5.0702,-5.0702,-5.0702,-5.0702,-5.0702,-5.0702,-5.0702,-5.0702,-5.0702,-5.0702,-5.0702,-5.0702,-5.0702,-5.0702,-5.0702,-5.0702,-5.0702,-5.0702,-5.0702,-5.0702,-5.0702,-5.0702,-5.0702,-5.0702,-5.0702,-5.0702,-5.0702,-5.0702,-5.0702,-5.0702,-5.0741,-5.0741,-5.0741,-5.0914,-5.102,-5.1127,-5.1213,-5.1312,-5.1411,-5.1406,-5.1406,0.0,0.0,0.0,-2.4709,0.0,0.0,0.0,0.0,-2.3988,0.0,0.0,0.0,0.0,0.0,0.0,0.0,0.0,0.0,0.0,0.0,0.0,0.0,0.0,0.0,0.0,-2.7148,-2.9061,0.0,-3.3854,-3.5472,-3.9387,-3.9618,-4.0154,-4.1264,-4.2161,-4.3178,-4.4297,-4.5163,-4.5586,-4.5586,-4.5586,-4.5586,-4.5586,-4.5586,-4.5586,-4.5586,-4.5586,-4.5586,-4.5586,-4.5586,-4.5605,-4.5797,-4.7451,-4.8125,-4.8355,-5.0067,-5.0702,-5.0702,-5.0702,-5.0702,-5.0702,-5.0702,-5.0702,-5.0702,-5.0702,-5.0702,-5.0702,-5.0702,-5.0702,-5.0702,-5.0702,-5.0702,-5.0702,-5.0702,-5.0702,-5.0702,-5.0702,-5.0702,-5.0702,-5.0702,-5.0702,-5.0702,-5.0702,-5.0702,-5.0702,-5.0702,-5.0702,-5.0702,-5.0702,-5.0702,-5.0702,-5.0702,-5.0702,-5.0702,-5.0702,-5.0702,-5.0702,-5.0702,-5.0702,-5.0702,-5.0702,-5.0837,-5.0895,-5.0895,-5.1087,-5.1203,-5.1203,-5.1337,-5.1393,-5.1405,-5.1406,-5.1406,0.0,0.0,-2.9844,-2.696,0.0,0.0,0.0,0.0,0.0,0.0,0.0,0.0,0.0,0.0,0.0,0.0,0.0,0.0,0.0,0.0,0.0,0.0,0.0,0.0,0.0,0.0,0.0,0.0,-3.5127,0.0,-3.9297,-3.9906,-4.0363,-4.0758,-4.1602,-4.2537,-4.3508,-4.4335,-4.5028,-4.5586,-4.5586,-4.5586,-4.5586,-4.5586,-4.5586,-4.5586,-4.5586,-4.5586,-4.5586,-4.5586,-4.5586,-4.5701,-4.6855,-4.7625,-4.8317,-5.0048,-5.0702,-5.0702,-5.0702,-5.0702,-5.0702,-5.0702,-5.0702,-5.0702,-5.0702,-5.0702,-5.0702,-5.0702,-5.0702,-5.0702,-5.0702,-5.0702,-5.0702,-5.0702,-5.0702,-5.0702,-5.0702,-5.0702,-5.0702,-5.0702,-5.0702,-5.0702,-5.0702,-5.0702,-5.0702,-5.0702,-5.0702,-5.0702,-5.0702,-5.0702,-5.0702,-5.0702,-5.0702,-5.0702,-5.0702,-5.0702,-5.0702,-5.0702,-5.0702,-5.0702,-5.0702,-5.0741,-5.076,-5.076,-5.0919,-5.1058,-5.114,-5.1209,-5.1308,-5.1406,-5.1406,-5.1406,-3.3497,-3.2746,0.0,-2.8903,-2.9039,0.0,-2.5933,0.0,0.0,0.0,0.0,0.0,0.0,0.0,0.0,0.0,0.0,0.0,0.0,-1.829,0.0,0.0,0.0,0.0,0.0,0.0,0.0,-3.1936,-3.4372,-3.6745,0.0,-3.9746,-4.02,-4.0489,-4.1354,-4.222,-4.3085,-4.3893,-4.4739,-4.5586,-4.5586,-4.5586,-4.5586,-4.5586,-4.5586,-4.5586,-4.5586,-4.5586,-4.5586,-4.5586,-4.5586,-4.5682,-4.6567,-4.7394,-4.8279,-4.9702,-5.0433,-5.0702,-5.0702,-5.0702,-5.0702,-5.0702,-5.0702,-5.0702,-5.0702,-5.0702,-5.0818,-5.1414,-5.1164,-5.0837,-5.1433,-5.1144,-5.0702,-5.0702,-5.0702,-5.0702,-5.0702,-5.0702,-5.0702,-5.0702,-5.0702,-5.0702,-5.0702,-5.0702,-5.0702,-5.0702,-5.0702,-5.0702,-5.0702,-5.0702,-5.0702,-5.0702,-5.0702,-5.0702,-5.0702,-5.0702,-5.0702,-5.0702,-5.0702,-5.0702,-5.0702,-5.0741,-5.076,-5.076,-5.0902,-5.1024,-5.1147,-5.1171,-5.1269,-5.1406,-5.1406,-5.1406]}]]